[[{"header":{"parameterUnit":"m.s-1","parameterCategory":1,"la1":30.6,"la2":29.2853,"lo1":-89.7004,"lo2":-87.6739,"dy":0.0162,"dx":0.0183,"nx":112,"ny":82,"refTime":"2023-04-19T12:00:00:Z","depth":0,"parameterNumber":2,"parameterNumberName":"U-component_of_WINDS"},"data":[0.0,0.0,0.0,0.0,0.0,0.0,0.0,0.0,0.0,0.0,0.0,0.0,0.0,0.0,0.0,0.0,0.0,0.0,0.0,0.0,0.0,0.0,0.0,0.0,0.0,0.0,0.0,0.0,0.0,0.0,0.0,0.0,0.0,0.0,0.0,0.0,0.0,0.0,0.0,0.0,0.0,0.0,0.0,0.0,0.0,0.0,0.0,0.0,0.0,0.0,0.0,0.0,0.0,0.0,0.0,0.0,0.0,0.0,0.0,0.0,0.0,0.0,0.0,0.0,0.0,0.0,0.0,0.0,0.0,0.0,0.0,0.0,0.0,0.0,0.0,0.0,0.0,0.0,0.0,0.0,0.0,0.0,0.0,0.0,0.0,0.0,0.0,0.0,0.0,0.0,-0.0865,-0.1091,-0.3485,-0.5797,-0.763,-0.9017,-1.0681,-1.2755,0.0,0.0,0.0,0.0,0.0,0.0,0.0,0.0,0.0,0.0,0.0,0.0,0.0,0.0,0.0,0.0,0.0,0.0,0.0,0.0,0.0,0.0,0.0,0.0,0.0,0.0,0.0,0.0,0.0,0.0,0.0,0.0,0.0,0.0,0.0,0.0,0.0,0.0,0.0,0.0,0.0,0.0,0.0,0.0,0.0,0.0,0.0,0.0,0.0,0.0,0.0,0.0,0.0,0.0,0.0,0.0,0.0,0.0,0.0,0.0,0.0,0.0,0.0,0.0,0.0,0.0,0.0,0.0,0.0,0.0,0.0,0.0,0.0,0.0,0.0,0.0,0.0,0.0,0.0,0.0,0.0,0.0,0.0,0.0,0.0,0.0,0.0,0.0,0.0,0.0,0.0,0.0,0.0,0.0,0.0,0.0,0.0,0.0,0.0,0.0,0.0,0.0,0.0,0.0,-0.1067,-0.1988,-0.3489,-0.5322,-0.7535,-0.8477,-1.0093,-1.2647,0.0,0.0,0.0,0.0,0.0,0.0,0.0,0.0,0.0,0.0,0.0,0.0,0.0,0.0,0.0,0.0,0.0,0.0,0.0,0.0,0.0,0.0,0.0,0.0,0.0,0.0,0.0,0.0,0.0,0.0,0.0,0.0,0.0,0.0,0.0,0.0,0.0,0.0,0.0,0.0,0.0,0.0,0.0,0.0,0.0,0.0,0.0,0.0,0.0,0.0,0.0,0.0,0.0,0.0,0.0,0.0,0.0,0.0,0.0,0.0,0.0,0.0,0.0,0.0,0.0,0.0,0.0,0.0,0.0,0.0,0.0,0.0,0.0,0.0,0.0,0.0,0.0,0.0,0.0,0.0,0.0,0.0,0.0,0.0,0.0,0.0,0.0,0.0,0.0,0.0,0.0,0.0,0.0,0.0,0.0,0.0,0.0,0.0,0.0,0.0,0.0,0.0,0.0,-0.182,-0.181,-0.245,-0.3777,-0.5384,-0.7216,-0.8579,-1.0285,-1.2492,-1.3764,0.0,0.0,0.0,0.0,0.0,0.0,0.0,0.0,0.0,0.0,0.0,0.0,0.0,0.0,0.0,0.0,0.0,0.0,0.0,0.0,0.0,0.0,0.0,0.0,0.0,0.0,0.0,0.0,0.0,0.0,0.0,0.0,0.0,0.0,0.0,0.0,0.0,0.0,0.0,0.0,0.0,0.0,0.0,0.0,0.0,0.0,0.0,0.0,0.0,0.0,0.0,0.0,0.0,0.0,0.0,0.0,0.0,0.0,0.0,0.0,0.0,0.0,0.0,0.0,0.0,0.0,0.0,0.0,0.0,0.0,0.0,0.0,0.0,0.0,0.0,0.0,0.0,0.0,0.0,0.0,0.0,0.0,0.0,0.0,0.0,0.0,0.0,0.0,0.0,0.0,0.0,0.0,0.0,0.0,0.0,0.0,0.0,0.0,0.0,0.0,0.0,0.0,-0.2031,-0.2504,-0.3087,-0.4259,-0.5639,-0.7257,-0.8918,-1.0644,-1.2432,-1.3684,0.0,0.0,0.0,0.0,0.0,0.0,0.0,0.0,0.0,0.0,0.0,0.0,0.0,0.0,0.0,0.0,0.0,0.0,0.0,0.0,0.0,0.0,0.0,0.0,0.0,0.0,0.0,0.0,0.0,0.0,0.0,0.0,0.0,0.0,0.0,0.0,0.0,0.0,0.0,0.0,0.0,0.0,0.0,0.0,0.0,0.0,0.0,0.0,0.0,0.0,0.0,0.0,0.0,0.0,0.0,0.0,0.0,0.0,0.0,0.0,0.0,0.0,0.0,0.0,0.0,0.0,0.0,0.0,0.0,0.0,0.0,0.0,0.0,0.0,0.0,0.0,0.0,0.0,0.0,0.0,0.0,0.0,0.0,0.0,0.0,0.0,0.0,0.0,0.0,0.0,0.0,0.0,0.0,0.0,0.0,0.0,0.0,0.0,0.0,0.0,0.0,0.0,-0.211,-0.2793,-0.4302,-0.4963,-0.6074,-0.8047,-0.9429,-1.0883,-1.2561,-1.3858,0.0,0.0,0.0,0.0,0.0,0.0,0.0,0.0,0.0,0.0,0.0,0.0,0.0,0.0,0.0,0.0,0.0,0.0,0.0,0.0,0.0,0.0,0.0,0.0,0.0,0.0,0.0,0.0,0.0,0.0,0.0,0.0,0.0,0.0,0.0,0.0,0.0,0.0,0.0,0.0,0.0,0.0,0.0,0.0,0.0,0.0,0.0,0.0,0.0,0.0,0.0,0.0,0.0,0.0,0.0,0.0,0.0,0.0,0.0,0.0,0.0,0.0,0.0,0.0,0.0,0.0,0.0,0.0,0.0,0.0,0.0,0.0,0.0,0.0,0.0,0.0,0.0,0.0,0.0,0.0,0.0,0.0,0.0,0.0,0.0,0.0,0.0,0.0,0.0,0.0,0.0,0.0,0.0,0.0,0.0,0.0,0.0,0.0,0.0,0.0,0.0,0.0,-0.3168,-0.3552,-0.4493,-0.5477,-0.664,-0.8112,-0.9517,-1.1025,-1.2662,0.0,0.0,0.0,0.0,0.0,0.0,0.0,0.0,0.0,0.0,0.0,0.0,0.0,0.0,0.0,0.0,0.0,0.0,0.0,0.0,0.0,0.0,0.0,0.0,0.0,0.0,0.0,0.0,0.0,0.0,0.0,0.0,0.0,0.0,0.0,0.0,0.0,0.0,0.0,0.0,0.0,0.0,0.0,0.0,0.0,0.0,0.0,0.0,0.0,0.0,0.0,0.0,0.0,0.0,0.0,0.0,0.0,0.0,0.0,0.0,0.0,0.0,0.0,0.0,0.0,0.0,0.0,0.0,0.0,0.0,0.0,0.0,0.0,0.0,0.0,0.0,0.0,0.0,0.0,0.0,0.0,0.0,0.0,0.0,0.0,0.0,0.0,0.0,0.0,0.0,0.0,0.0,0.0,0.0,0.0,0.0,0.0,0.0,0.0,0.0,0.0,0.0,-0.4056,-0.4017,-0.4229,-0.4842,-0.6026,-0.7256,-0.8515,-0.9919,-1.1393,-1.287,0.0,0.0,0.0,0.0,0.0,0.0,0.0,0.0,0.0,0.0,0.0,0.0,0.0,0.0,0.0,0.0,0.0,0.0,0.0,0.0,0.0,0.0,0.0,0.0,0.0,0.0,0.0,0.0,0.0,0.0,0.0,0.0,0.0,0.0,0.0,0.0,0.0,0.0,0.0,0.0,0.0,0.0,0.0,0.0,0.0,0.0,0.0,0.0,0.0,0.0,0.0,0.0,0.0,0.0,0.0,0.0,0.0,0.0,0.0,0.0,0.0,0.0,0.0,0.0,0.0,0.0,0.0,0.0,0.0,0.0,0.0,0.0,0.0,0.0,0.0,0.0,0.0,0.0,0.0,0.0,0.0,0.0,0.0,0.0,0.0,0.0,0.0,0.0,0.0,0.0,0.0,0.0,0.0,0.0,0.0,0.0,0.0,0.0,0.0,0.0,0.0,0.0,-0.4648,-0.4502,-0.4729,-0.5528,-0.6626,-0.7897,-0.9362,-1.0723,-1.2022,0.0,0.0,0.0,0.0,0.0,0.0,0.0,0.0,0.0,0.0,0.0,0.0,0.0,0.0,0.0,0.0,0.0,0.0,0.0,0.0,0.0,0.0,0.0,0.0,0.0,0.0,0.0,0.0,0.0,0.0,0.0,0.0,0.0,0.0,0.0,0.0,0.0,0.0,0.0,0.0,0.0,0.0,0.0,0.0,0.0,0.0,0.0,0.0,0.0,0.0,0.0,0.0,0.0,0.0,0.0,0.0,0.0,0.0,0.0,0.0,0.0,0.0,0.0,0.0,0.0,0.0,0.0,0.0,0.0,0.0,0.0,0.0,0.0,0.0,0.0,0.0,0.0,0.0,0.0,0.0,0.0,0.0,0.0,0.0,0.0,0.0,0.0,0.0,0.0,0.0,0.0,0.0,0.0,0.0,0.0,0.0,0.0,0.0,0.0,0.0,0.0,0.0,0.0,-0.5542,-0.5438,-0.5727,-0.6635,-0.7456,-0.8426,-0.9605,-1.1115,-1.229,-1.2896,0.0,0.0,0.0,0.0,0.0,0.0,0.0,0.0,0.0,0.0,0.0,0.0,0.0,0.0,0.0,0.0,0.0,0.0,0.0,0.0,0.0,0.0,0.0,0.0,0.0,0.0,0.0,0.0,0.0,0.0,0.0,0.0,0.0,0.0,0.0,0.0,0.0,0.0,0.0,0.0,0.0,0.0,0.0,0.0,0.0,0.0,0.0,0.0,0.0,0.0,0.0,0.0,0.0,0.0,0.0,0.0,0.0,0.0,0.0,0.0,0.0,0.0,0.0,0.0,0.0,0.0,0.0,0.0,0.0,0.0,0.0,0.0,0.0,0.0,0.0,0.0,0.0,0.0,0.0,0.0,0.0,0.0,0.0,0.0,0.0,0.0,0.0,0.0,0.0,0.0,0.0,0.0,0.0,0.0,0.0,0.0,0.0,0.0,0.0,0.0,0.0,0.0,-0.6203,-0.6174,-0.6432,-0.7175,-0.7991,-0.8873,-0.9923,-1.1299,-1.2353,-1.3033,0.0,0.0,0.0,0.0,0.0,0.0,0.0,0.0,0.0,0.0,0.0,0.0,0.0,0.0,0.0,0.0,0.0,0.0,0.0,0.0,0.0,0.0,0.0,0.0,0.0,0.0,0.0,0.0,0.0,0.0,0.0,0.0,0.0,0.0,0.0,0.0,0.0,0.0,0.0,0.0,0.0,0.0,0.0,0.0,0.0,0.0,0.0,0.0,0.0,0.0,0.0,0.0,0.0,0.0,0.0,0.0,0.0,0.0,0.0,0.0,0.0,0.0,0.0,0.0,0.0,0.0,0.0,0.0,0.0,0.0,0.0,0.0,0.0,0.0,0.0,0.0,0.0,0.0,0.0,0.0,0.0,0.0,0.0,0.0,0.0,0.0,0.0,0.0,0.0,0.0,0.0,0.0,0.0,0.0,0.0,0.0,0.0,0.0,0.0,0.0,0.0,0.0,-0.6712,-0.6749,-0.6959,-0.7389,-0.8346,-0.936,-1.0276,-1.1327,-1.2412,-1.3406,0.0,0.0,0.0,0.0,0.0,0.0,0.0,0.0,0.0,0.0,0.0,0.0,0.0,0.0,0.0,0.0,0.0,0.0,0.0,0.0,0.0,0.0,0.0,0.0,0.0,0.0,0.0,0.0,0.0,0.0,0.0,0.0,0.0,0.0,0.0,0.0,0.0,0.0,0.0,0.0,0.0,0.0,0.0,0.0,0.0,0.0,0.0,0.0,0.0,0.0,0.0,0.0,0.0,0.0,0.0,0.0,0.0,0.0,0.0,0.0,-4.6357,-4.4026,0.0,0.0,0.0,0.0,0.0,0.0,0.0,0.0,0.0,0.0,0.0,0.0,0.0,0.0,0.0,0.0,0.0,0.0,0.0,0.0,0.0,0.0,0.0,0.0,0.0,0.0,0.0,0.0,0.0,0.0,0.0,0.0,0.0,0.0,0.0,0.0,0.0,0.0,0.0,0.0,-0.7551,-0.7465,-0.7651,-0.8323,-0.9036,-0.9819,-1.0712,-1.1806,-1.2644,-1.3067,-1.4146,0.0,0.0,0.0,0.0,0.0,0.0,0.0,0.0,0.0,0.0,0.0,0.0,0.0,0.0,0.0,0.0,0.0,0.0,0.0,0.0,0.0,0.0,0.0,0.0,0.0,0.0,0.0,0.0,0.0,0.0,0.0,0.0,0.0,0.0,0.0,0.0,0.0,0.0,0.0,0.0,0.0,0.0,0.0,0.0,0.0,0.0,0.0,0.0,0.0,0.0,0.0,0.0,0.0,0.0,0.0,0.0,0.0,0.0,0.0,-4.5316,-4.3552,0.0,0.0,0.0,0.0,0.0,0.0,0.0,0.0,0.0,0.0,0.0,0.0,0.0,0.0,0.0,0.0,0.0,0.0,0.0,0.0,0.0,0.0,0.0,0.0,0.0,0.0,0.0,0.0,0.0,0.0,0.0,0.0,0.0,0.0,0.0,0.0,0.0,0.0,0.0,0.0,-0.7668,-0.7501,-0.7747,-0.8648,-0.9271,-1.0034,-1.1004,-1.1882,-1.2609,-1.3175,-1.405,0.0,0.0,0.0,0.0,0.0,0.0,0.0,0.0,0.0,0.0,0.0,0.0,0.0,0.0,0.0,0.0,0.0,0.0,0.0,0.0,0.0,0.0,0.0,0.0,0.0,0.0,0.0,0.0,0.0,0.0,0.0,0.0,0.0,0.0,0.0,0.0,0.0,0.0,0.0,0.0,0.0,0.0,0.0,0.0,0.0,0.0,0.0,0.0,0.0,0.0,0.0,0.0,0.0,-2.3712,-2.7446,-3.2486,-3.6057,-3.9137,-4.1767,-4.2342,-4.144,-3.9089,-3.3685,0.0,0.0,0.0,0.0,0.0,0.0,0.0,0.0,0.0,0.0,0.0,0.0,0.0,0.0,0.0,0.0,0.0,0.0,0.0,0.0,0.0,0.0,-2.1547,-2.1291,-2.1184,-2.0536,-1.8515,0.0,0.0,0.0,0.0,0.0,0.0,0.0,0.0,0.0,0.0,0.0,-0.7675,-0.753,-0.7785,-0.8742,-0.9437,-1.0205,-1.115,-1.1806,-1.2464,-1.3163,-1.3763,-1.4169,0.0,0.0,0.0,0.0,0.0,0.0,0.0,0.0,0.0,0.0,0.0,0.0,0.0,0.0,0.0,0.0,0.0,0.0,0.0,0.0,0.0,0.0,0.0,0.0,0.0,0.0,0.0,0.0,0.0,0.0,0.0,0.0,-3.8381,-3.6019,0.0,0.0,0.0,0.0,0.0,0.0,0.0,0.0,0.0,0.0,0.0,0.0,0.0,-2.2642,-2.176,-2.1688,-2.1917,-2.2452,-2.4885,-2.7517,-3.0324,-3.3571,-3.5974,-3.7475,-3.6884,0.0,-3.6142,-3.2705,0.0,0.0,0.0,0.0,0.0,0.0,0.0,0.0,0.0,0.0,0.0,0.0,0.0,0.0,0.0,0.0,0.0,0.0,0.0,0.0,0.0,0.0,-1.9378,-1.9846,-1.9875,-1.9518,-1.8271,-1.7838,-1.7211,-1.5743,-1.5008,-1.4202,0.0,0.0,0.0,0.0,0.0,0.0,-0.8466,-0.8375,-0.8506,-0.8926,-0.9843,-1.0525,-1.0849,-1.158,-1.215,-1.2441,-1.2971,-1.3415,-1.3723,-1.4094,0.0,0.0,0.0,0.0,0.0,0.0,0.0,0.0,0.0,0.0,0.0,0.0,0.0,0.0,0.0,0.0,0.0,0.0,0.0,0.0,0.0,0.0,0.0,0.0,0.0,0.0,0.0,0.0,0.0,-3.9661,-3.8651,-3.6227,-3.5891,-3.463,0.0,0.0,0.0,0.0,0.0,0.0,0.0,0.0,0.0,-2.2921,-2.295,-2.2686,-2.2172,-2.2088,-2.2343,-2.2957,-2.5004,-2.7163,-2.9485,-3.1809,-3.3529,-3.4631,-3.3836,-3.2747,-3.1425,-2.9561,-2.6129,-2.164,0.0,0.0,0.0,0.0,-0.1254,0.2314,0.5809,0.8257,0.9851,1.0356,0.0,0.0,0.0,0.0,0.0,0.0,0.0,-1.4344,-1.5921,-1.6918,-1.7694,-1.8261,-1.8508,-1.8415,-1.7654,-1.7229,-1.6756,-1.5806,-1.512,-1.4365,-1.3065,0.0,0.0,0.0,0.0,-0.8362,-0.8141,-0.8073,-0.822,-0.8714,-0.9444,-1.0062,-1.0526,-1.1152,-1.171,-1.2119,-1.2517,-1.2927,-1.3282,-1.3523,-1.3809,0.0,0.0,0.0,0.0,0.0,0.0,0.0,0.0,0.0,0.0,0.0,0.0,0.0,0.0,0.0,0.0,0.0,0.0,0.0,0.0,0.0,0.0,0.0,0.0,0.0,0.0,0.0,0.0,-3.9625,-3.8843,-3.6603,-3.6106,-3.4849,0.0,0.0,0.0,0.0,0.0,0.0,-2.3819,-2.3255,-2.2885,-2.2846,-2.2958,-2.283,-2.2482,-2.2548,-2.2874,-2.3402,-2.497,-2.6654,-2.8467,-3.0033,-3.1146,-3.1878,-3.1091,-2.9621,-2.7688,-2.6764,-2.4356,-2.0864,-1.6653,-1.2957,-0.9499,-0.5555,-0.1981,0.1357,0.466,0.7012,0.859,0.9294,0.8122,0.5884,0.315,0.0,0.0,0.0,0.0,-1.2605,-1.4012,-1.5144,-1.6016,-1.6536,-1.6793,-1.6826,-1.6463,-1.6035,-1.5673,-1.5463,-1.5048,-1.4313,-1.2985,0.0,0.0,-0.9627,-0.876,-0.8171,-0.7897,-0.788,-0.8038,-0.8553,-0.9149,-0.966,-0.9997,-1.0598,-1.1109,-1.139,-1.1721,-1.2073,-1.2481,-1.2638,-1.2867,-1.3072,0.0,0.0,0.0,0.0,0.0,0.0,0.0,0.0,0.0,0.0,0.0,0.0,0.0,0.0,0.0,0.0,0.0,0.0,0.0,0.0,0.0,0.0,0.0,0.0,0.0,0.0,0.0,0.0,0.0,-3.7417,-3.6462,0.0,0.0,0.0,0.0,-2.7813,-2.6106,-2.4826,-2.4213,-2.3412,-2.2877,-2.2595,-2.2939,-2.2839,-2.2427,-2.3201,-2.3759,-2.3948,-2.5115,-2.6012,-2.6698,-2.795,-2.8603,-2.8623,-2.7903,-2.7106,-2.6225,-2.5506,-2.2873,-1.9034,-1.5947,-1.2538,-0.9053,-0.5779,-0.2541,0.0615,0.3138,0.5513,0.7355,0.7358,0.5549,0.2862,-0.0153,-0.2783,0.0,0.0,-0.9647,-1.0918,-1.2548,-1.3426,-1.403,-1.4609,-1.463,-1.4491,-1.4429,-1.4025,-1.3921,0.0,-1.4785,-1.406,-1.2357,0.0,-1.1005,-0.9299,-0.8826,-0.8609,-0.8374,-0.831,-0.8354,-0.8565,-0.9318,-0.9581,-0.9009,-0.9806,-1.0181,-0.9836,-1.0137,-1.0474,-1.0814,-1.1065,-1.1538,-1.2246,-1.2783,0.0,0.0,0.0,0.0,0.0,0.0,0.0,0.0,0.0,0.0,0.0,0.0,0.0,0.0,0.0,0.0,0.0,0.0,0.0,0.0,0.0,0.0,0.0,0.0,0.0,0.0,0.0,0.0,-3.6932,-3.6226,0.0,-3.2612,-3.1634,-3.0459,-2.8703,-2.7142,-2.5856,-2.5099,-2.4187,-2.3689,-2.3573,-2.3684,-2.3636,-2.3499,-2.3488,-2.364,-2.3892,-2.4683,-2.5359,-2.5887,-2.6827,-2.7336,-2.7443,-2.6651,-2.5896,-2.5075,-2.3255,-2.1211,-1.8926,-1.6015,-1.3051,-1.012,-0.7359,-0.4579,-0.1839,0.0462,0.2406,0.3875,0.404,0.2831,0.0901,-0.1547,-0.3611,-0.5573,-0.782,-0.9314,-1.0469,-1.1768,-1.246,-1.2911,-1.3287,-1.3221,-1.3032,-1.289,-1.2719,-1.2598,-1.2675,-1.2716,-1.2494,-1.1743,-1.076,-0.9888,-0.9119,-0.8609,-0.8299,-0.8228,-0.8132,-0.814,-0.8204,-0.8782,-0.8964,-0.8474,-0.9036,-0.9326,-0.9206,-0.9411,-0.9754,-1.022,-1.0496,-1.0731,-1.0916,-1.1695,-1.2245,0.0,0.0,0.0,0.0,0.0,0.0,0.0,0.0,0.0,0.0,0.0,0.0,0.0,0.0,0.0,0.0,0.0,0.0,0.0,0.0,0.0,0.0,0.0,0.0,0.0,-3.8927,-3.8222,-3.6461,-3.5848,-3.4823,-3.3009,-3.2078,-3.0934,-2.9427,-2.7987,-2.6684,-2.5536,-2.4874,-2.4418,-2.4114,-2.4225,-2.4225,-2.4114,-2.3883,-2.3821,-2.386,-2.4467,-2.4867,-2.5126,-2.5719,-2.61,-2.6209,-2.5428,-2.4689,-2.3908,-2.1884,-2.031,-1.8844,-1.6126,-1.3467,-1.1,-0.8706,-0.6243,-0.3713,-0.122,0.0265,0.1115,0.1434,0.0594,-0.0825,-0.2584,-0.4283,-0.5933,-0.7647,-0.8974,-1.0134,-1.0866,-1.1555,-1.2031,-1.2246,-1.2156,-1.1981,-1.1852,-1.176,-1.1603,-1.1281,-1.1473,-1.1502,-1.1025,-1.0147,-0.9305,-0.882,-0.8363,-0.8062,-0.8074,-0.8011,-0.8061,-0.817,-0.8545,-0.8635,-0.8229,-0.8581,-0.8834,-0.8796,-0.8763,-0.8962,-0.9369,-0.9454,-0.9485,-0.9468,-1.0603,-1.125,-1.1407,0.0,0.0,0.0,0.0,0.0,0.0,0.0,0.0,0.0,0.0,0.0,0.0,0.0,0.0,0.0,0.0,0.0,0.0,0.0,0.0,0.0,0.0,0.0,-3.9231,-3.8653,-3.7729,-3.6137,-3.5305,-3.4482,-3.344,-3.2096,-3.0915,-2.9891,-2.8602,-2.7158,-2.5569,-2.5476,-2.5093,-2.4161,-2.448,-2.4436,-2.4145,-2.4365,-2.4305,-2.4039,-2.458,-2.4738,-2.4401,-2.4646,-2.474,-2.4706,-2.4073,-2.3431,-2.2796,-2.1503,-2.0128,-1.8645,-1.6108,-1.3777,-1.1615,-0.9771,-0.741,-0.4778,-0.1808,-0.0745,-0.0692,-0.0426,-0.1145,-0.2298,-0.353,-0.487,-0.6308,-0.751,-0.8704,-0.9674,-1.0077,-1.0755,-1.1374,-1.1431,-1.1362,-1.1309,-1.13,-1.1089,-1.0845,-1.0713,-1.1134,-1.1147,-1.0232,-0.9956,-0.9472,-0.8388,-0.8116,0.0,-0.802,-0.802,-0.818,-0.8568,-0.8727,-0.8647,-0.8218,-0.8504,-0.864,-0.8566,-0.812,-0.7966,-0.8143,-0.7845,-0.7781,-0.7981,-0.9512,-1.051,-1.0944,0.0,0.0,0.0,0.0,0.0,0.0,0.0,0.0,0.0,0.0,0.0,0.0,0.0,0.0,0.0,0.0,0.0,0.0,0.0,0.0,0.0,-3.8034,-3.824,-3.8745,-3.862,-3.7975,-3.6714,-3.569,-3.4666,-3.3476,-3.237,-3.1265,-3.0335,-2.8851,-2.7568,-2.6628,-2.5946,-2.5355,-2.4817,-2.4913,-2.4913,-2.4817,-2.4683,-2.4508,-2.4412,-2.4551,-2.4301,-2.3747,-2.4073,-2.3982,-2.3456,-2.3079,-2.2711,-2.223,-2.0762,-1.9556,-1.841,-1.6646,-1.4806,-1.2935,-1.0945,-0.8458,-0.5786,-0.4244,-0.3503,-0.3204,-0.3148,-0.3535,-0.429,-0.5504,-0.6334,-0.7127,-0.8676,-0.9528,-1.0142,-1.0791,-1.1208,-1.1438,-1.1298,-1.1149,-1.1062,-1.092,-1.0799,-1.0708,-1.0534,-1.0607,-1.0552,-0.9986,-0.9469,-0.8997,-0.8673,-0.8375,0.0,-0.8399,-0.8494,-0.8588,-0.8791,-0.9082,-0.8953,-0.8319,-0.8534,-0.8369,-0.7572,-0.7388,-0.7261,-0.7122,-0.703,-0.7188,-0.7628,-0.8034,-0.8538,0.0,0.0,0.0,0.0,0.0,0.0,0.0,0.0,0.0,0.0,0.0,0.0,0.0,0.0,0.0,0.0,0.0,0.0,0.0,0.0,0.0,0.0,-3.7672,-3.782,-3.8111,-3.8134,-3.7685,-3.6578,-3.575,-3.4797,-3.3505,-3.2606,-3.1624,-3.0306,-2.9318,-2.8254,-2.7165,-2.6546,-2.6048,-2.5611,-2.5405,-2.5326,-2.5326,-2.4976,-2.4722,-2.4579,-2.4432,-2.4027,-2.3535,-2.342,-2.3132,-2.2601,-2.2291,-2.1888,-2.1288,-2.0245,-1.9193,-1.8097,0.0,0.0,0.0,0.0,-0.8967,-0.7104,-0.6083,-0.5572,-0.5337,-0.5257,-0.5502,-0.5991,-0.6872,-0.7407,-0.8013,-0.9275,-0.9947,-1.045,-1.1085,-1.1336,-1.1468,-1.1362,-1.1151,-1.094,-1.0667,-1.0634,-1.0585,-1.0299,-1.0321,0.0,-0.9921,-0.9436,-0.9058,-0.8812,-0.8632,-0.8598,-0.8721,-0.8779,-0.8948,-0.9285,-0.9379,-0.9164,-0.8634,-0.8604,0.0,0.0,0.0,-0.6752,-0.6191,-0.5889,0.0,0.0,0.0,-0.6953,-0.7462,-0.8911,0.0,0.0,-1.5516,-1.7338,0.0,0.0,0.0,0.0,0.0,0.0,0.0,0.0,0.0,0.0,0.0,0.0,0.0,0.0,0.0,0.0,-3.7533,-3.7637,-3.7314,-3.7427,-3.7185,-3.6092,-3.5654,-3.4912,-3.3575,-3.2894,-3.1852,-3.0218,-2.9781,-2.8922,-2.7317,-2.7253,0.0,0.0,0.0,-2.5581,-2.5581,-2.5232,-2.4883,-2.4582,-2.4264,-2.3911,-2.3526,-2.2864,-2.2419,-2.2008,-2.1624,-2.1018,-2.0211,-1.9863,-1.892,-1.7689,-1.648,-1.5128,-1.3544,-1.0867,-0.9384,-0.8575,-0.7618,0.0,0.0,-0.7062,-0.7233,-0.7572,-0.7993,-0.8414,-0.8954,-0.9666,-1.0256,-1.0792,-1.109,-1.1371,-1.1524,-1.15,-1.1256,-1.0964,-1.0666,-1.0683,-1.0625,-1.0185,-1.0307,-1.0347,-0.9981,-0.9754,-0.9413,-0.8879,-0.8886,-0.8939,-0.8964,-0.9037,-0.9268,-0.9814,0.0,0.0,-0.8981,-0.868,-0.8276,-0.7762,-0.7046,-0.618,-0.5239,-0.4622,-0.4342,-0.4464,-0.5154,-0.5622,-0.5814,-0.7328,-0.8469,-0.9282,-1.2764,-1.4922,0.0,0.0,0.0,0.0,0.0,0.0,0.0,0.0,0.0,0.0,0.0,0.0,0.0,0.0,0.0,-3.6071,-3.641,-3.6667,-3.6606,-3.6924,-3.6985,-3.6392,-3.5685,-3.487,-3.3821,-3.2792,-3.1745,-3.0629,-2.9777,-2.8815,-2.768,-2.7364,-2.6855,-2.6216,-2.5818,-2.5581,-2.5581,-2.4968,-2.4641,-2.4578,-2.4255,0.0,-2.3202,-2.2779,-2.2301,-2.174,-2.0833,-2.0237,-1.9824,-1.9233,-1.827,-1.6968,-1.5587,-1.4191,-1.2765,-1.1699,-1.0721,-0.9821,-0.9614,-0.936,-0.9075,-0.9038,-0.8957,-0.901,-0.9632,-0.9883,0.0,-1.108,-1.1363,-1.1379,-1.1747,-1.1764,-1.1687,-1.1533,-1.1443,-1.1354,-1.1093,-1.0981,-1.0907,-1.0811,-1.0745,-1.0526,-1.022,-0.9843,-0.96,-0.9571,-0.9332,-0.9244,-0.9417,-0.9456,-0.9528,-0.958,-0.9516,-0.9278,-0.8788,-0.8487,-0.7881,-0.6835,-0.558,-0.4621,-0.4052,-0.3751,-0.3594,-0.3644,-0.4134,-0.4502,-0.472,-0.598,-0.6838,-0.7408,-1.1201,-1.3503,0.0,0.0,0.0,0.0,0.0,0.0,0.0,0.0,0.0,0.0,0.0,-3.5956,-3.5912,0.0,-3.6829,-3.5924,-3.6225,-3.6478,-3.6061,-3.6226,-3.6267,-3.5954,-3.5726,-3.5129,-3.3697,-3.2917,-3.2013,-3.081,-3.0113,-2.9264,-2.8042,-2.7847,-2.7393,-2.6741,-2.6168,-2.5898,-2.5898,-2.5062,-2.461,-2.461,-2.41,-2.3638,-2.335,-2.2635,-2.2108,-2.1647,-2.0796,-2.012,-1.9473,-1.8615,-1.7827,-1.7024,-1.5981,-1.4587,-1.3172,-1.2516,-1.1669,-1.0865,-1.0914,-1.0652,-1.0363,-1.0447,-1.0398,-1.0333,-1.0714,-1.0777,-1.0968,-1.1609,-1.1736,-1.1729,-1.2041,-1.2101,-1.1996,-1.1809,-1.1703,-1.1589,-1.1227,-1.1109,-1.1013,-1.0642,-1.0723,-1.0712,-1.0195,-0.9967,-0.982,-0.9646,-0.9418,-0.9373,-0.9544,-0.9444,-0.9406,-0.9399,-0.9276,-0.9,-0.8429,-0.7636,-0.6791,-0.5966,-0.4755,-0.3964,-0.3667,-0.3369,-0.3163,-0.311,-0.3387,-0.3668,-0.3892,-0.4883,-0.5639,-0.6234,-0.8975,-1.0968,0.0,0.0,0.0,0.0,0.0,0.0,0.0,-3.3206,-3.3862,-3.442,-3.534,-3.6027,-3.6136,-3.6936,-3.7276,-3.6143,-3.6393,-3.6447,-3.572,-3.5743,-3.5699,-3.5331,-3.5621,-3.5247,-3.3605,-3.3155,-3.2334,-3.0856,-3.0506,-2.9774,-2.8461,-2.8329,-2.7998,-2.7334,-2.6646,-2.6311,-2.6311,-2.5172,-2.458,-2.458,-2.3835,-2.3479,-2.3479,-2.2533,-2.1987,-2.1726,-2.0869,-2.0064,-1.9208,-1.8286,-1.7681,-1.7309,-1.6615,-1.5502,-1.4163,-1.3379,-1.2587,-1.1804,-1.1851,-1.1658,-1.1336,-1.1535,-1.1517,-1.1453,-1.1581,-1.1581,-1.1644,-1.19,-1.2067,-1.2163,-1.2289,-1.2392,-1.2326,-1.2117,-1.1918,-1.1712,-1.1347,-1.1165,-1.0925,-1.041,-1.056,-1.0643,-1.0039,-1.0012,-0.9935,-0.9535,-0.9418,-0.9397,-0.9431,-0.9244,-0.9117,-0.9082,-0.8818,-0.8421,-0.7814,-0.6651,-0.5729,-0.5253,-0.4332,-0.3735,-0.3577,-0.3182,-0.2897,-0.2773,-0.2921,-0.3103,-0.3334,-0.4094,-0.4758,-0.539,-0.689,-0.8482,-2.926,-2.981,-3.0448,-3.0417,-3.1323,-3.2227,0.0,-3.2957,-3.349,-3.4649,-3.5201,-3.5625,-3.6268,-3.6689,-3.6835,-3.6183,-3.6218,-3.619,-3.5656,-3.6006,-3.5956,-3.4871,-3.5031,-3.4919,-3.4073,-3.3378,-3.232,-3.1001,-3.0602,-2.9922,-2.8807,-2.8477,-2.813,-2.765,-2.7016,-2.6613,-2.6613,-2.5277,-2.4621,-2.4621,-2.3628,-2.3168,-2.3106,-2.2452,-2.2062,-2.1971,-2.0486,-1.9561,-1.9125,-1.8438,-1.7936,-1.7571,-1.694,-1.6191,-1.5505,-1.4543,-1.3654,-1.2897,-1.2939,-1.2613,-1.2227,-1.2505,-1.225,-1.1856,-1.2447,-1.2644,-1.2644,-1.271,-1.3051,-1.3247,-1.2733,-1.2664,-1.2666,-1.2343,-1.2012,-1.1823,-1.1888,-1.1339,-1.0868,-1.0878,-1.0494,-1.0066,-0.9871,-0.9699,-0.9625,-0.9833,-0.9535,-0.9259,-0.9165,-0.8968,-0.8722,-0.8377,-0.8016,-0.7486,-0.6669,-0.6056,-0.5535,-0.5049,-0.4253,-0.3677,-0.3435,-0.305,-0.2789,-0.2723,-0.2906,-0.3049,-0.3136,-0.3924,-0.4478,-0.4831,-0.5949,-0.7355,-2.8085,-2.8762,-2.9379,-2.9123,-3.0068,-3.1148,-3.1316,-3.2106,-3.3026,-3.3535,-3.4383,-3.516,-3.541,-3.615,-3.6561,-3.6275,-3.6334,-3.6354,-3.6127,-3.615,-3.5922,-3.5223,-3.5205,-3.4877,-3.3885,-3.3301,-3.26,-3.1631,-3.1019,-3.0171,-2.886,-2.8444,-2.7998,-2.7467,-2.6917,-2.6676,-2.6676,-2.5734,-2.5116,-2.4909,-2.4052,-2.3588,-2.3384,-2.2503,-2.1866,-2.1475,-2.0409,-1.9865,-1.9676,-1.8788,-1.8204,-1.7821,-1.7374,-1.6743,-1.6063,-1.5169,-1.448,-1.3988,-1.3846,-1.3552,-1.3227,-1.3424,-1.3227,-1.3095,-1.3358,-1.3424,-1.3424,-1.3424,-1.3439,-1.3444,-1.3118,-1.293,-1.2709,-1.2547,-1.2203,-1.1869,-1.172,-1.1295,-1.086,-1.0547,-1.031,-1.0095,-0.9756,-0.957,-0.9518,-0.9489,-0.9206,-0.8968,-0.8838,-0.8583,-0.8244,-0.7897,-0.7546,-0.7165,-0.6729,-0.6161,-0.5666,-0.5246,-0.4653,-0.4158,-0.3776,-0.3482,-0.3285,-0.3161,-0.3125,-0.3276,-0.3563,-0.3991,-0.4393,-0.4838,-0.5576,-0.6395,-2.7198,-2.7903,-2.8403,-2.8262,-2.9177,-3.0287,-3.033,-3.1422,-3.2419,-3.2632,-3.383,-3.4815,-3.4948,-3.5802,-3.6487,-3.6334,-3.6423,-3.6428,-3.6276,-3.6079,-3.5831,-3.5471,-3.5432,-3.496,-3.3916,-3.3452,-3.2922,-3.2052,-3.1359,-3.0415,-2.9144,-2.866,-2.813,-2.7533,-2.7144,-2.7016,-2.7016,-2.6131,-2.5525,-2.5123,-2.4363,-2.3773,-2.3457,-2.2531,-2.1803,-2.1172,-2.0425,-2.0106,-2.0043,-1.9084,-1.8542,-1.8277,-1.8018,-1.7543,-1.6923,-1.6104,-1.5445,-1.4852,-1.4614,-1.4379,-1.4095,-1.4095,-1.4095,-1.4029,-1.4218,-1.4182,-1.4006,-1.4006,-1.3949,-1.3761,-1.3498,-1.3235,-1.3062,-1.2735,-1.2378,-1.1968,-1.1673,-1.126,-1.0776,-1.0325,-1.0162,-0.999,-0.9638,-0.9475,-0.9356,-0.9266,-0.8989,-0.87,-0.8447,-0.8193,-0.79,-0.7613,-0.7353,-0.7171,-0.6995,-0.6544,-0.6091,-0.5736,-0.5326,-0.4887,-0.4368,-0.4139,-0.3924,-0.3742,-0.3641,-0.3742,-0.4082,-0.4198,-0.4476,-0.4873,-0.5312,-0.5722,-2.6457,-2.7192,-2.778,-2.8018,-2.894,-2.9927,-3.0203,-3.0949,-3.1776,-3.2492,-3.3566,-3.4611,-3.5355,-3.6047,-3.6553,-3.6403,-3.6423,-3.638,-3.5984,-3.5945,-3.5879,-3.5538,-3.5538,-3.5177,-3.4471,-3.3943,-3.3254,-3.2204,-3.1425,-3.0663,-2.9931,-2.9191,-2.8609,-2.8263,-2.7899,-2.7684,-2.7684,-2.6371,-2.5525,-2.5187,-2.4137,-2.3432,-2.3058,-2.2432,-2.1929,-2.1551,-2.0552,-2.0106,-2.0043,-1.9392,-1.9035,-1.8947,-1.8947,-1.8691,-1.8228,-1.7825,-1.6803,-1.5434,-1.4996,-1.48,-1.4709,-1.4709,-1.4441,-1.4299,-1.4957,-1.4818,-1.4399,-1.4399,-1.4604,-1.4604,-1.363,-1.3621,-1.3678,-1.2955,-1.2561,-1.225,-1.2006,-1.1389,-1.0728,-1.0502,-1.0044,-0.9598,-0.9598,-0.9398,-0.9258,-0.9396,-0.9008,-0.8533,-0.8092,-0.7827,-0.7667,-0.7517,-0.7555,-0.7469,-0.7227,-0.7165,-0.6976,-0.6502,-0.6268,-0.5859,-0.5173,-0.4971,-0.4726,-0.4377,-0.4507,-0.4527,-0.4492,-0.463,-0.4681,-0.4735,-0.5124,-0.5443,-2.5324,-2.5985,-2.6597,-2.6962,-2.7858,-2.8722,-2.9155,-3.0008,-3.0908,-3.1719,-3.2411,-3.3196,-3.421,-3.4603,-3.4966,-3.5704,-3.585,-3.5889,-3.5955,-3.5802,-3.5578,-3.5442,-3.5452,-3.5122,-3.401,-3.4064,-3.3824,-3.2932,-3.198,-3.1067,-3.0325,-2.9326,-2.8675,-2.8329,-2.7915,-2.77,-2.77,-2.6789,-2.6046,-2.5459,-2.4421,-2.3647,-2.3047,-2.2666,-2.2124,-2.1551,-2.0552,-2.0106,-2.0055,-1.933,-1.9007,-1.897,-1.8881,-1.8797,-1.8597,-1.853,-1.8161,-1.7541,-1.6486,-1.6067,-1.6058,-1.6058,-1.5924,-1.5924,-1.6126,-1.5865,-1.551,-1.5376,-1.5073,-1.4647,-1.4182,-1.3818,-1.3498,-1.3235,-1.2774,-1.2258,-1.2087,-1.1486,-1.0856,-1.06,-1.0134,-0.978,-0.9923,-0.9792,-0.9617,-0.9418,-0.9169,-0.8786,-0.8314,-0.8304,-0.8269,-0.8107,-0.8197,-0.8174,-0.7873,-0.7934,-0.7747,-0.7179,-0.7103,-0.6693,-0.5816,-0.561,-0.5284,-0.4792,-0.4697,-0.4706,-0.4833,-0.4881,-0.5018,-0.5246,-0.5448,-0.5648,-2.4567,-2.5399,-2.6042,-2.6503,-2.7232,-2.8044,-2.8879,-2.9598,-3.0362,-3.1309,-3.1929,-3.2567,-3.3287,-3.378,-3.426,-3.5028,-3.5196,-3.5333,-3.5606,-3.5401,-3.5237,-3.524,-3.5248,-3.4918,-3.4029,-3.4053,-3.3845,-3.3139,-3.2366,-3.1552,-3.0528,-2.9778,-2.9074,-2.8329,-2.8048,-2.7849,-2.77,-2.692,-2.6163,-2.5405,-2.465,-2.4034,-2.3636,-2.3185,-2.2636,-2.2057,-2.1173,-2.0722,-2.0541,-1.9805,-1.9543,-1.9639,-1.9417,-1.9331,-1.9277,-1.9277,-1.9073,-1.8698,-1.7516,-1.7167,-1.7161,-1.6899,-1.6831,-1.6821,-1.6967,-1.6566,-1.6127,-1.6268,-1.5692,-1.4992,-1.4854,-1.4294,-1.3744,-1.3543,-1.3062,-1.2484,-1.2245,-1.1762,-1.1335,-1.1002,-1.0605,-1.0304,-1.0446,-1.0369,-1.0207,-0.9887,-0.9821,-0.9481,-0.8686,-0.8763,-0.8867,-0.881,-0.8955,-0.8902,-0.8657,-0.8731,-0.8539,-0.791,-0.7739,-0.7301,-0.6506,-0.624,-0.5893,-0.5457,-0.5266,-0.5179,-0.5263,-0.5146,-0.5198,-0.5378,-0.5586,-0.5724,-2.416,-2.5194,-2.6012,-2.6686,-2.7155,-2.7851,-2.9291,-2.9743,-3.0143,-3.1211,-3.21,-3.2625,-3.2624,-3.3553,-3.4275,-3.4306,-3.4665,-3.4872,-3.4853,-3.4853,-3.4853,-3.4921,-3.4853,-3.4715,-3.4421,-3.4006,-3.3468,-3.2661,-3.2634,-3.2051,-3.0551,-3.0415,-2.9776,-2.8345,-2.8329,-2.813,-2.77,-2.6696,-2.5881,-2.5123,-2.4808,-2.462,-2.4635,-2.397,-2.3434,-2.2962,-2.2306,-2.1793,-2.1463,-2.0759,-2.0575,-2.0811,-2.0496,-2.0311,-2.0179,-2.0179,-1.9692,-1.8997,-1.8189,-1.7974,-1.802,-1.733,-1.7054,-1.7123,-1.7468,-1.6902,-1.6322,-1.7,-1.6458,-1.5642,-1.5632,-1.5078,-1.4343,-1.3881,-1.3436,-1.2976,-1.241,-1.218,-1.1991,-1.1725,-1.1396,-1.1178,-1.1178,-1.1095,-1.0932,-1.0688,-1.087,-1.0524,-0.9149,-0.9308,-0.956,-0.956,-0.9739,-0.9737,-0.9409,-0.9509,-0.9286,-0.8649,-0.8204,-0.7708,-0.7123,-0.6894,-0.6572,-0.621,-0.6093,-0.5919,-0.5728,-0.5416,-0.5259,-0.5231,-0.5501,-0.566,-2.2593,-2.3964,-2.5144,-2.5884,-2.6834,-2.7792,-2.8714,-2.9328,-2.999,-3.0905,-3.1072,-3.1158,-3.1782,-3.234,-3.2789,-3.3087,-3.3915,-3.4496,-3.4546,-3.4508,-3.4646,-3.4853,-3.4715,-3.4396,-3.396,-3.4134,-3.3674,-3.2258,-3.2227,-3.1972,-3.1357,-3.0705,-2.9843,-2.8675,-2.8395,-2.813,-2.77,-2.669,-2.6096,-2.5807,-2.5524,-2.5242,-2.4979,-2.4518,-2.4043,-2.3355,-2.2438,-2.1925,-2.1806,-2.1363,-2.1154,-2.1243,-2.1376,-2.1227,-2.0943,-2.0943,-2.0665,-2.0156,-1.9681,-1.8988,-1.8267,-1.8127,-1.8057,-1.8057,-1.8127,-1.7806,-1.7374,-1.7141,-1.6609,-1.6098,-1.567,-1.5078,-1.4411,-1.415,-1.357,-1.3043,-1.274,-1.2471,-1.2269,-1.233,-1.2187,-1.1972,-1.1972,-1.1851,-1.1667,-1.1531,-1.1626,-1.1331,-1.0254,-1.0162,-1.0192,-1.0192,-1.0331,-1.0235,-0.96,-1.0001,-0.9783,-0.8756,-0.8885,-0.8551,-0.7426,-0.7534,-0.7211,-0.6353,-0.6303,-0.6213,-0.5987,-0.5928,-0.5863,-0.586,-0.6058,-0.6144,-2.2166,-2.368,-2.4834,-2.5519,-2.6581,-2.7674,-2.8501,-2.8974,-2.9477,-3.0313,-3.0349,-3.0379,-3.0954,-3.1528,-3.2012,-3.2351,-3.3142,-3.3723,-3.3923,-3.3886,-3.4024,-3.437,-3.4232,-3.407,-3.3848,-3.3895,-3.3564,-3.2629,-3.2585,-3.2271,-3.1381,-3.0915,-3.015,-2.9126,-2.8544,-2.7982,-2.7292,-2.6849,-2.6556,-2.6333,-2.616,-2.5922,-2.5523,-2.5189,-2.4686,-2.398,-2.3367,-2.29,-2.2579,-2.2214,-2.1939,-2.1829,-2.1905,-2.1742,-2.1406,-2.1517,-2.1142,-2.0566,-2.0356,-1.9574,-1.8643,-1.8643,-1.8643,-1.8665,-1.8552,-1.8227,-1.7861,-1.783,-1.7187,-1.6529,-1.6342,-1.5552,-1.4735,-1.4686,-1.4087,-1.3551,-1.357,-1.3403,-1.3253,-1.3183,-1.2981,-1.2855,-1.2855,-1.2704,-1.2482,-1.225,-1.2327,-1.2167,-1.1346,-1.1061,-1.0863,-1.068,-1.0786,-1.0646,-0.9998,-1.0146,-0.986,-0.8996,-0.887,-0.8528,-0.7717,-0.7755,-0.7489,-0.6919,-0.6693,-0.6592,-0.6566,-0.6247,-0.6212,-0.6356,-0.6333,-0.6372,-2.2222,-2.3676,-2.4762,-2.5241,-2.628,-2.7393,-2.8293,-2.8489,-2.8785,-2.9461,-2.9721,-2.9855,-3.0228,-3.0902,-3.154,-3.1912,-3.2386,-3.2843,-3.3139,-3.326,-3.3469,-3.3678,-3.3747,-3.3817,-3.3817,-3.3539,-3.3348,-3.3209,-3.3209,-3.2608,-3.1197,-3.1059,-3.058,-2.9429,-2.866,-2.7851,-2.6805,-2.7108,-2.7108,-2.6756,-2.6792,-2.6532,-2.6145,-2.5794,-2.5322,-2.4645,-2.4563,-2.4088,-2.3475,-2.3133,-2.2749,-2.2471,-2.237,-2.2134,-2.1845,-2.2153,-2.1591,-2.0686,-2.0686,-2.0109,-1.9293,-1.9119,-1.9038,-1.8942,-1.8899,-1.8446,-1.8096,-1.8581,-1.7826,-1.6946,-1.7168,-1.6178,-1.5212,-1.5296,-1.4754,-1.4345,-1.4499,-1.4591,-1.4562,-1.428,-1.4083,-1.3902,-1.3875,-1.3633,-1.3365,-1.3024,-1.303,-1.2891,-1.2414,-1.2014,-1.161,-1.1167,-1.1129,-1.0929,-1.0485,-1.0204,-0.9782,-0.9264,-0.8723,-0.827,-0.7942,-0.7793,-0.7685,-0.7597,-0.7193,-0.7064,-0.7219,-0.6578,-0.6412,-0.6732,-0.6487,-0.6489,-2.1288,-2.2782,-2.4009,-2.4262,-2.5147,-2.6324,-2.7144,-2.7522,0.0,-2.8712,-2.8882,-2.9066,-2.9441,-3.0098,-3.0716,-3.1115,-3.2047,-3.2719,-3.2825,-3.333,-3.3608,-3.34,-3.3608,-3.3817,-3.3817,-3.3747,-3.3469,-3.2841,-3.2771,-3.2437,-3.1564,-3.146,-3.0874,-2.9429,-2.866,-2.8031,-2.7553,-2.7618,-2.7419,-2.7105,-2.7102,-2.6934,-2.6599,-2.6197,-2.5794,-2.539,-2.4766,-2.4292,-2.3898,-2.3475,-2.3213,-2.3107,-2.309,-2.3051,-2.2905,-2.2957,-2.2502,-2.1808,-2.1808,-2.1509,-2.0864,-1.9656,-1.908,-1.8838,-1.9015,-1.8846,-1.8592,-1.8349,-1.7978,-1.758,-1.6946,-1.6391,-1.5849,-1.5435,-1.4963,-1.4631,-1.4499,-1.501,-1.5468,-1.5721,-1.575,-1.5596,-1.5092,-1.4632,-1.4179,-1.3897,-1.3626,-1.3382,-1.3285,-1.2508,-1.1913,-1.182,-1.1517,-1.1176,-1.0664,-1.0729,-1.0318,-0.9361,-0.9368,-0.9013,-0.8019,-0.8399,-0.8277,-0.7604,-0.7815,-0.7696,-0.7217,-0.7184,-0.7049,-0.6761,-0.6527,-0.6542,-2.184,-2.3086,-2.4061,-2.4855,-2.5568,-2.6217,-2.7085,0.0,0.0,-2.8563,-2.8567,-2.8585,-2.917,-2.9438,-2.9846,-3.0637,-3.1211,-3.1754,-3.2333,-3.2684,-3.3033,-3.3278,-3.3469,-3.3608,-3.3817,-3.3817,-3.3608,-3.3051,-3.2841,-3.2421,-3.1652,-3.1392,-3.0754,-2.9716,-2.9328,-2.8876,-2.8276,-2.8126,-2.7844,-2.7451,-2.7267,-2.7,-2.6666,-2.6448,-2.6095,-2.5607,-2.5159,-2.4721,-2.4238,-2.3983,-2.3804,-2.362,-2.3732,-2.366,-2.3432,-2.3575,-2.3173,-2.2538,-2.2393,-2.1945,-2.139,-2.0619,-2.0021,-1.9593,-1.9617,-1.9213,-1.881,-1.8723,-1.8286,-1.7791,-1.7439,-1.6875,-1.6433,-1.6336,-1.6238,-1.6069,-1.5965,-1.6136,-1.6402,-1.6598,-1.6508,-1.6408,-1.6096,-1.57,-1.5223,-1.4688,-1.4461,-1.4126,-1.3542,-1.3098,-1.2611,-1.2056,-1.1695,-1.1306,-1.0914,-1.0672,-1.0331,-0.9724,-0.9422,-0.9042,-0.848,-0.8575,-0.8454,-0.8065,-0.8133,-0.7998,-0.7603,-0.7479,-0.7351,-0.7208,-0.6996,-0.6951,-2.2419,-2.3587,-2.444,-2.5504,-2.5917,-2.6326,-2.7115,-2.7332,0.0,-2.8239,-2.8181,-2.8263,-2.8818,-2.8788,-2.9053,-3.004,-3.0369,-3.0852,-3.1702,-3.2035,-3.2474,-3.3139,-3.3278,-3.34,-3.3747,-3.3747,-3.3608,-3.3348,-3.2841,-3.2281,-3.163,-3.1217,-3.0736,-3.0172,-3.0088,-2.9664,-2.8959,-2.8672,-2.8274,-2.77,-2.7451,-2.7134,-2.68,-2.667,-2.6345,-2.5779,-2.5555,-2.5226,-2.4724,-2.4551,-2.4428,-2.4245,-2.4296,-2.4163,-2.3951,-2.4101,-2.3754,-2.3194,-2.2901,-2.2397,-2.1801,-2.1664,-2.1032,-2.0347,-2.024,-1.9639,-1.9105,-1.9112,-1.8617,-1.8065,-1.7942,-1.7439,-1.7017,-1.7238,-1.7308,-1.7308,-1.7379,-1.7307,-1.7243,-1.7313,-1.7179,-1.7046,-1.6926,-1.6705,-1.6312,-1.5497,-1.5235,-1.4881,-1.4054,-1.3695,-1.3197,-1.2303,-1.1904,-1.1562,-1.1216,-1.0859,-1.0469,-1.0163,-0.9654,-0.9244,-0.9154,-0.8948,-0.8774,-0.8687,-0.8508,-0.8308,-0.8147,-0.7798,-0.7642,-0.7691,-0.7448,-0.7426,-2.2316,-2.369,-2.4713,-2.5099,-2.5479,-2.5894,-2.6398,0.0,-2.6678,-2.7161,-2.7428,-2.7676,-2.7803,-2.8057,-2.8483,-2.9271,-3.0037,-3.0643,-3.1014,-3.1999,-3.2631,-3.2789,-3.3069,-3.34,-3.3747,-3.3539,-3.3348,-3.3278,-3.2614,-3.1965,-3.163,-3.1217,-3.0994,-3.0891,-3.0549,-3.0055,-2.9345,-2.9278,-2.8743,-2.77,-2.765,-2.7451,-2.715,-2.6738,-2.6603,-2.6504,-2.5781,-2.5473,-2.534,-2.5082,-2.5101,-2.5268,-2.4891,-2.4866,-2.5051,-2.4697,-2.4253,-2.3931,-2.3857,-2.3387,-2.2781,-2.2744,-2.1807,-2.0609,-2.0486,-2.0225,-1.9834,-1.9281,-1.8889,-1.856,-1.8054,-1.7861,-1.7721,-1.7379,-1.7308,-1.7379,-1.7791,-1.7851,-1.79,-1.8191,-1.8239,-1.8095,-1.7606,-1.7485,-1.7254,-1.6621,-1.5952,-1.5404,-1.5355,-1.4379,-1.3572,-1.2987,-1.2594,-1.2257,-1.193,-1.1686,-1.1339,-1.075,-1.0677,-1.0429,-0.9988,-0.9939,-0.9705,-0.934,-0.9419,-0.9209,-0.8646,-0.8437,-0.8165,-0.7945,-0.7671,-0.7566,-2.2487,-2.3629,-2.4556,-2.5651,-2.5799,-2.5874,-2.6566,0.0,-2.6445,-2.6702,-2.7049,-2.7299,-2.7376,-2.7484,-2.7924,-2.8862,0.0,0.0,-3.0822,-3.123,-3.1599,-3.2228,-3.2474,-3.2754,-3.3121,-3.2981,-3.2841,-3.2614,-3.2474,-3.2193,-3.163,-3.1422,-3.1337,-3.1337,-3.12,-3.0754,-3.0021,-2.9597,-2.8975,-2.8048,-2.7584,-2.7334,-2.7216,-2.7227,-2.7161,-2.6923,-2.6628,-2.6343,-2.6158,-2.5724,-2.5613,-2.5654,-2.5475,-2.5469,-2.5506,-2.5079,-2.4857,-2.4636,-2.4193,-2.3674,-2.3154,-2.3005,-2.2484,-2.1891,-2.1101,-2.0504,-1.9996,-1.9454,-1.9079,-1.886,-1.8914,-1.8888,-1.8676,-1.8114,-1.7942,-1.8012,-1.8153,-1.8223,-1.8223,-1.8363,-1.8433,-1.8331,-1.8106,-1.7978,-1.7781,-1.7344,-1.6638,-1.6002,-1.5538,-1.4909,-1.4298,-1.3849,-1.3075,-1.2397,-1.2048,-1.1728,-1.1562,-1.1503,-1.116,-1.0934,-1.0848,-1.062,-1.0355,-0.9996,-1.006,-0.9735,-0.9143,-0.9106,-0.8994,-0.863,-0.8407,-0.8441,-2.2556,-2.3714,-2.4617,-2.5865,-2.5976,-2.5998,0.0,0.0,-2.6445,-2.6502,-2.6732,-2.6961,-2.7037,-2.7035,-2.7324,0.0,0.0,-2.8881,-3.041,-3.0537,-3.0888,-3.1844,-3.2036,-3.2211,-3.2472,-3.263,-3.2491,-3.1965,-3.2333,-3.2281,-3.163,-3.163,-3.163,-3.163,-3.163,-3.1251,-3.06,-3.012,-2.9476,-2.8793,-2.801,-2.7627,-2.7509,-2.7636,-2.757,-2.7367,-2.717,-2.7053,-2.6863,-2.6284,-2.6114,-2.6229,-2.6008,-2.5946,-2.5946,-2.552,-2.5299,-2.5092,-2.4562,-2.4044,-2.3525,-2.3302,-2.3154,-2.2856,-2.1735,-2.1009,-2.0403,-1.9669,-1.9208,-1.9,-1.9536,-1.952,-1.92,-1.8894,-1.8655,-1.8541,-1.8541,-1.8487,-1.8433,-1.8433,-1.8433,-1.8433,-1.8433,-1.8304,-1.8127,-1.7839,-1.7227,-1.6553,-1.6032,-1.5356,-1.4819,-1.4407,-1.3492,-1.2749,-1.2423,-1.2157,-1.2037,-1.2097,-1.1796,-1.1611,-1.1608,-1.131,-1.1064,-1.0819,-1.0696,-1.0389,-0.9834,-0.9817,-0.9613,-0.9293,-0.9139,-0.9206,-2.2563,-2.3952,-2.5148,-2.5434,-2.5824,-2.6116,0.0,-2.6399,-2.6445,-2.6502,-2.6535,-2.6628,-2.6611,-2.6682,-2.691,-2.7609,0.0,0.0,-2.9798,-3.0246,-3.0803,-3.1496,-3.1896,-3.2106,-3.2134,-3.2471,-3.2421,-3.163,-3.1912,-3.1982,-3.163,-3.163,-3.163,-3.163,-3.163,-3.1388,-3.1011,-3.1011,-3.0616,-2.9883,-2.9124,-2.8605,-2.8267,-2.7884,-2.7694,-2.764,-2.7261,-2.7308,-2.752,-2.6776,-2.6691,-2.6983,-2.6546,-2.6385,-2.6326,-2.5946,-2.5506,-2.5226,-2.5152,-2.4636,-2.397,-2.397,-2.3735,-2.3215,-2.2396,-2.1873,-2.1302,-1.9861,-1.9327,-1.9217,-1.958,-1.9435,-1.9217,-1.9569,-1.9238,-1.8778,-1.8778,-1.8595,-1.8433,-1.8433,-1.8433,-1.8433,-1.8433,-1.8433,-1.8433,-1.8363,-1.7593,-1.6955,-1.7024,-1.5963,-1.5016,-1.4557,-1.3967,-1.3515,-1.3304,-1.3286,-1.2981,-1.2359,-1.2603,-1.2603,-1.2304,-1.1988,-1.1791,-1.1799,-1.1482,-1.1102,-1.0785,-1.0453,-1.0136,-0.9818,-0.9818,-0.964,-2.3104,-2.3925,-2.4649,-2.5328,-2.5675,-2.5848,-2.594,-2.6175,-2.6169,-2.5484,-2.602,-2.6484,-2.5982,-2.6326,-2.6921,-2.7583,-2.7815,0.0,-2.9987,-3.0116,-3.0469,-3.1494,-3.1702,-3.1789,-3.1739,-3.2053,-3.2123,-3.163,-3.1894,-3.1965,-3.163,-3.163,-3.163,-3.163,-3.163,-3.1388,-3.1028,-3.0803,-3.0409,-2.99,-2.9442,-2.9034,-2.864,-2.8734,-2.8685,-2.842,-2.7967,-2.7822,-2.7913,-2.7156,-2.7027,-2.732,-2.7172,-2.7229,-2.7314,-2.6489,-2.6047,-2.5871,-2.5073,-2.4414,-2.4071,-2.4266,-2.4031,-2.353,-2.2958,-2.2234,-2.1302,-1.9936,-1.9787,-1.9925,-1.9449,-1.9555,-1.9716,-1.9406,-1.9163,-1.9036,-1.9036,-1.8899,-1.8856,-1.8856,-1.8789,-1.867,-1.867,-1.8541,-1.8433,-1.8433,-1.7949,-1.7485,-1.7054,-1.6432,-1.5788,-1.5317,-1.4629,-1.3998,-1.3541,-1.294,-1.2728,-1.2978,-1.2805,-1.266,-1.2661,-1.254,-1.2409,-1.2149,-1.2019,-1.1823,-1.1497,-1.1359,-1.1033,-1.0444,-1.0444,-1.0062,0.0,-2.4189,-2.4789,-2.499,-2.5286,0.0,0.0,-2.5866,-2.6024,-2.537,-2.5809,-2.629,-2.5891,-2.6154,-2.6672,-2.7243,-2.7516,-2.8216,-2.9563,-2.9736,-3.0099,-3.1243,-3.1369,-3.1405,-3.163,-3.1771,-3.1841,-3.163,-3.1771,-3.1841,-3.163,-3.163,-3.163,-3.163,-3.163,-3.1456,-3.1234,-3.1007,-3.0679,-3.0321,-2.9962,-2.9619,-2.922,-2.9239,-2.9196,-2.893,-2.8495,-2.8202,0.0,-2.7554,-2.7438,-2.7495,-2.7613,-2.7773,-2.7769,-2.6965,-2.658,-2.6327,-2.5473,-2.4895,-2.4622,-2.4806,-2.4479,-2.3896,-2.3458,-2.2512,-2.1378,-2.0377,-2.0336,-2.038,-1.9933,-1.9966,-1.9958,-1.9667,-1.9422,-1.9284,-1.9284,-1.9135,-1.9082,-1.9082,-1.895,-1.881,-1.8907,-1.8649,-1.8466,-1.8552,-1.8065,-1.7529,-1.7186,-1.6609,-1.6086,-1.5756,-1.5124,-1.4476,-1.4059,-1.3333,-1.307,-1.3495,-1.3394,-1.3311,-1.3236,-1.3369,-1.3236,-1.27,-1.2834,-1.2633,-1.2164,-1.1896,-1.1627,-1.1291,-1.1022,-1.0596,0.0,-2.4707,-2.5384,-2.4652,-2.4812,-2.512,-2.5119,-2.5419,0.0,-2.5783,-2.5854,-2.5985,-2.6022,-2.6035,-2.6213,-2.6662,-2.7264,-2.7988,-2.8684,-2.9109,-2.9748,-3.0818,-3.0988,-3.1183,-3.1525,-3.1559,-3.163,-3.163,-3.163,-3.163,-3.163,-3.163,-3.163,-3.163,-3.163,-3.163,-3.163,-3.1559,-3.1347,-3.1064,-3.0727,-3.0349,-2.993,-2.9509,-2.9385,-2.926,-2.8853,-2.8491,-2.8088,-2.8056,-2.7837,-2.7539,-2.7861,-2.7917,-2.7932,-2.7449,-2.7055,-2.6676,-2.6205,-2.5824,-2.5518,-2.5455,-2.5021,-2.4329,-2.393,-2.2733,-2.149,-2.1261,-2.088,-2.0642,-2.1019,-2.0556,-2.0092,-2.0447,-2.0056,-1.9595,-1.9595,-1.9422,-1.9198,-1.9198,-1.9004,-1.8907,-1.906,-1.8717,-1.8562,-1.8778,-1.7988,-1.7359,-1.7359,-1.6527,-1.5974,-1.5974,-1.5371,-1.4982,-1.4754,-1.4242,-1.3925,-1.3873,-1.4259,-1.4318,-1.3848,-1.4259,-1.4113,-1.3437,-1.3719,-1.3505,-1.2819,-1.2131,-1.1917,-1.2268,-1.1517,-1.1185,-2.6031,0.0,-2.5626,-2.5127,-2.5113,-2.5046,0.0,0.0,0.0,0.0,-2.4975,-2.5495,-2.5317,-2.5748,-2.6298,-2.6939,-2.7426,-2.7988,-2.8684,-2.9596,-3.031,-3.0534,-3.1067,-3.1403,-3.1135,-3.1418,-3.163,-3.163,-3.163,-3.163,-3.163,-3.163,-3.163,-3.163,-3.163,-3.163,-3.163,-3.1277,-3.1223,-3.1418,-3.1051,-3.0664,-3.031,-3.0168,-2.9812,-2.9242,-2.8891,-2.8491,-2.8088,-2.8056,-2.7896,-2.7876,-2.8198,-2.8461,-2.856,-2.7543,-2.715,-2.6955,-2.5968,-2.5594,-2.5468,-2.5385,-2.5374,-2.5348,-2.4659,-2.3385,-2.2086,-2.172,-2.1554,-2.1497,-2.1402,-2.1269,-2.1072,-2.0955,-2.0864,-2.0755,-2.0755,-2.04,-2.0206,-2.0206,-1.9711,-1.9348,-1.9402,-1.9176,-1.8932,-1.8985,-1.858,-1.8104,-1.7897,-1.7263,-1.6696,-1.6411,-1.5797,-1.5414,-1.5388,-1.4795,-1.4182,-1.371,-1.4199,-1.4182,-1.3505,-1.3848,-1.3848,-1.3437,-1.3505,-1.3437,-1.3231,-1.2544,-1.22,-1.2268,-1.1629,-1.1261,-2.6386,-2.6025,-2.5726,-2.5299,-2.5079,-2.4817,-2.4436,0.0,0.0,0.0,-2.4512,-2.4959,-2.5011,-2.5457,-2.6117,-2.6961,-2.7469,-2.7952,-2.8718,-2.9625,-3.024,-3.0179,-3.0852,-3.1152,-3.0797,-3.1081,-3.1347,-3.1347,-3.1489,-3.163,-3.163,-3.163,-3.163,-3.163,-3.163,-3.163,-3.163,-3.1347,-3.1277,-3.1347,-3.1277,-3.101,-3.037,-3.037,-3.0085,-2.9585,-2.9138,-2.88,-2.8608,-2.8503,-2.8462,-2.8426,-2.8751,-2.8909,-2.8793,-2.823,-2.7707,-2.729,-2.6439,-2.6074,-2.5932,-2.5858,-2.578,-2.57,-2.5166,-2.4271,-2.3344,-2.2835,-2.2424,-2.2078,-2.2028,-2.1839,-2.1574,-2.1437,-2.1402,-2.1368,-2.1341,-2.1004,-2.0667,-2.0544,-1.996,-1.9531,-1.9639,-1.9381,-1.9114,-1.9001,-1.856,-1.8122,-1.7756,-1.7292,-1.685,-1.6632,-1.6383,-1.6102,-1.5876,-1.5685,-1.5177,-1.4331,-1.4579,-1.4449,-1.3899,-1.4248,-1.4248,-1.3899,-1.3751,-1.3612,-1.3612,-1.313,-1.2887,-1.2894,-1.2273,-1.1887,-2.6232,-2.597,-2.5768,-2.5405,-2.5011,-2.4703,-2.4663,0.0,0.0,0.0,-2.426,-2.4484,-2.4915,-2.5331,-2.5918,-2.6943,-2.7447,-2.7958,-2.8585,-2.9336,-2.9818,-2.9822,-3.0425,-3.0726,-3.037,-3.0726,-3.101,-3.101,-3.1347,-3.163,-3.163,-3.163,-3.163,-3.163,-3.163,-3.163,-3.163,-3.1559,-3.1364,-3.1064,-3.1347,-3.1135,-3.0513,-3.0513,-3.0299,-2.9855,-2.9513,-2.9344,-2.9179,-2.9148,-2.92,-2.9136,-2.9466,-2.9368,-2.8964,-2.8886,-2.8339,-2.7555,-2.7097,-2.6702,-2.6465,-2.6386,-2.6149,-2.5859,-2.5531,-2.5231,-2.471,-2.408,-2.3373,-2.2716,-2.2638,-2.2327,-2.2004,-2.2047,-2.2035,-2.19,-2.1693,-2.1318,-2.0998,-2.0698,-2.0078,-1.9692,-1.9962,-1.9595,-1.918,-1.9085,-1.8579,-1.8003,-1.7625,-1.7237,-1.6923,-1.6849,-1.6821,-1.6655,-1.6352,-1.6582,-1.6359,-1.5229,-1.5176,-1.5007,-1.4625,-1.4839,-1.4768,-1.4403,-1.4047,-1.3912,-1.3945,-1.3737,-1.3605,-1.3563,-1.2992,-1.2692,-2.6626,-2.6226,-2.6052,-2.5838,-2.548,-2.5122,-2.4943,0.0,0.0,0.0,0.0,-2.4467,-2.4806,-2.5439,-2.6187,-2.6881,-2.7391,-2.7819,-2.8232,-2.8914,-2.9395,-2.9393,-3.0014,-3.037,-2.9997,-3.0567,-3.101,-3.101,-3.1347,-3.163,-3.163,-3.163,-3.163,-3.163,-3.163,-3.163,-3.163,-3.1277,-3.1206,-3.1489,-3.1223,-3.101,-3.0939,-3.0939,-3.0567,-2.9926,-2.9855,-2.9561,-2.9236,-2.952,-2.9561,-2.9595,-2.993,-2.9756,-2.9368,-2.9056,-2.8339,-2.7476,-2.6781,-2.6702,-2.6874,-2.6544,-2.6386,-2.6307,-2.6254,-2.5925,-2.5516,-2.5015,-2.4352,-2.3707,-2.3315,-2.3236,-2.3098,-2.2949,-2.2889,-2.2799,-2.2365,-2.2124,-2.1807,-2.138,-2.0785,-2.0327,-2.036,-2.0091,-1.9758,-1.9715,-1.9317,-1.8833,-1.8466,-1.7931,-1.744,-1.7057,-1.6906,-1.6802,-1.6729,-1.6729,-1.6554,-1.6049,-1.6176,-1.5857,-1.4981,-1.4697,-1.4403,-1.3975,-1.3904,-1.3977,-1.414,-1.38,-1.3448,-1.3297,-1.3003,-1.2705,-2.6195,-2.5683,-2.5508,-2.5584,-2.5536,-2.5465,-2.5377,0.0,0.0,0.0,0.0,-2.4164,-2.4743,-2.527,-2.604,-2.7113,-2.7731,-2.8107,-2.8475,-2.8985,-2.9325,-2.9322,-2.9799,-2.9997,-2.9585,-3.0069,-3.0496,-3.0655,-3.1081,-3.1347,-3.1559,-3.163,-3.163,-3.163,-3.163,-3.163,-3.163,-3.1418,-3.1418,-3.163,-3.1418,-3.1081,-3.0655,-3.0655,-3.0299,-2.9585,-2.9777,-2.9847,-2.9813,-2.995,-3.0066,-3.033,-3.0408,-3.0067,-2.9446,-2.8822,-2.8353,-2.7883,-2.724,-2.7018,-2.6953,-2.6781,-2.6544,-2.636,-2.6199,-2.6067,-2.5845,-2.5361,-2.4756,-2.4147,-2.3738,-2.3592,-2.3556,-2.3502,-2.3478,-2.3363,-2.3062,-2.2697,-2.2346,-2.204,-2.1528,-2.1108,-2.0745,-2.0582,-2.0223,-1.9638,-1.9315,-1.9012,-1.8329,-1.8023,-1.7728,-1.7275,-1.7199,-1.7142,-1.7142,-1.7142,-1.6889,-1.6223,-1.6113,-1.5876,-1.5432,-1.4997,-1.4706,-1.4561,-1.4334,-1.4229,-1.4318,-1.4268,-1.3984,-1.3687,-1.3474,-1.3139,-2.5914,-2.5345,-2.5102,-2.5243,-2.5277,-2.5322,0.0,0.0,0.0,0.0,0.0,-2.4201,-2.4696,-2.5224,-2.6013,-2.7376,-2.7906,-2.8333,-2.8743,-2.9097,-2.928,-2.9338,-2.9568,-2.964,-2.9441,-2.9712,-3.0069,-3.037,-3.0726,-3.1081,-3.1418,-3.1489,-3.1489,-3.163,-3.163,-3.163,-3.163,-3.163,-3.163,-3.163,-3.1489,-3.1135,-3.0513,-3.0513,-3.0157,-2.9457,-2.997,-3.0233,-3.0346,-3.0486,-3.0696,-3.0933,-3.0856,-3.0314,-2.9523,-2.8588,-2.8446,-2.851,-2.779,-2.7412,-2.7097,-2.7032,-2.6702,-2.6346,-2.6132,-2.6052,-2.5974,-2.557,-2.511,-2.4652,-2.4092,-2.392,-2.392,-2.384,-2.376,-2.3712,-2.3428,-2.3107,-2.2843,-2.2553,-2.2148,-2.1667,-2.1177,-2.0913,-2.0517,-1.9593,-1.9527,-1.9233,-1.8333,-1.8296,-1.8076,-1.7501,-1.7492,-1.7473,-1.7435,-1.735,-1.7057,-1.6517,-1.6231,-1.5954,-1.5836,-1.555,-1.5328,-1.5254,-1.4802,-1.4605,-1.4646,-1.4635,-1.4506,-1.4166,-1.3838,-1.3579,-2.6383,-2.5889,-2.5669,-2.5087,-2.4421,0.0,-2.5597,-2.462,0.0,-2.5144,0.0,-2.4795,-2.4889,-2.5513,-2.6315,-2.7403,-2.7882,-2.8243,-2.866,-2.9035,-2.9266,-2.9298,-2.9298,-2.9513,-2.9783,-2.9855,-3.0069,-3.037,-3.0442,-3.0655,-3.101,-3.1081,-3.1206,-3.1559,-3.163,-3.163,-3.163,-3.163,-3.163,-3.163,-3.1206,-3.0993,-3.0939,-3.0939,-3.0567,-2.9959,-3.0982,-3.1039,-3.0346,-3.1071,-3.1365,-3.1318,-3.0933,-3.0469,-2.9897,-2.8744,-2.8744,-2.9212,-2.8026,-2.7555,-2.7476,-2.7097,-2.6702,-2.6386,-2.636,-2.636,-2.6281,-2.5885,-2.574,-2.5514,-2.4652,-2.4412,-2.4332,-2.392,-2.376,-2.368,-2.3256,-2.3305,-2.3206,-2.2878,-2.2275,-2.1791,-2.1779,-2.1157,-2.0535,-2.0144,-2.0371,-2.0114,-1.8967,-1.904,-1.8778,-1.7806,-1.77,-1.7624,-1.7445,-1.7035,-1.695,-1.7303,-1.7114,-1.6768,-1.6213,-1.6131,-1.5983,-1.5688,-1.5254,-1.5117,-1.5202,-1.4851,-1.457,-1.4345,-1.3891,-1.3513,-2.6264,-2.5662,-2.5157,-2.4694,-2.3961,0.0,0.0,-2.487,-2.4429,-2.5177,-2.4829,0.0,-2.4506,-2.5511,-2.6402,-2.682,-2.7416,-2.7913,-2.8274,-2.8635,-2.8923,-2.8923,-2.9154,-2.9369,-2.9513,-2.9513,-2.964,-3.0085,-3.0069,-3.037,-3.101,-3.101,-3.1206,-3.1559,-3.163,-3.163,-3.163,-3.163,-3.163,-3.163,-3.1206,-3.101,-3.0993,-3.0726,-3.0629,-3.0644,-3.1241,-3.1367,-3.1055,-3.1561,-3.165,-3.1318,-3.0608,-3.0299,-2.9974,-2.9056,-2.9032,-2.935,-2.8877,-2.8531,-2.8221,-2.8061,-2.7362,-2.6653,-2.6653,-2.6533,-2.6386,-2.6228,-2.6149,-2.599,-2.513,-2.4652,-2.4492,-2.4252,-2.4012,-2.376,-2.36,-2.3608,-2.3616,-2.3456,-2.3055,-2.2542,-2.2132,-2.1559,-2.1009,-2.0546,-2.0511,-2.021,-1.9257,-1.924,-1.8946,-1.8015,-1.7804,-1.77,-1.7615,-1.7339,-1.7111,-1.7035,-1.7198,-1.7039,-1.6578,-1.6706,-1.6617,-1.6227,-1.5898,-1.5837,-1.5819,-1.5437,-1.5009,-1.4601,-1.42,-1.3864,-2.6009,-2.5286,-2.4701,-2.4316,0.0,0.0,-2.4751,-2.462,-2.4517,-2.5217,-2.4766,-2.4309,-2.4616,-2.521,-2.594,-2.656,-2.7039,-2.752,-2.792,-2.8336,-2.8504,-2.8395,-2.8846,-2.9194,-2.9282,-2.921,-2.9385,-2.9855,-2.9686,-2.9884,-3.0638,-3.0726,-3.0993,-3.1418,-3.1559,-3.163,-3.163,-3.163,-3.163,-3.163,-3.1206,-3.101,-3.0993,-3.0726,-3.0783,-3.1059,-3.1643,-3.1713,-3.1566,-3.1999,-3.1763,-3.1164,-3.0531,-3.036,-3.0375,-2.9516,-2.9567,-2.9928,-2.9689,-2.9194,-2.8815,-2.8815,-2.7958,-2.6988,-2.6988,-2.6707,-2.6386,-2.6386,-2.6386,-2.6228,-2.5686,-2.513,-2.4652,-2.4492,-2.4172,-2.376,-2.376,-2.376,-2.376,-2.376,-2.3359,-2.2831,-2.2407,-2.1895,-2.134,-2.0784,-2.0737,-2.0522,-1.9727,-1.97,-1.9323,-1.8392,-1.7877,-1.7667,-1.7745,-1.7468,-1.7161,-1.6998,-1.7075,-1.7125,-1.6907,-1.6879,-1.691,-1.6807,-1.6388,-1.614,-1.614,-1.5751,-1.5353,-1.5034,-1.4468,-1.4128,-2.5545,-2.4788,-2.4431,-2.3984,-2.3593,-2.3487,-2.4062,-2.3694,-2.3713,-2.5441,-2.5008,-2.4547,-2.5268,-2.48,-2.4858,-2.6721,-2.6983,-2.7156,-2.7616,-2.7996,-2.8084,-2.7741,-2.8341,-2.8914,-2.9266,-2.8985,-2.9129,-2.9822,-2.9248,-2.9129,-2.9822,-3.0211,-3.0567,-3.0993,-3.1418,-3.163,-3.163,-3.163,-3.163,-3.163,-3.1206,-3.101,-3.101,-3.101,-3.0998,-3.1075,-3.2227,-3.2231,-3.1566,-3.2304,-3.1916,-3.0794,-3.0794,-3.0981,-3.1198,-3.0333,-3.048,-3.1087,-3.0188,-2.9638,-2.9234,-2.9234,-2.8456,-2.7497,-2.7483,-2.6946,-2.6386,-2.6386,-2.6386,-2.6386,-2.6386,-2.5766,-2.497,-2.4572,-2.4172,-2.384,-2.376,-2.376,-2.376,-2.376,-2.313,-2.2567,-2.2567,-2.1842,-2.119,-2.0942,-2.1125,-2.1028,-2.0394,-2.0481,-2.022,-1.9113,-1.8013,-1.7566,-1.7971,-1.7259,-1.7021,-1.7408,-1.6933,-1.6853,-1.7048,-1.6727,-1.6816,-1.7408,-1.6537,-1.614,-1.6061,-1.568,-1.552,-1.5441,-1.4635,-1.4229,-2.4973,-2.4407,-2.3979,-2.3404,-2.3444,-2.3688,-2.3861,-2.3923,0.0,0.0,-2.4281,-2.4286,-2.3394,-2.4361,-2.5294,-2.5187,-2.577,-2.6315,-2.6491,-2.6854,-2.7034,-2.6928,-2.7764,-2.8405,-2.8546,-2.8687,-2.8876,-2.9129,-2.8653,-2.8702,-2.9441,-2.958,-3.006,-3.0956,-3.1113,-3.1442,-3.1965,-3.17,-3.17,-3.1965,-3.1559,-3.1418,-3.1435,-3.1422,-3.1743,-3.2244,-3.256,-3.2559,-3.2211,-3.1868,-3.1686,-3.1565,-3.095,-3.0713,-3.0742,-3.0111,-3.0247,-3.061,-3.0366,-3.0117,-2.9893,-2.9547,-2.8854,-2.8071,-2.7527,-2.7015,-2.6694,-2.6694,-2.6547,-2.644,-2.664,-2.6148,-2.5514,-2.505,-2.4572,-2.4172,-2.384,-2.376,-2.376,-2.376,-2.313,-2.2567,-2.2567,-2.1842,-2.1254,-2.1179,-2.1233,-2.1092,-2.0614,-2.0008,-1.9541,-1.9228,-1.8551,-1.8178,-1.8267,-1.7897,-1.7566,-1.7408,-1.725,-1.6986,-1.6459,-1.666,-1.6835,-1.6664,-1.6542,-1.6529,-1.6529,-1.6049,-1.5723,-1.5396,-1.5151,-1.4743,-2.4194,-2.3666,-2.325,-2.3038,-2.31,-2.3182,-2.33,-2.3714,-2.3898,-2.3132,-2.3489,-2.3661,-2.2649,-2.3714,-2.4679,-2.4399,-2.4833,-2.5328,-2.5592,-2.5952,-2.6186,-2.619,-2.7154,-2.7834,-2.7975,-2.8341,-2.8614,-2.8757,-2.8424,-2.8425,-2.9061,-2.9267,-2.971,-3.0513,-3.0857,-3.1323,-3.1896,-3.1687,-3.1756,-3.2105,-3.1771,-3.163,-3.1576,-3.1756,-3.213,-3.2707,-3.2882,-3.286,-3.274,-3.1993,-3.1763,-3.1949,-3.1371,-3.1197,-3.1273,-3.0987,-3.1076,-3.128,-3.0951,-3.0754,-3.0665,-3.015,-2.9535,-2.884,-2.84,-2.788,-2.7486,-2.7324,-2.7122,-2.6987,-2.68,-2.6533,-2.6056,-2.5553,-2.497,-2.4412,-2.4172,-2.392,-2.376,-2.376,-2.313,-2.2567,-2.2567,-2.1842,-2.1276,-2.1276,-2.1276,-2.1114,-2.0627,-2.0048,-1.9578,-1.9326,-1.887,-1.8651,-1.8565,-1.8201,-1.7886,-1.7645,-1.7396,-1.7036,-1.647,-1.6678,-1.6776,-1.6781,-1.6557,-1.6451,-1.6451,-1.6122,-1.5916,-1.5731,-1.5565,-1.5196,-2.3247,-2.2673,-2.2445,-2.2684,-2.2436,-2.2256,-2.2451,-2.3212,-2.359,-2.2688,-2.273,-2.2887,-2.2665,-2.2904,-2.3385,-2.4086,-2.417,-2.437,-2.4899,-2.5215,-2.5442,-2.5569,-2.6503,-2.7305,-2.7547,-2.7909,-2.8313,-2.8646,-2.8329,-2.8345,-2.8704,-2.91,-2.9458,-2.9918,-3.0616,-3.1147,-3.1634,-3.1617,-3.1739,-3.2105,-3.1841,-3.1718,-3.1698,-3.2076,-3.2398,-3.2826,-3.3061,-3.3196,-3.312,-3.2375,-3.2069,-3.2025,-3.1964,-3.2142,-3.23,-3.2292,-3.2472,-3.2654,-3.1813,-3.1482,-3.1399,-3.0915,-3.0296,-2.9735,-2.9707,-2.9165,-2.8532,-2.8125,-2.803,-2.7785,-2.7122,-2.6867,-2.668,-2.6096,-2.5222,-2.4572,-2.4492,-2.4172,-2.376,-2.376,-2.313,-2.2567,-2.2567,-2.1842,-2.1276,-2.1276,-2.1276,-2.1114,-2.0627,-2.0406,-1.9953,-1.9336,-1.9081,-1.8799,-1.8721,-1.8201,-1.7955,-1.7973,-1.7408,-1.7094,-1.7094,-1.6681,-1.6661,-1.7334,-1.651,-1.6014,-1.6014,-1.6014,-1.6178,-1.6324,-1.5921,-1.5501,-2.2482,-2.213,-2.1939,-2.1703,-2.1949,-2.2115,-2.182,-2.2112,-2.24,-2.199,-2.2141,-2.2166,-2.1615,-2.2185,-2.2802,-2.3126,-2.3372,-2.3775,-2.4502,-2.4664,-2.4853,-2.5202,-2.608,-2.6786,-2.6863,-2.7426,-2.7868,-2.7947,-2.7884,-2.801,-2.836,-2.871,-2.9294,-3.0252,-3.047,-3.1003,-3.1961,-3.1961,-3.2017,-3.2105,-3.2351,-3.2438,-3.2451,-3.2905,-3.3223,-3.3563,-3.3281,-3.3196,-3.312,-3.2664,-3.2435,-3.2441,-3.2376,-3.211,-3.1933,-3.2165,-3.2278,-3.2257,-3.1662,-3.1482,-3.1399,-3.0582,-3.0205,-2.9938,-2.9434,-2.9156,-2.8935,-2.8853,-2.8672,-2.8369,-2.814,-2.7676,-2.7215,-2.6747,-2.5762,-2.4891,-2.4572,-2.4172,-2.376,-2.376,-2.313,-2.2567,-2.2567,-2.1842,-2.1276,-2.1276,-2.0952,-2.0709,-2.0627,-1.9936,-1.9457,-1.9326,-1.862,-1.8284,-1.8413,-1.7998,-1.7728,-1.7887,-1.7771,-1.7704,-1.7704,-1.6952,-1.6598,-1.68,-1.6547,-1.6462,-1.6462,-1.6462,-1.6487,-1.6519,-1.6095,-1.5608,-2.1276,-2.0875,-2.0522,-2.0325,-2.0861,-2.1264,-2.071,-2.0817,-2.0971,-2.0708,-2.1327,-2.165,-2.1319,-2.1682,-2.2256,-2.2582,-2.2717,-2.3102,-2.3843,-2.4156,-2.4374,-2.4781,-2.5741,-2.6451,-2.6603,-2.7317,-2.7725,-2.7725,-2.7887,-2.8111,-2.8279,-2.8609,-2.9221,-3.0052,-3.031,-3.0962,-3.2087,-3.2078,-3.2294,-3.2684,-3.2701,-3.2862,-3.33,-3.3524,-3.3643,-3.382,-3.3592,-3.3517,-3.3441,-3.3061,-3.2892,-3.2899,-3.277,-3.2586,-3.2443,-3.2733,-3.2834,-3.2752,-3.2324,-3.2159,-3.1994,-3.1081,-3.0832,-3.0719,-3.013,-2.9907,-2.9838,-2.9673,-2.9476,-2.9184,-2.8538,-2.8153,-2.7757,-2.6975,-2.5961,-2.505,-2.4811,-2.4252,-2.376,-2.352,-2.3211,-2.2728,-2.2326,-2.1761,-2.1195,-2.1033,-2.079,-2.0507,-2.0201,-1.9808,-1.9547,-1.9298,-1.8801,-1.8448,-1.8457,-1.8037,-1.7829,-1.7926,-1.7767,-1.7733,-1.7733,-1.7132,-1.6841,-1.6916,-1.6661,-1.6584,-1.6584,-1.6584,-1.6539,-1.6363,-1.6105,-1.5714,-1.9963,-1.9424,-1.8942,-1.8914,-1.9484,-1.9958,-1.9435,-1.9501,-1.9591,-1.9447,-2.0309,-2.1125,-2.0947,-2.1114,-2.1398,-2.1936,-2.2035,-2.2297,-2.3134,-2.3528,-2.3882,-2.4356,-2.5233,-2.5974,-2.636,-2.7087,-2.7578,-2.7645,-2.8035,-2.8309,-2.8345,-2.8725,-2.925,-2.9805,-3.0338,-3.1074,-3.2003,-3.2194,-3.2588,-3.3209,-3.3054,-3.3322,-3.3962,-3.413,-3.4052,-3.3912,-3.3837,-3.3871,-3.3846,-3.3458,-3.3323,-3.3288,-3.3273,-3.3157,-3.308,-3.3466,-3.3558,-3.3394,-3.2983,-3.2819,-3.2654,-3.1911,-3.1565,-3.1399,-3.1067,-3.0817,-3.0734,-3.0415,-3.0346,-3.0024,-2.9021,-2.8579,-2.8249,-2.7338,-2.6198,-2.5337,-2.5219,-2.4591,-2.3892,-2.3442,-2.3234,-2.2809,-2.1922,-2.1551,-2.1178,-2.069,-2.064,-2.0406,-1.9742,-1.9761,-1.9625,-1.9213,-1.8937,-1.8632,-1.8412,-1.7987,-1.775,-1.7776,-1.7579,-1.7413,-1.7413,-1.7206,-1.7156,-1.7228,-1.6853,-1.6674,-1.6674,-1.6674,-1.6505,-1.615,-1.6071,-1.5718,-1.8944,-1.8567,-1.8086,-1.7895,-1.8121,-1.8346,-1.817,-1.8374,-1.8584,-1.8552,-1.9237,-1.9831,-1.9831,-1.9843,-2.0075,-2.0804,-2.0943,-2.1271,-2.2377,-2.2606,-2.3023,-2.4028,-2.4561,-2.5026,-2.5689,-2.6393,-2.693,-2.728,-2.7947,-2.8444,-2.8741,-2.9316,-2.9691,-2.9805,-3.0817,-3.1407,-3.1598,-3.2535,-3.2932,-3.2789,-3.3803,-3.427,-3.4324,-3.5061,-3.4971,-3.429,-3.3912,-3.4025,-3.4282,-3.3898,-3.372,-3.3735,-3.4015,-3.3615,-3.308,-3.3791,-3.3804,-3.3394,-3.2983,-3.2819,-3.2736,-3.2257,-3.1828,-3.1482,-3.1399,-3.115,-3.0832,-3.0734,-3.0749,-3.0567,-3.0122,-2.9492,-2.884,-2.8359,-2.728,-2.6255,-2.5618,-2.5269,-2.4866,-2.4226,-2.3352,-2.2406,-2.1518,-2.1448,-2.1413,-2.092,-2.0672,-2.0386,-1.9913,-1.9615,-1.9203,-1.8781,-1.83,-1.7946,-1.7656,-1.7243,-1.705,-1.7206,-1.7151,-1.7159,-1.7159,-1.7096,-1.7161,-1.7363,-1.712,-1.7039,-1.7039,-1.7039,-1.6865,-1.6507,-1.6158,-1.5711,-1.7563,-1.7162,-1.6872,-1.667,-1.6828,-1.694,-1.6688,-1.6708,-1.6876,-1.7006,-1.7351,-1.8041,-1.9077,-1.9262,-1.9426,-2.0048,-2.0299,-2.0693,-2.1283,-2.1845,-2.2498,-2.3409,-2.4012,-2.4686,-2.5493,-2.5951,-2.6446,-2.7162,-2.7687,-2.831,-2.9053,-2.9561,-3.0018,-3.0408,-3.093,-3.1456,-3.2119,-3.2856,-3.3454,-3.4025,-3.452,-3.4776,-3.4793,-3.5353,-3.5306,-3.4724,-3.4574,-3.4452,-3.4364,-3.4208,-3.4015,-3.3839,-3.4182,-3.4104,-3.3793,-3.4277,-3.4213,-3.3804,-3.364,-3.3394,-3.3164,-3.267,-3.2407,-3.2189,-3.2206,-3.1849,-3.1544,-3.1737,-3.1543,-3.1289,-3.0779,-3.0297,-2.9761,-2.884,-2.8273,-2.7599,-2.6566,-2.5817,-2.5096,-2.4233,-2.3294,-2.2486,-2.2086,-2.1667,-2.1233,-2.0816,-2.0396,-2.0085,-1.9788,-1.9382,-1.9002,-1.8931,-1.826,-1.7784,-1.7687,-1.726,-1.7031,-1.7104,-1.7112,-1.7161,-1.7258,-1.7266,-1.7348,-1.7526,-1.7356,-1.7315,-1.7404,-1.7404,-1.7176,-1.6716,-1.6543,-1.6129,-1.6275,-1.5803,-1.5679,-1.5417,-1.5443,-1.5413,-1.5245,-1.5128,-1.5115,-1.5325,-1.5412,-1.5991,-1.7624,-1.8213,-1.8531,-1.8959,-1.9481,-1.9872,-2.0195,-2.095,-2.1766,-2.2576,-2.3187,-2.4021,-2.5146,-2.5405,-2.5957,-2.6987,-2.7376,-2.8058,-2.921,-2.9618,-3.0107,-3.075,-3.1127,-3.1667,-3.2441,-3.3139,-3.4009,-3.4985,-3.5111,-3.5175,-3.5193,-3.5573,-3.5659,-3.5449,-3.5117,-3.4852,-3.458,-3.44,-3.426,-3.4103,-3.4355,-3.4469,-3.4463,-3.4795,-3.4702,-3.4294,-3.4294,-3.4032,-3.3784,-3.3372,-3.3187,-3.3047,-3.3044,-3.27,-3.2324,-3.2579,-3.2312,-3.1883,-3.154,-3.1109,-3.051,-2.9438,-2.9031,-2.8514,-2.7213,-2.6095,-2.5148,-2.4151,-2.3344,-2.281,-2.2488,-2.1862,-2.1221,-2.0716,-2.0343,-1.9931,-1.957,-1.9158,-1.8963,-1.8846,-1.8252,-1.7752,-1.7714,-1.7362,-1.7201,-1.7242,-1.725,-1.7307,-1.7445,-1.7453,-1.7534,-1.7705,-1.7583,-1.7559,-1.764,-1.764,-1.7392,-1.6985,-1.6985,-1.6552,-1.5195,-1.4707,-1.4579,-1.4269,-1.3834,-1.3667,-1.4027,-1.3763,-1.3538,-1.3796,-1.3689,-1.3821,-1.4866,-1.6,-1.6943,-1.7261,-1.7936,-1.8652,-1.9453,-1.9887,-2.0486,-2.1539,-2.1964,-2.272,-2.4071,-2.475,-2.5574,-2.6552,-2.7015,-2.7818,-2.9218,-2.9602,-2.997,-3.0426,-3.1716,-3.2263,-3.2038,-3.3498,-3.4508,-3.4985,-3.5414,-3.5608,-3.5559,-3.5962,-3.6346,-3.6636,-3.5485,-3.4993,-3.4946,-3.4598,-3.4647,-3.4915,-3.4967,-3.4953,-3.4895,-3.5282,-3.5109,-3.4783,-3.4783,-3.4687,-3.4649,-3.4567,-3.4291,-3.3869,-3.3816,-3.3476,-3.3136,-3.3151,-3.2825,-3.2483,-3.2398,-3.1783,-3.0923,-3.0084,-2.9589,-2.8825,-2.7174,-2.6205,-2.5263,-2.4013,-2.347,-2.3049,-2.2132,-2.1737,-2.147,-2.0958,-2.071,-2.0231,-1.937,-1.9186,-1.8846,-1.7998,-1.7822,-1.7722,-1.7445,-1.7372,-1.7445,-1.7599,-1.7616,-1.7616,-1.7624,-1.7624,-1.7713,-1.79,-1.7892,-1.7811,-1.764,-1.764,-1.7456,-1.7157,-1.7157,-1.6972,-1.5642,-1.512,-1.4696,-1.3564,-1.3155,-1.2914,-1.2283,-1.1831,-1.1497,-1.1521,-1.1574,-1.1716,-1.1952,-1.3797,-1.5508,-1.6181,-1.6886,-1.7466,-1.7815,-1.8765,-1.9794,-2.0812,-2.144,-2.2398,-2.3927,-2.4541,-2.5313,-2.6479,-2.7123,-2.8083,-2.9549,-2.9966,-3.0465,-3.1331,-3.1866,-3.2506,-3.3425,-3.4543,-3.5445,-3.6066,-3.6002,-3.6288,-3.6754,-3.6664,-3.6664,-3.6812,-3.6348,-3.6135,-3.6101,-3.5727,-3.5487,-3.5435,-3.5696,-3.5553,-3.531,-3.5702,-3.5595,-3.5223,-3.5457,-3.5377,-3.5113,-3.5359,-3.5171,-3.481,-3.4949,-3.4501,-3.3947,-3.4179,-3.372,-3.3111,-3.3111,-3.2527,-3.1599,-3.0493,-2.9755,-2.8906,-2.7418,-2.6749,-2.5882,-2.4268,-2.3858,-2.345,-2.2172,-2.1646,-2.1267,-2.0759,-2.0125,-1.965,-1.965,-1.8972,-1.8522,-1.8434,-1.8012,-1.7657,-1.7543,-1.7551,-1.7575,-1.764,-1.764,-1.7746,-1.7973,-1.7981,-1.8127,-1.8428,-1.8436,-1.8282,-1.7981,-1.7981,-1.7986,-1.807,-1.807,-1.7883,-1.6087,-1.547,-1.4834,-1.3154,-1.2634,-1.2178,-1.0947,-1.0258,-0.9806,-0.9549,-0.9545,-0.9612,-0.982,-1.1408,-1.3133,-1.4551,-1.5592,-1.6302,-1.6657,-1.778,-1.8963,-1.9877,-2.0763,-2.1909,-2.3503,-2.4239,-2.5137,-2.6352,-2.7165,-2.8206,-2.9545,-3.0149,-3.1038,-3.2339,-3.2554,-3.3211,-3.4491,-3.5433,-3.6162,-3.672,-3.6641,-3.6859,-3.7402,-3.7107,-3.7035,-3.6998,-3.6868,-3.6754,-3.6597,-3.6327,-3.6231,-3.6211,-3.6333,-3.6338,-3.6339,-3.6452,-3.6311,-3.6,-3.6319,-3.6157,-3.5975,-3.6224,-3.6053,-3.5861,-3.6236,-3.5729,-3.517,-3.5494,-3.487,-3.4046,-3.3852,-3.288,-3.1786,-3.0789,-2.989,-2.8784,-2.7487,-2.6901,-2.6103,-2.4407,-2.3892,-2.329,-2.2168,-2.1475,-2.0955,-2.0607,-1.9824,-1.9301,-1.9388,-1.8681,-1.8182,-1.8262,-1.7894,-1.7664,-1.7729,-1.7737,-1.7762,-1.7819,-1.7875,-1.8022,-1.8257,-1.833,-1.8476,-1.872,-1.8728,-1.8606,-1.8363,-1.8363,-1.842,-1.8541,-1.8541,-1.832,0.0,0.0,0.0,-1.3115,-1.2232,-1.1414,-0.9999,-0.9144,-0.8438,-0.7933,-0.7592,-0.7636,-0.8469,-0.8834,-0.9829,-1.2274,-1.3923,-1.5096,-1.5915,-1.6973,-1.789,-1.868,-1.9941,-2.1225,-2.2576,-2.384,-2.5026,-2.6006,-2.7091,-2.8147,-2.9172,-3.0257,-3.169,-3.3355,-3.3931,-3.4491,-3.523,-3.6103,-3.6563,-3.672,-3.7143,-3.7441,-3.7421,-3.7421,-3.7407,-3.7371,-3.698,-3.6607,-3.6236,-3.6236,-3.6707,-3.7383,-3.6902,-3.7195,-3.7857,-3.7376,-3.721,-3.721,-3.7227,-3.7215,-3.7115,-3.7115,-3.7094,-3.7099,-3.7375,-3.7227,-3.6788,-3.6876,-3.6186,-3.5222,-3.4441,-3.288,-3.1509,-3.1057,-2.9932,-2.8678,-2.7452,-2.6644,-2.569,-2.4321,-2.3376,-2.2514,-2.2081,-2.1215,-2.0607,-2.052,-1.9737,-1.903,-1.8602,-1.8248,-1.7923,-1.7486,-1.7551,-1.7638,-1.7908,-1.7924,-1.7997,-1.8176,-1.8355,-1.8452,-1.8468,-1.8639,-1.8736,-1.8736,-1.8736,-1.8736,-1.8736,-1.8728,-1.8728,-1.8736,-1.8744,-1.8456,-1.6497,0.0,0.0,0.0,0.0,0.0,-0.9873,-0.8737,-0.7643,-0.6579,-0.6513,-0.6549,-0.6201,-0.685,-0.7866,-0.9285,-1.1728,-1.3731,-1.483,-1.6285,-1.7453,-1.8324,-1.9743,-2.1163,-2.2576,-2.3871,-2.5137,-2.6371,-2.7565,-2.8767,-2.9883,-3.1709,-3.3058,-3.3887,-3.4834,-3.5466,-3.5686,-3.6578,-3.7035,-3.7164,-3.7306,-3.7731,-3.8282,-3.8009,-3.7699,-3.7425,-3.7312,-3.7147,-3.7035,-3.7035,-3.7511,-3.8258,-3.8096,-3.8256,-3.8371,-3.8288,-3.8206,-3.8241,-3.8206,-3.811,-3.808,-3.7998,-3.7724,-3.7531,-3.7916,-3.7666,-3.7365,-3.7644,-3.6805,-3.5561,-3.4089,-3.3322,-3.2632,-3.1469,-3.0525,-2.9434,-2.7921,-2.6413,-2.5134,-2.427,-2.3376,-2.2427,-2.1649,-2.0955,-2.0347,-1.965,-1.9126,-1.8689,-1.8514,-1.8093,-1.7837,-1.8026,-1.7668,-1.7591,-1.8103,-1.7739,-1.7811,-1.8363,-1.8428,-1.8566,-1.8826,-1.8883,-1.8972,-1.911,-1.911,-1.911,-1.911,-1.885,-1.8785,-1.8915,-1.9175,-1.9,0.0,0.0,0.0,0.0,0.0,0.0,-0.9388,-0.8066,-0.6771,-0.5471,-0.5303,-0.5294,-0.4885,-0.5455,-0.6348,-0.7248,-0.9346,-1.1547,-1.3483,-1.5017,-1.642,-1.7611,-1.9261,-2.084,-2.2348,-2.3969,-2.5501,-2.6696,-2.8235,-2.9786,-3.1361,-3.2622,-3.3753,-3.4684,-3.5529,-3.6103,-3.6349,-3.7232,-3.7708,-3.7777,-3.7999,-3.838,-3.8865,-3.8594,-3.8155,-3.7642,-3.7813,-3.7821,-3.7678,-3.8028,-3.853,-3.9078,-3.9096,-3.9174,-3.9366,-3.9098,-3.9015,-3.905,-3.9028,-3.9014,-3.9,-3.9129,-3.8821,-3.8579,-3.9109,-3.875,-3.8252,-3.8574,-3.7468,-3.6031,-3.489,-3.4107,-3.3368,-3.1891,-3.0923,-2.992,-2.8217,-2.6619,-2.5126,-2.4241,-2.3031,-2.1908,-2.1389,-2.0607,-1.9824,-1.9292,-1.8602,-1.8164,-1.8164,-1.7867,-1.764,-1.7739,-1.7512,-1.7429,-1.7523,-1.7336,-1.7319,-1.7773,-1.7954,-1.8112,-1.8282,-1.8662,-1.8749,-1.8663,-1.8861,-1.8992,-1.9072,-1.8988,-1.9037,-1.9207,-1.9419,-1.9255,0.0,0.0,0.0,0.0,-1.269,0.0,-0.8874,-0.7457,-0.6168,-0.4723,-0.4345,-0.4224,-0.4226,-0.4594,-0.511,-0.6039,-0.7197,-0.9026,-1.1811,-1.3514,-1.5034,-1.6667,-1.8585,-2.0423,-2.2066,-2.4188,-2.5898,-2.7081,-2.9044,-3.1092,-3.3149,-3.3289,-3.4119,-3.5699,-3.6257,-3.6643,-3.7003,-3.7887,-3.8336,-3.8406,-3.8809,-3.9109,-3.9248,-3.9248,-3.8812,-3.8101,-3.8451,-3.8424,-3.8117,-3.9052,-3.9536,-3.9786,-3.9876,-4.0108,-4.0403,-4.0046,-3.9858,-3.9858,-3.9791,-3.9809,-3.9898,-4.0236,-4.0033,-3.9879,-4.0595,-4.0197,-3.9481,-3.9391,-3.8243,-3.6843,-3.6314,-3.5227,-3.3888,-3.2511,-3.1432,-3.0177,-2.8563,-2.6949,-2.5553,-2.4321,-2.2546,-2.1332,-2.1128,-2.0076,-1.9117,-1.903,-1.8252,-1.7735,-1.7647,-1.751,-1.7278,-1.6832,-1.7042,-1.7055,-1.6774,-1.6696,-1.6684,-1.6949,-1.7121,-1.7277,-1.7441,-1.8076,-1.8168,-1.7695,-1.8206,-1.849,-1.8645,-1.9096,-1.9394,-1.954,-1.9565,-1.9359,0.0,0.0,0.0,-1.4085,-1.273,0.0,-0.9839,-0.8554,-0.7235,-0.5733,-0.5212,-0.482,-0.4093,-0.4205,-0.4727,-0.5735,-0.6601,-0.7948,-1.0197,-1.2499,-1.4511,-1.6028,-1.8264,-2.0469,-2.2357,-2.4046,-2.5863,-2.7889,-3.0291,-3.2197,-3.3436,-3.4105,-3.5191,-3.6916,-3.7297,-3.763,-3.7959,-3.8166,-3.8303,-3.8386,-3.8487,-3.8879,-3.957,-3.9321,-3.8958,-3.8467,-3.8599,-3.8574,-3.8671,-3.9842,-4.0117,-3.9868,-4.0226,-4.0628,-4.0976,-4.0892,-4.0807,-4.0807,-4.0385,-4.0516,-4.07,-4.0411,-4.0487,-4.0754,-4.1214,-4.1267,-4.0911,-4.0197,-3.9699,-3.901,-3.7038,-3.6111,-3.5253,-3.3501,-3.2033,-3.0712,-2.8994,-2.7068,-2.5301,-2.408,-2.2616,-2.1329,-2.0366,-1.964,-1.8943,-1.8173,-1.7639,-1.7112,-1.6753,-1.6526,-1.6461,-1.6378,-1.6209,-1.6306,-1.6681,-1.6423,-1.6569,-1.7121,-1.7285,-1.7449,-1.7613,-1.7749,-1.7831,-1.7866,-1.8094,-1.8176,-1.8206,-1.9197,-1.9703,-1.9735,-1.989,-1.9458,-1.6952,-1.5961,-1.5105,-1.4436,-1.2844,0.0,0.0,-0.8642,-0.7155,-0.5748,-0.5363,-0.5034,-0.4379,-0.4453,-0.4846,-0.562,-0.6565,-0.7899,-0.9852,-1.1877,-1.3763,-1.542,-1.7919,-2.0222,-2.2157,-2.4331,-2.6793,-2.9718,-3.1612,-3.3173,-3.4505,-3.4875,-3.5982,-3.7974,-3.8038,-3.8317,-3.8946,-3.8636,-3.8693,-3.924,-3.9032,-3.9292,-4.0022,-3.959,-3.9228,-3.8905,-3.9129,-3.9142,-3.9051,-4.0311,-4.0674,-4.054,-4.1173,-4.1463,-4.1378,-4.1378,-4.1378,-4.1331,-4.1129,-4.133,-4.1739,-4.1864,-4.2091,-4.2313,-4.2621,-4.2479,-4.1976,-4.1513,-4.1101,-4.0387,-3.8741,-3.7574,-3.6273,-3.4425,-3.279,-3.1184,-2.9356,-2.7496,-2.563,-2.3964,-2.2412,-2.1028,-2.0105,-1.8943,-1.7981,-1.7551,-1.6849,-1.6321,-1.6057,-1.6167,-1.6105,-1.5833,-1.5846,-1.5938,-1.5931,-1.5884,-1.5951,-1.6401,-1.6551,-1.6707,-1.6871,-1.7248,-1.7465,-1.7632,-1.7785,-1.7865,-1.7865,-1.877,-1.9284,-1.9513,-1.9917,-1.9696,-1.7103,-1.6143,-1.5434,-1.4714,-1.3062,-1.1344,0.0,0.0,0.0,-0.5821,-0.5482,-0.527,-0.4905,-0.4975,-0.5347,-0.5935,-0.7101,-0.8515,-1.0286,-1.197,-1.3648,-1.5412,-1.7843,-2.0231,-2.2285,-2.5308,-2.8368,-3.1426,-3.2742,-3.4083,-3.5656,-3.5816,-3.6822,-3.8971,-3.8813,-3.904,-3.9823,-3.9277,-3.9411,-4.0272,-3.9813,-3.9943,-4.0525,-4.0022,-3.9662,-3.9433,-3.981,-3.9807,-3.9488,-4.0722,-4.1254,-4.129,-4.1985,-4.2076,-4.1863,-4.1863,-4.1919,-4.1966,-4.1981,-4.2289,-4.2892,-4.3622,-4.3918,-4.4115,-4.4357,-4.3906,-4.3288,-4.3235,-4.2604,-4.1702,-4.0687,-3.9127,-3.7403,-3.5366,-3.3591,-3.1727,-2.9654,-2.7889,-2.6015,-2.3798,-2.1893,-2.0452,-1.9756,-1.8243,-1.7112,-1.7024,-1.6145,-1.5528,-1.544,-1.5599,-1.5615,-1.5195,-1.5447,-1.5528,-1.5181,-1.535,-1.5506,-1.5635,-1.5798,-1.5954,-1.6076,-1.6654,-1.7024,-1.7179,-1.7334,-1.7529,-1.7661,-1.8208,-1.8708,-1.9068,-1.9593,-1.9568,-1.7449,-1.6616,-1.583,-1.4359,-1.3415,-1.24,-1.0485,0.0,-0.8705,-0.7119,0.0,-0.6076,-0.5666,0.0,0.0,-0.7163,-0.841,-0.9856,-1.1538,-1.3557,-1.5291,-1.6567,-1.8603,-2.0964,-2.3715,-2.7676,-3.0553,-3.1688,-3.3192,-3.4858,-3.6675,-3.6971,-3.796,-3.9825,-3.9998,-4.0185,-4.0408,-4.0233,-4.0408,-4.1022,-4.0341,-4.0501,-4.1331,-4.0596,-4.0238,-4.0155,-4.029,-4.0294,-4.0318,-4.1347,-4.1732,-4.1694,-4.1745,-4.1997,-4.2318,-4.2318,-4.2545,-4.2866,-4.282,-4.3415,-4.4182,-4.4586,-4.5267,-4.5909,-4.5966,-4.5875,-4.5694,-4.5274,-4.4727,-4.3887,-4.2197,-4.0629,-3.8993,-3.6416,-3.4382,-3.2477,-2.9974,-2.7776,-2.5754,-2.3556,-2.1134,-1.9232,-1.8777,-1.7814,-1.6936,-1.6577,-1.5697,-1.4903,-1.455,-1.4249,-1.4132,-1.4173,-1.4336,-1.4673,-1.5174,-1.5445,-1.5622,-1.5635,-1.59,-1.6062,-1.6083,-1.6448,-1.6674,-1.672,-1.6981,-1.744,-1.7996,-1.8017,-1.8255,-1.8716,-1.8716,-1.8522,-1.7696,-1.7043,-1.6419,-1.4937,-1.3881,-1.2753,-1.1214,-1.0045,-0.8966,-0.7721,0.0,0.0,0.0,0.0,0.0,0.0,-0.9994,-1.1608,-1.3704,-1.5624,-1.7043,-1.7612,-1.9694,-2.2569,-2.628,-2.9414,-3.1779,-3.3197,-3.4614,-3.6248,-3.8073,-3.8278,-3.9205,-4.1046,-4.1108,-4.1215,-4.1348,-4.0854,-4.087,-4.1407,-4.075,-4.0778,-4.1473,-4.0882,-4.0525,-4.0299,-4.066,-4.0838,-4.0843,-4.1537,-4.2132,-4.2541,-4.2233,-4.239,-4.2838,-4.3086,-4.3277,-4.3422,-4.3643,-4.4299,-4.5209,-4.6395,-4.7296,-4.7768,-4.7405,-4.7131,-4.6892,-4.6481,-4.5769,-4.4746,-4.3142,-4.1751,-4.0067,-3.7291,-3.5134,-3.2907,-2.9972,-2.7561,-2.5155,-2.2722,-2.0385,-1.8593,-1.7814,-1.6665,-1.5785,-1.5609,-1.4822,-1.4115,-1.3938,-1.3617,-1.3487,-1.3625,-1.377,-1.4126,-1.4823,-1.5033,-1.5418,-1.5886,-1.6171,-1.6374,-1.6463,-1.6673,-1.6856,-1.7005,-1.7161,-1.737,-1.7652,-1.7652,-1.7725,-1.7868,-1.8613,-1.8719,-1.8073,-1.7421,-1.6758,-1.5453,-1.4244,-1.3007,-1.1604,-1.0593,-0.9562,-0.8356,-0.8053,0.0,0.0,0.0,0.0,0.0,0.0,-1.3536,-1.5734,-1.7751,-1.9003,-1.9105,-2.1788,-2.4998,-2.8607,-3.1004,-3.3032,-3.4778,-3.6113,-3.7738,-3.9715,-3.9812,-4.0546,-4.2117,-4.2029,-4.2076,-4.2216,-4.1479,-4.1522,-4.2237,-4.1361,-4.1262,-4.1898,-4.131,-4.0882,-4.0658,-4.1049,-4.1211,-4.1272,-4.1646,-4.2288,-4.3061,-4.2582,-4.2705,-4.3355,-4.3697,-4.3929,-4.4141,-4.453,-4.5395,-4.6551,-4.8142,-4.8938,-4.9219,-4.8835,-4.847,-4.8046,-4.7735,-4.6839,-4.561,-4.4361,-4.2835,-4.1011,-3.8077,-3.5754,-3.3307,-3.0133,-2.756,-2.4979,-2.2371,-2.0122,-1.8322,-1.7104,-1.5697,-1.4815,-1.4815,-1.4027,-1.3318,-1.323,-1.2997,-1.2951,-1.3078,-1.3246,-1.3721,-1.4622,-1.4816,-1.5335,-1.6123,-1.6381,-1.6592,-1.6637,-1.6897,-1.7046,-1.7188,-1.7344,-1.7547,-1.7696,-1.7588,-1.7616,-1.7758,-1.8323,-1.8603,-1.8603,-1.7756,-1.6783,-1.5517,-1.4544,-1.3344,-1.1452,-1.1282,-1.1021,-0.9235,-0.9575,-1.0053,-0.9628,0.0,0.0,0.0,0.0,0.0,0.0,-1.968,-2.1147,-2.1381,-2.5269,-2.8535,-3.0186,-3.263,-3.4653,0.0,-3.7491,-3.9297,-4.1527,-4.16,-4.1969,-4.2824,-4.2774,-4.2735,-4.2676,-4.2192,-4.2552,-4.3722,-4.2304,-4.2133,-4.3001,-4.1969,-4.1473,-4.1465,-4.1563,-4.1583,-4.157,-4.1722,-4.2288,-4.3061,-4.2582,-4.2949,-4.3769,-4.4219,-4.4648,-4.5058,-4.5527,-4.6767,-4.8335,-4.9352,-4.9975,-5.0225,-5.0225,-4.9859,-4.9584,-4.9564,-4.8459,-4.7062,-4.5793,-4.3994,-4.1666,-3.863,-3.618,-3.3661,-3.0635,-2.8017,-2.553,-2.2898,-2.0657,-1.8593,-1.6753,-1.5256,-1.4285,-1.4285,-1.3496,-1.2787,-1.2343,-1.2281,-1.2408,-1.2621,-1.2766,-1.3447,-1.4629,-1.4906,-1.5486,-1.6286,-1.6442,-1.6592,-1.6637,-1.6897,-1.7046,-1.7188,-1.7344,-1.771,-1.8508,-1.7861,-1.793,-1.8626,-1.788,-1.7419,-1.8959,-1.8193,-1.7399,-1.6431,-1.5149,-1.3843,-1.2711,-1.2148,-1.1563,-1.0502,-1.0745,-1.1166,-1.1166,0.0,0.0,0.0,0.0,0.0,0.0,-2.3292,-2.6427,-2.8398,-2.9293,-3.0649,-3.2936,-3.4578,-3.6365,0.0,-3.9411,0.0,-4.2393,-4.2684,-4.3021,-4.3476,-4.3848,-4.3786,-4.3305,-4.3059,-4.324,-4.3788,-4.3104,-4.2881,-4.3071,-4.2721,-4.218,-4.1536,-4.2147,-4.2101,-4.1644,-4.2333,-4.2991,-4.3459,-4.33,-4.3775,-4.4616,-4.4733,-4.4902,-4.5215,-4.6855,-4.8384,-4.9781,-5.0428,-5.0943,-5.1248,-5.0884,-5.0702,-5.0428,-4.9787,-4.8755,-4.751,-4.6222,-4.4414,-4.2284,-3.9699,-3.698,-3.4187,-3.0971,-2.8104,-2.5187,-2.2039,-1.9883,-1.7852,-1.58,-1.4285,-1.3496,-1.3761,-1.3053,-1.2343,-1.2254,-1.2012,-1.1864,-1.2077,-1.2311,-1.2818,-1.3704,-1.4825,-1.574,-1.6341,-1.6686,-1.689,-1.7039,-1.7188,-1.7344,-1.7494,-1.7636,-1.7854,-1.8115,-1.7902,-1.7923,-1.8205,-1.7868,-1.7724,-1.9376,-1.8636,-1.7853,-1.7091,-1.5919,-1.4722,-1.3704,-1.3233,-1.2826,-1.2221,-1.2492,-1.3027,-1.3668,0.0,0.0,0.0,0.0,0.0,0.0,-2.6828,-3.0314,-3.3055,-3.2418,-3.2823,-3.552,-3.6676,-3.826,0.0,0.0,0.0,0.0,-4.4357,-4.4565,-4.4705,-4.4744,-4.4551,-4.4128,-4.3706,-4.3798,-4.4575,-4.3831,-4.3556,-4.3697,-4.328,-4.2651,-4.194,-4.2532,-4.247,-4.2089,-4.2561,-4.3224,-4.3856,-4.338,-4.3955,-4.502,-4.5202,-4.5569,-4.6245,-4.8105,-4.9469,-5.0454,-5.1104,-5.1643,-5.1928,-5.147,-5.135,-5.1067,-5.0102,-4.9032,-4.7807,-4.6668,-4.4782,-4.2632,-4.0478,-3.7611,-3.4533,-3.1504,-2.8307,-2.5046,-2.1975,-1.9799,-1.7662,-1.5374,-1.3843,-1.2964,-1.3053,-1.2254,-1.1649,-1.1693,-1.1352,-1.1287,-1.1591,-1.1846,-1.2395,-1.332,-1.4837,-1.5814,-1.6217,-1.6705,-1.7046,-1.7188,-1.7338,-1.7494,-1.765,-1.7792,-1.7901,-1.7948,-1.7948,-1.7968,-1.8023,-1.8023,-1.8023]},{"header":{"parameterUnit":"m.s-1","parameterCategory":1,"la1":30.6,"la2":29.2853,"lo1":-89.7004,"lo2":-87.6739,"dy":0.0162,"dx":0.0183,"nx":112,"ny":82,"refTime":"2023-04-19T12:00:00:Z","depth":0,"parameterNumber":3,"parameterNumberName":"V-component_of_WINDS"},"data":[0.0,0.0,0.0,0.0,0.0,0.0,0.0,0.0,0.0,0.0,0.0,0.0,0.0,0.0,0.0,0.0,0.0,0.0,0.0,0.0,0.0,0.0,0.0,0.0,0.0,0.0,0.0,0.0,0.0,0.0,0.0,0.0,0.0,0.0,0.0,0.0,0.0,0.0,0.0,0.0,0.0,0.0,0.0,0.0,0.0,0.0,0.0,0.0,0.0,0.0,0.0,0.0,0.0,0.0,0.0,0.0,0.0,0.0,0.0,0.0,0.0,0.0,0.0,0.0,0.0,0.0,0.0,0.0,0.0,0.0,0.0,0.0,0.0,0.0,0.0,0.0,0.0,0.0,0.0,0.0,0.0,0.0,0.0,0.0,0.0,0.0,0.0,0.0,0.0,0.0,0.9531,0.9862,1.1719,1.4215,1.7341,1.9672,2.2647,2.6591,0.0,0.0,0.0,0.0,0.0,0.0,0.0,0.0,0.0,0.0,0.0,0.0,0.0,0.0,0.0,0.0,0.0,0.0,0.0,0.0,0.0,0.0,0.0,0.0,0.0,0.0,0.0,0.0,0.0,0.0,0.0,0.0,0.0,0.0,0.0,0.0,0.0,0.0,0.0,0.0,0.0,0.0,0.0,0.0,0.0,0.0,0.0,0.0,0.0,0.0,0.0,0.0,0.0,0.0,0.0,0.0,0.0,0.0,0.0,0.0,0.0,0.0,0.0,0.0,0.0,0.0,0.0,0.0,0.0,0.0,0.0,0.0,0.0,0.0,0.0,0.0,0.0,0.0,0.0,0.0,0.0,0.0,0.0,0.0,0.0,0.0,0.0,0.0,0.0,0.0,0.0,0.0,0.0,0.0,0.0,0.0,0.0,0.0,0.0,0.0,0.0,0.0,0.0,0.0,0.6554,0.832,1.0737,1.3731,1.7382,1.9911,2.3213,2.7591,0.0,0.0,0.0,0.0,0.0,0.0,0.0,0.0,0.0,0.0,0.0,0.0,0.0,0.0,0.0,0.0,0.0,0.0,0.0,0.0,0.0,0.0,0.0,0.0,0.0,0.0,0.0,0.0,0.0,0.0,0.0,0.0,0.0,0.0,0.0,0.0,0.0,0.0,0.0,0.0,0.0,0.0,0.0,0.0,0.0,0.0,0.0,0.0,0.0,0.0,0.0,0.0,0.0,0.0,0.0,0.0,0.0,0.0,0.0,0.0,0.0,0.0,0.0,0.0,0.0,0.0,0.0,0.0,0.0,0.0,0.0,0.0,0.0,0.0,0.0,0.0,0.0,0.0,0.0,0.0,0.0,0.0,0.0,0.0,0.0,0.0,0.0,0.0,0.0,0.0,0.0,0.0,0.0,0.0,0.0,0.0,0.0,0.0,0.0,0.0,0.0,0.0,0.0,0.5816,0.647,0.8237,1.0556,1.3581,1.7475,2.0335,2.3939,2.8644,3.0644,0.0,0.0,0.0,0.0,0.0,0.0,0.0,0.0,0.0,0.0,0.0,0.0,0.0,0.0,0.0,0.0,0.0,0.0,0.0,0.0,0.0,0.0,0.0,0.0,0.0,0.0,0.0,0.0,0.0,0.0,0.0,0.0,0.0,0.0,0.0,0.0,0.0,0.0,0.0,0.0,0.0,0.0,0.0,0.0,0.0,0.0,0.0,0.0,0.0,0.0,0.0,0.0,0.0,0.0,0.0,0.0,0.0,0.0,0.0,0.0,0.0,0.0,0.0,0.0,0.0,0.0,0.0,0.0,0.0,0.0,0.0,0.0,0.0,0.0,0.0,0.0,0.0,0.0,0.0,0.0,0.0,0.0,0.0,0.0,0.0,0.0,0.0,0.0,0.0,0.0,0.0,0.0,0.0,0.0,0.0,0.0,0.0,0.0,0.0,0.0,0.0,0.0,0.6158,0.7565,0.943,1.1544,1.4362,1.8133,2.1463,2.5229,2.9647,3.2044,0.0,0.0,0.0,0.0,0.0,0.0,0.0,0.0,0.0,0.0,0.0,0.0,0.0,0.0,0.0,0.0,0.0,0.0,0.0,0.0,0.0,0.0,0.0,0.0,0.0,0.0,0.0,0.0,0.0,0.0,0.0,0.0,0.0,0.0,0.0,0.0,0.0,0.0,0.0,0.0,0.0,0.0,0.0,0.0,0.0,0.0,0.0,0.0,0.0,0.0,0.0,0.0,0.0,0.0,0.0,0.0,0.0,0.0,0.0,0.0,0.0,0.0,0.0,0.0,0.0,0.0,0.0,0.0,0.0,0.0,0.0,0.0,0.0,0.0,0.0,0.0,0.0,0.0,0.0,0.0,0.0,0.0,0.0,0.0,0.0,0.0,0.0,0.0,0.0,0.0,0.0,0.0,0.0,0.0,0.0,0.0,0.0,0.0,0.0,0.0,0.0,0.0,0.7806,0.9317,1.2276,1.4362,1.6745,1.9794,2.3785,2.7453,3.0609,3.2946,0.0,0.0,0.0,0.0,0.0,0.0,0.0,0.0,0.0,0.0,0.0,0.0,0.0,0.0,0.0,0.0,0.0,0.0,0.0,0.0,0.0,0.0,0.0,0.0,0.0,0.0,0.0,0.0,0.0,0.0,0.0,0.0,0.0,0.0,0.0,0.0,0.0,0.0,0.0,0.0,0.0,0.0,0.0,0.0,0.0,0.0,0.0,0.0,0.0,0.0,0.0,0.0,0.0,0.0,0.0,0.0,0.0,0.0,0.0,0.0,0.0,0.0,0.0,0.0,0.0,0.0,0.0,0.0,0.0,0.0,0.0,0.0,0.0,0.0,0.0,0.0,0.0,0.0,0.0,0.0,0.0,0.0,0.0,0.0,0.0,0.0,0.0,0.0,0.0,0.0,0.0,0.0,0.0,0.0,0.0,0.0,0.0,0.0,0.0,0.0,0.0,0.0,0.9896,1.1618,1.3778,1.5962,1.8493,2.1697,2.4632,2.79,3.1537,0.0,0.0,0.0,0.0,0.0,0.0,0.0,0.0,0.0,0.0,0.0,0.0,0.0,0.0,0.0,0.0,0.0,0.0,0.0,0.0,0.0,0.0,0.0,0.0,0.0,0.0,0.0,0.0,0.0,0.0,0.0,0.0,0.0,0.0,0.0,0.0,0.0,0.0,0.0,0.0,0.0,0.0,0.0,0.0,0.0,0.0,0.0,0.0,0.0,0.0,0.0,0.0,0.0,0.0,0.0,0.0,0.0,0.0,0.0,0.0,0.0,0.0,0.0,0.0,0.0,0.0,0.0,0.0,0.0,0.0,0.0,0.0,0.0,0.0,0.0,0.0,0.0,0.0,0.0,0.0,0.0,0.0,0.0,0.0,0.0,0.0,0.0,0.0,0.0,0.0,0.0,0.0,0.0,0.0,0.0,0.0,0.0,0.0,0.0,0.0,0.0,0.0,1.0994,1.2454,1.4106,1.5716,1.8208,2.0926,2.3879,2.6443,2.9392,3.2883,0.0,0.0,0.0,0.0,0.0,0.0,0.0,0.0,0.0,0.0,0.0,0.0,0.0,0.0,0.0,0.0,0.0,0.0,0.0,0.0,0.0,0.0,0.0,0.0,0.0,0.0,0.0,0.0,0.0,0.0,0.0,0.0,0.0,0.0,0.0,0.0,0.0,0.0,0.0,0.0,0.0,0.0,0.0,0.0,0.0,0.0,0.0,0.0,0.0,0.0,0.0,0.0,0.0,0.0,0.0,0.0,0.0,0.0,0.0,0.0,0.0,0.0,0.0,0.0,0.0,0.0,0.0,0.0,0.0,0.0,0.0,0.0,0.0,0.0,0.0,0.0,0.0,0.0,0.0,0.0,0.0,0.0,0.0,0.0,0.0,0.0,0.0,0.0,0.0,0.0,0.0,0.0,0.0,0.0,0.0,0.0,0.0,0.0,0.0,0.0,0.0,0.0,1.4631,1.5573,1.6768,1.8366,2.1421,2.4214,2.6438,2.9561,3.2371,0.0,0.0,0.0,0.0,0.0,0.0,0.0,0.0,0.0,0.0,0.0,0.0,0.0,0.0,0.0,0.0,0.0,0.0,0.0,0.0,0.0,0.0,0.0,0.0,0.0,0.0,0.0,0.0,0.0,0.0,0.0,0.0,0.0,0.0,0.0,0.0,0.0,0.0,0.0,0.0,0.0,0.0,0.0,0.0,0.0,0.0,0.0,0.0,0.0,0.0,0.0,0.0,0.0,0.0,0.0,0.0,0.0,0.0,0.0,0.0,0.0,0.0,0.0,0.0,0.0,0.0,0.0,0.0,0.0,0.0,0.0,0.0,0.0,0.0,0.0,0.0,0.0,0.0,0.0,0.0,0.0,0.0,0.0,0.0,0.0,0.0,0.0,0.0,0.0,0.0,0.0,0.0,0.0,0.0,0.0,0.0,0.0,0.0,0.0,0.0,0.0,0.0,0.0,1.8198,1.9043,2.022,2.1704,2.3739,2.5931,2.8297,3.0748,3.298,3.4838,0.0,0.0,0.0,0.0,0.0,0.0,0.0,0.0,0.0,0.0,0.0,0.0,0.0,0.0,0.0,0.0,0.0,0.0,0.0,0.0,0.0,0.0,0.0,0.0,0.0,0.0,0.0,0.0,0.0,0.0,0.0,0.0,0.0,0.0,0.0,0.0,0.0,0.0,0.0,0.0,0.0,0.0,0.0,0.0,0.0,0.0,0.0,0.0,0.0,0.0,0.0,0.0,0.0,0.0,0.0,0.0,0.0,0.0,0.0,0.0,0.0,0.0,0.0,0.0,0.0,0.0,0.0,0.0,0.0,0.0,0.0,0.0,0.0,0.0,0.0,0.0,0.0,0.0,0.0,0.0,0.0,0.0,0.0,0.0,0.0,0.0,0.0,0.0,0.0,0.0,0.0,0.0,0.0,0.0,0.0,0.0,0.0,0.0,0.0,0.0,0.0,0.0,2.0692,2.1799,2.2903,2.3744,2.5537,2.7511,2.955,3.147,3.3373,3.5329,0.0,0.0,0.0,0.0,0.0,0.0,0.0,0.0,0.0,0.0,0.0,0.0,0.0,0.0,0.0,0.0,0.0,0.0,0.0,0.0,0.0,0.0,0.0,0.0,0.0,0.0,0.0,0.0,0.0,0.0,0.0,0.0,0.0,0.0,0.0,0.0,0.0,0.0,0.0,0.0,0.0,0.0,0.0,0.0,0.0,0.0,0.0,0.0,0.0,0.0,0.0,0.0,0.0,0.0,0.0,0.0,0.0,0.0,0.0,0.0,0.0,0.0,0.0,0.0,0.0,0.0,0.0,0.0,0.0,0.0,0.0,0.0,0.0,0.0,0.0,0.0,0.0,0.0,0.0,0.0,0.0,0.0,0.0,0.0,0.0,0.0,0.0,0.0,0.0,0.0,0.0,0.0,0.0,0.0,0.0,0.0,0.0,0.0,0.0,0.0,0.0,0.0,2.266,2.4031,2.4987,2.4944,2.6981,2.8913,3.038,3.1875,3.3643,3.5857,0.0,0.0,0.0,0.0,0.0,0.0,0.0,0.0,0.0,0.0,0.0,0.0,0.0,0.0,0.0,0.0,0.0,0.0,0.0,0.0,0.0,0.0,0.0,0.0,0.0,0.0,0.0,0.0,0.0,0.0,0.0,0.0,0.0,0.0,0.0,0.0,0.0,0.0,0.0,0.0,0.0,0.0,0.0,0.0,0.0,0.0,0.0,0.0,0.0,0.0,0.0,0.0,0.0,0.0,0.0,0.0,0.0,0.0,0.0,0.0,3.186,3.0971,0.0,0.0,0.0,0.0,0.0,0.0,0.0,0.0,0.0,0.0,0.0,0.0,0.0,0.0,0.0,0.0,0.0,0.0,0.0,0.0,0.0,0.0,0.0,0.0,0.0,0.0,0.0,0.0,0.0,0.0,0.0,0.0,0.0,0.0,0.0,0.0,0.0,0.0,0.0,0.0,2.6118,2.6467,2.6902,2.7437,2.8443,2.9667,3.1221,3.2658,3.3932,3.5066,3.6495,0.0,0.0,0.0,0.0,0.0,0.0,0.0,0.0,0.0,0.0,0.0,0.0,0.0,0.0,0.0,0.0,0.0,0.0,0.0,0.0,0.0,0.0,0.0,0.0,0.0,0.0,0.0,0.0,0.0,0.0,0.0,0.0,0.0,0.0,0.0,0.0,0.0,0.0,0.0,0.0,0.0,0.0,0.0,0.0,0.0,0.0,0.0,0.0,0.0,0.0,0.0,0.0,0.0,0.0,0.0,0.0,0.0,0.0,0.0,3.4304,3.3268,0.0,0.0,0.0,0.0,0.0,0.0,0.0,0.0,0.0,0.0,0.0,0.0,0.0,0.0,0.0,0.0,0.0,0.0,0.0,0.0,0.0,0.0,0.0,0.0,0.0,0.0,0.0,0.0,0.0,0.0,0.0,0.0,0.0,0.0,0.0,0.0,0.0,0.0,0.0,0.0,2.7303,2.7633,2.8173,2.8849,2.9516,3.0542,3.2071,3.2755,3.3611,3.4775,3.5442,0.0,0.0,0.0,0.0,0.0,0.0,0.0,0.0,0.0,0.0,0.0,0.0,0.0,0.0,0.0,0.0,0.0,0.0,0.0,0.0,0.0,0.0,0.0,0.0,0.0,0.0,0.0,0.0,0.0,0.0,0.0,0.0,0.0,0.0,0.0,0.0,0.0,0.0,0.0,0.0,0.0,0.0,0.0,0.0,0.0,0.0,0.0,0.0,0.0,0.0,0.0,0.0,0.0,3.442,3.412,3.4761,3.5979,3.7466,3.8948,3.697,3.6103,3.5976,3.4806,0.0,0.0,0.0,0.0,0.0,0.0,0.0,0.0,0.0,0.0,0.0,0.0,0.0,0.0,0.0,0.0,0.0,0.0,0.0,0.0,0.0,0.0,4.2288,4.1673,4.1464,4.0742,3.8385,0.0,0.0,0.0,0.0,0.0,0.0,0.0,0.0,0.0,0.0,0.0,2.8031,2.8474,2.9053,2.9514,3.016,3.1062,3.2268,3.2326,3.2789,3.4069,3.3958,3.379,0.0,0.0,0.0,0.0,0.0,0.0,0.0,0.0,0.0,0.0,0.0,0.0,0.0,0.0,0.0,0.0,0.0,0.0,0.0,0.0,0.0,0.0,0.0,0.0,0.0,0.0,0.0,0.0,0.0,0.0,0.0,0.0,4.3286,4.208,0.0,0.0,0.0,0.0,0.0,0.0,0.0,0.0,0.0,0.0,0.0,0.0,0.0,4.8834,4.6401,4.4964,4.2669,3.9583,3.9632,3.9482,3.9164,4.0008,4.093,4.1896,4.1324,0.0,3.7755,3.7872,0.0,0.0,0.0,0.0,0.0,0.0,0.0,0.0,0.0,0.0,0.0,0.0,0.0,0.0,0.0,0.0,0.0,0.0,0.0,0.0,0.0,0.0,4.4435,4.4185,4.3486,4.2704,4.202,3.9948,3.7875,3.6644,3.6571,3.6054,0.0,0.0,0.0,0.0,0.0,0.0,3.0527,2.9945,2.9542,2.954,3.0071,3.0459,3.0636,3.1076,3.1445,3.1583,3.1412,3.1224,3.1005,3.0838,0.0,0.0,0.0,0.0,0.0,0.0,0.0,0.0,0.0,0.0,0.0,0.0,0.0,0.0,0.0,0.0,0.0,0.0,0.0,0.0,0.0,0.0,0.0,0.0,0.0,0.0,0.0,0.0,0.0,4.5126,4.4659,4.3946,4.4322,4.4524,0.0,0.0,0.0,0.0,0.0,0.0,0.0,0.0,0.0,5.0297,5.0798,5.036,4.8792,4.7369,4.5558,4.3404,4.2983,4.2535,4.2109,4.2987,4.3696,4.4226,4.4396,4.3359,4.142,4.0132,3.9105,3.8248,0.0,0.0,0.0,0.0,3.83,3.8524,3.9457,3.9697,3.9694,4.0776,0.0,0.0,0.0,0.0,0.0,0.0,0.0,4.6019,4.5912,4.6012,4.6095,4.5916,4.5522,4.5012,4.4392,4.3047,4.1343,3.9367,3.8756,3.8167,3.6895,0.0,0.0,0.0,0.0,3.2335,3.1908,3.1078,3.0676,3.1026,3.0771,3.0739,3.112,3.1274,3.132,3.1164,3.05,2.9819,2.9062,2.8432,2.7772,0.0,0.0,0.0,0.0,0.0,0.0,0.0,0.0,0.0,0.0,0.0,0.0,0.0,0.0,0.0,0.0,0.0,0.0,0.0,0.0,0.0,0.0,0.0,0.0,0.0,0.0,0.0,0.0,4.6089,4.5883,4.5504,4.58,4.5932,0.0,0.0,0.0,0.0,0.0,0.0,4.8837,5.0014,5.0656,5.0717,5.1565,5.1579,5.0495,4.905,4.7688,4.6428,4.5514,4.4913,4.4576,4.5375,4.5852,4.606,4.6313,4.5831,4.4743,4.2418,4.1144,4.0619,4.0203,4.0477,4.1144,4.115,4.1241,4.1462,4.2126,4.2472,4.2699,4.3031,4.3824,4.4692,4.5046,0.0,0.0,0.0,0.0,4.7456,4.7304,4.7487,4.7695,4.7517,4.7095,4.6544,4.6011,4.5126,4.3804,4.1635,4.0789,4.0142,3.9235,0.0,0.0,3.5313,3.4491,3.3711,3.2893,3.2053,3.1651,3.1921,3.1389,3.099,3.0883,3.0889,3.0625,3.0063,2.9011,2.8017,2.7151,2.6128,2.5185,2.4328,0.0,0.0,0.0,0.0,0.0,0.0,0.0,0.0,0.0,0.0,0.0,0.0,0.0,0.0,0.0,0.0,0.0,0.0,0.0,0.0,0.0,0.0,0.0,0.0,0.0,0.0,0.0,0.0,0.0,4.6001,4.7305,0.0,0.0,0.0,0.0,4.7811,4.8587,4.9253,4.9644,5.0931,5.1687,5.1811,5.2598,5.2215,5.0519,5.0039,4.9257,4.8164,4.761,4.717,4.683,4.7096,4.7252,4.7285,4.6669,4.6596,4.6828,4.5082,4.336,4.1766,4.1954,4.2159,4.2364,4.2815,4.3089,4.3394,4.4185,4.3716,4.3088,4.4869,4.5601,4.5966,4.6875,4.7184,0.0,0.0,4.906,4.8993,4.9408,4.946,4.9333,4.9123,4.7852,4.6669,4.6647,4.5341,4.3818,0.0,4.2336,4.1718,3.9642,0.0,3.8538,3.645,3.5401,3.4529,3.3742,3.2872,3.2014,3.1148,3.1584,3.0974,2.8574,2.8889,2.8552,2.6932,2.5816,2.5131,2.4944,2.3933,2.3142,2.2731,2.2479,0.0,0.0,0.0,0.0,0.0,0.0,0.0,0.0,0.0,0.0,0.0,0.0,0.0,0.0,0.0,0.0,0.0,0.0,0.0,0.0,0.0,0.0,0.0,0.0,0.0,0.0,0.0,0.0,4.7484,4.8074,0.0,4.835,4.9181,4.9826,5.0094,5.0912,5.1577,5.2036,5.2768,5.3207,5.3258,5.3508,5.3401,5.2779,5.1541,5.0696,5.0232,4.9237,4.8585,4.8305,4.8773,4.8937,4.8877,4.8958,4.8832,4.8556,4.7417,4.601,4.4587,4.476,4.5143,4.5649,4.6135,4.6494,4.68,4.7068,4.6891,4.6636,4.7367,4.8002,4.8585,4.8882,4.9321,4.9885,5.0808,5.0873,5.0887,5.1485,5.1161,5.0605,5.0468,4.9556,4.8636,4.8108,4.7466,4.6609,4.5129,4.3451,4.201,4.1292,3.9984,3.8758,3.7983,3.6739,3.5769,3.5464,3.4203,3.2955,3.2012,3.1534,3.0507,2.8493,2.8443,2.7773,2.5996,2.4923,2.3991,2.3158,2.2129,2.1231,2.0475,2.0671,2.0532,0.0,0.0,0.0,0.0,0.0,0.0,0.0,0.0,0.0,0.0,0.0,0.0,0.0,0.0,0.0,0.0,0.0,0.0,0.0,0.0,0.0,0.0,0.0,0.0,0.0,4.9047,4.9253,4.8386,4.8891,4.9387,4.9635,5.0474,5.1229,5.1749,5.2498,5.3085,5.3387,5.3956,5.4207,5.4001,5.4251,5.4251,5.4001,5.2863,5.2119,5.1757,5.0867,5.015,4.9714,5.007,5.0137,5.008,5.0175,5.0064,4.9705,4.9008,4.8285,4.7534,4.6667,4.6772,4.7412,4.7847,4.823,4.853,4.8617,4.8632,4.8659,4.869,4.9489,5.0423,5.0363,5.0875,5.1574,5.194,5.1886,5.1831,5.2241,5.1853,5.1344,5.1253,5.039,4.9428,4.8897,4.8517,4.7871,4.6543,4.4764,4.3303,4.2822,4.1271,3.9906,3.9376,3.7917,3.6743,3.642,3.4873,3.3416,3.2464,3.1478,3.0114,2.8117,2.7849,2.6989,2.5188,2.3914,2.2752,2.1611,2.0331,1.9234,1.8236,1.9178,1.9486,1.9031,0.0,0.0,0.0,0.0,0.0,0.0,0.0,0.0,0.0,0.0,0.0,0.0,0.0,0.0,0.0,0.0,0.0,0.0,0.0,0.0,0.0,0.0,0.0,4.9653,4.9808,4.9729,4.8726,4.9955,5.0763,5.0522,5.2121,5.3011,5.2564,5.3232,5.3589,5.3457,5.4323,5.4587,5.4108,5.4822,5.4884,5.4073,5.3931,5.3487,5.2749,5.2413,5.1863,5.1158,5.0954,5.0865,5.0795,5.0189,5.0105,5.0311,4.99,5.0134,5.0371,4.7623,4.6885,4.7467,4.7761,4.8144,4.8515,4.8716,4.8783,4.8823,4.8826,4.9987,5.1355,5.1285,5.1763,5.2316,5.2197,5.2011,5.1879,5.1842,5.1706,5.1573,5.1561,5.0215,4.8985,4.8947,4.8274,4.7448,4.6637,4.6377,4.5771,4.4102,4.3123,4.2072,4.0548,3.8809,0.0,3.6552,3.4911,3.3428,3.2402,3.1468,2.9908,2.7306,2.6972,2.6107,2.4275,2.2693,2.1376,2.0345,1.8652,1.7274,1.6229,1.808,1.9407,2.0105,0.0,0.0,0.0,0.0,0.0,0.0,0.0,0.0,0.0,0.0,0.0,0.0,0.0,0.0,0.0,0.0,0.0,0.0,0.0,0.0,0.0,5.2711,5.2754,5.1067,5.1601,5.2029,5.159,5.1688,5.2005,5.2547,5.2824,5.3078,5.3345,5.4118,5.4695,5.4899,5.5483,5.5798,5.574,5.5955,5.5955,5.574,5.5116,5.4724,5.451,5.3718,5.3016,5.241,5.2218,5.1873,5.147,5.1383,5.1461,5.1586,5.1226,5.128,5.1454,4.975,4.9391,4.9792,4.9628,4.9874,5.0293,5.0407,5.0895,5.1463,5.1466,5.2185,5.303,5.2918,5.3021,5.3236,5.3639,5.3692,5.3739,5.425,5.3886,5.3238,5.2589,5.1622,5.0682,5.0033,4.9739,4.932,4.8518,4.8342,4.7354,4.4358,4.2713,4.1657,4.1246,3.9193,0.0,3.7308,3.5723,3.397,3.2383,3.1937,3.047,2.7316,2.6963,2.5949,2.3744,2.2571,2.1544,2.0683,1.9514,1.8664,1.8192,1.8699,1.9289,0.0,0.0,0.0,0.0,0.0,0.0,0.0,0.0,0.0,0.0,0.0,0.0,0.0,0.0,0.0,0.0,0.0,0.0,0.0,0.0,0.0,0.0,5.3926,5.4013,5.3184,5.3216,5.32,5.2973,5.2877,5.2949,5.3361,5.3732,5.409,5.4393,5.5285,5.6055,5.6634,5.6927,5.7157,5.7354,5.7061,5.6882,5.6882,5.6097,5.5526,5.5205,5.4715,5.4125,5.3488,5.307,5.2727,5.2447,5.2197,5.2198,5.2361,5.2229,5.2375,5.2557,0.0,0.0,0.0,0.0,5.0856,5.0952,5.1399,5.1928,5.2424,5.2786,5.3468,5.4162,5.4018,5.3986,5.4018,5.4331,5.4331,5.4396,5.4788,5.4498,5.3951,5.3454,5.2461,5.1467,5.1006,5.0574,5.0065,4.9247,4.9083,0.0,4.5453,4.392,4.2842,4.2135,4.0177,3.8585,3.8156,3.6217,3.4443,3.334,3.2177,3.057,2.8241,2.7391,0.0,0.0,0.0,2.1913,2.041,1.9113,0.0,0.0,0.0,2.0122,2.0854,2.3442,0.0,0.0,2.7216,2.8362,0.0,0.0,0.0,0.0,0.0,0.0,0.0,0.0,0.0,0.0,0.0,0.0,0.0,0.0,0.0,0.0,5.5254,5.5278,5.545,5.4712,5.3978,5.3635,5.374,5.376,5.3732,5.4745,5.5448,5.5511,5.6455,5.7381,5.8249,5.8278,0.0,0.0,0.0,5.7624,5.7624,5.6839,5.6053,5.5375,5.5472,5.5157,5.443,5.3864,5.3627,5.3628,5.2857,5.2681,5.2996,5.3127,5.3429,5.3643,5.2268,5.1903,5.2137,5.1962,5.1575,5.1241,5.2142,0.0,0.0,5.3639,5.4483,5.5186,5.5127,5.5064,5.4979,5.4818,5.4671,5.4568,5.4508,5.437,5.4218,5.4104,5.2957,5.1861,5.1844,5.1082,5.0256,4.951,4.9285,4.8678,4.6959,4.5889,4.4763,4.3159,4.1361,3.9909,3.9023,3.6757,3.5045,3.4653,0.0,0.0,2.9605,2.8063,2.6757,2.5893,2.4271,2.2284,1.9989,1.8453,1.7999,1.8773,2.0293,2.1544,2.2382,2.545,2.686,2.6673,2.7063,2.799,0.0,0.0,0.0,0.0,0.0,0.0,0.0,0.0,0.0,0.0,0.0,0.0,0.0,0.0,0.0,5.5149,5.5534,5.5927,5.5966,5.6319,5.6278,5.564,5.5214,5.5132,5.5599,5.5669,5.5824,5.6266,5.6898,5.7479,5.8033,5.8183,5.842,5.8709,5.7989,5.7624,5.7624,5.6912,5.6501,5.6358,5.6455,0.0,5.5501,5.5507,5.5196,5.4664,5.4096,5.3946,5.4099,5.4312,5.4603,5.4857,5.3478,5.2733,5.2413,5.2501,5.2989,5.364,5.3836,5.4832,5.6107,5.6271,5.6956,5.7699,5.7559,5.7516,0.0,5.7337,5.6804,5.6243,5.6167,5.5645,5.4982,5.4256,5.3836,5.3416,5.2752,5.1938,5.1314,5.1135,5.055,4.9519,4.7826,4.6309,4.4923,4.385,4.1663,4.004,3.9799,3.8102,3.635,3.484,3.36,3.1962,2.9785,2.8652,2.7486,2.6193,2.4049,2.2339,2.1218,2.0241,1.9754,1.9903,2.152,2.2762,2.3595,2.6161,2.7684,2.8264,2.9466,3.0419,0.0,0.0,0.0,0.0,0.0,0.0,0.0,0.0,0.0,0.0,0.0,5.6987,5.6507,0.0,5.6847,5.585,5.6725,5.7397,5.7153,5.7833,5.7899,5.6573,5.6486,5.6492,5.6359,5.6727,5.7018,5.719,5.8,5.8695,5.9289,5.938,5.9591,5.9886,5.8774,5.8167,5.8167,5.7127,5.66,5.66,5.6776,5.6717,5.6371,5.6199,5.5946,5.5665,5.5071,5.4906,5.518,5.5434,5.5693,5.5903,5.5275,5.4204,5.3077,5.3677,5.4028,5.4314,5.5181,5.6107,5.6955,5.7417,5.7862,5.8231,5.8162,5.815,5.8115,5.803,5.7685,5.7328,5.7263,5.6931,5.6434,5.5556,5.5059,5.4524,5.3682,5.2829,5.2091,5.1729,5.1273,5.0397,4.875,4.7401,4.5955,4.4194,4.2484,4.1213,4.0733,3.915,3.7551,3.6182,3.4922,3.3297,3.1186,2.9133,2.7494,2.6365,2.4464,2.3219,2.2832,2.2049,2.1645,2.1613,2.2836,2.3663,2.4062,2.6507,2.7873,2.8266,3.0545,3.1629,0.0,0.0,0.0,0.0,0.0,0.0,0.0,5.8991,5.8798,5.9468,5.9108,5.8646,5.8395,5.854,5.8231,5.6869,5.7959,5.8754,5.8147,5.9048,5.912,5.7515,5.7703,5.7658,5.7049,5.7717,5.8182,5.8184,5.9072,5.9881,6.0516,6.0578,6.0732,6.1034,5.9672,5.8923,5.8923,5.7548,5.6868,5.6868,5.7015,5.7036,5.7036,5.666,5.6539,5.6598,5.6003,5.5882,5.6182,5.6489,5.6722,5.6837,5.7003,5.5898,5.4276,5.5198,5.5344,5.5237,5.6665,5.7302,5.7646,5.8323,5.8566,5.8578,5.8553,5.8553,5.854,5.8489,5.8335,5.8156,5.8129,5.7987,5.7682,5.7008,5.6371,5.5696,5.4854,5.3974,5.3106,5.2334,5.1905,5.117,4.962,4.8668,4.7248,4.4857,4.3604,4.2609,4.1681,4.0241,3.8907,3.7831,3.6207,3.4414,3.2391,2.9694,2.7695,2.6715,2.5375,2.4443,2.4111,2.3575,2.3179,2.2997,2.4003,2.461,2.4698,2.7193,2.8433,2.8558,3.1401,3.2505,5.4031,5.666,5.9278,6.0346,6.098,6.1744,0.0,6.264,6.2002,6.2347,6.2217,6.1704,6.051,6.0165,5.9525,5.7906,5.8528,5.8912,5.8186,5.9482,6.0287,5.9793,5.8883,5.8404,5.8721,5.84,5.8457,5.9079,5.9418,5.9851,6.0396,6.0552,6.0671,6.0848,6.0149,5.9773,5.9773,5.8482,5.7828,5.7828,5.7397,5.7163,5.7188,5.7364,5.7473,5.7424,5.7059,5.7011,5.7159,5.7384,5.7543,5.7696,5.7884,5.7409,5.6627,5.7002,5.7703,5.8477,5.8668,5.9338,6.0097,6.0119,6.0212,6.0291,6.0171,6.013,6.013,6.0116,5.9483,5.884,5.8953,5.8328,5.7728,5.7758,5.7748,5.7468,5.6537,5.5733,5.4951,5.4073,5.2755,5.1486,5.0489,4.9608,4.8388,4.6511,4.4857,4.3558,4.2659,4.1743,4.0597,3.8993,3.7313,3.5029,3.1888,3.0618,2.9326,2.7747,2.6853,2.5754,2.425,2.4183,2.3782,2.3003,2.4555,2.5758,2.6495,2.9072,3.0651,3.1388,3.3102,3.3699,5.6795,5.9464,6.1767,6.2277,6.304,6.3863,6.4564,6.4044,6.3442,6.3572,6.3162,6.2464,6.1332,6.1217,6.0698,5.8906,5.9877,6.0504,5.9683,6.0763,6.1442,6.0854,6.0367,6.0106,6.0044,5.9923,6.0041,6.0601,6.039,6.0513,6.1192,6.0826,6.0732,6.0974,6.0279,5.9916,5.9916,5.9008,5.8636,5.8682,5.8067,5.7836,5.7876,5.768,5.7715,5.7821,5.7833,5.7898,5.7962,5.8256,5.84,5.8518,5.8653,5.8633,5.8417,5.8131,5.8347,5.8829,5.9384,5.9892,6.0285,6.0241,6.0285,6.0313,6.0256,6.0241,6.0241,6.0241,5.9998,5.9716,5.9789,5.955,5.9158,5.8713,5.8666,5.8336,5.6971,5.6459,5.5868,5.4576,5.3349,5.2237,5.1387,5.011,4.8966,4.8255,4.6281,4.4576,4.3685,4.2422,4.0976,3.9252,3.7092,3.5216,3.3829,3.207,3.0573,2.9379,2.8569,2.7618,2.645,2.6451,2.628,2.598,2.6653,2.7422,2.8253,2.9812,3.1255,3.2612,3.4236,3.5364,5.9681,6.1763,6.3422,6.4041,6.4959,6.5698,6.598,6.551,6.5022,6.4916,6.43,6.346,6.2404,6.2324,6.1789,5.9877,6.0918,6.1688,6.0824,6.1711,6.2217,6.1748,6.168,6.1635,6.1502,6.1133,6.111,6.1571,6.105,6.1002,6.1619,6.0941,6.0671,6.0944,6.0434,6.0149,6.0149,5.9388,5.9056,5.9185,5.8276,5.7929,5.8058,5.7753,5.7739,5.7973,5.8282,5.8393,5.8415,5.8735,5.9031,5.9318,5.9397,5.9702,6.0003,5.9581,5.919,5.9019,5.9722,6.0181,6.0449,6.0449,6.0449,6.0464,6.038,6.0228,6.0068,6.0068,6.0122,6.0205,6.0264,6.0323,6.0161,5.9592,5.9507,5.9153,5.7698,5.7263,5.6759,5.5374,5.4172,5.3251,5.2641,5.1121,4.9872,4.969,4.7914,4.61,4.4757,4.2896,4.1123,3.9627,3.7608,3.6051,3.5369,3.3667,3.2083,3.0759,3.0396,2.9599,2.8377,2.8766,2.8836,2.8427,2.8873,2.9411,2.9997,3.1361,3.2624,3.387,3.5543,3.7179,6.2141,6.3101,6.4081,6.5807,6.6558,6.702,6.7838,6.7716,6.7375,6.6989,6.6413,6.561,6.4277,6.3713,6.2837,6.0885,6.1373,6.1761,6.1088,6.179,6.2459,6.2654,6.2654,6.2813,6.3158,6.171,6.093,6.1535,6.1016,6.0834,6.1198,6.0688,6.0489,6.0609,6.0691,6.0747,6.0747,5.9581,5.9056,5.9158,5.7736,5.7098,5.725,5.7498,5.7691,5.7834,5.8238,5.8393,5.8415,5.8593,5.9243,6.0091,6.0091,6.0662,6.1537,6.1655,6.0847,5.9677,5.9869,6.0481,6.1267,6.1267,6.133,6.1324,6.1126,6.0557,5.9975,5.9975,5.9966,5.9966,6.0235,6.0197,6.0144,6.0304,6.0387,6.0212,5.9344,5.8591,5.7881,5.7009,5.5544,5.4434,5.4434,5.2962,5.1518,5.0699,4.9817,4.8394,4.5893,4.3282,4.1366,4.0559,3.9558,3.7983,3.5522,3.5216,3.4098,3.1604,3.2248,3.161,2.9154,3.0733,3.093,2.9284,3.0844,3.171,3.1715,3.4298,3.5553,3.5664,3.7345,3.9036,6.3075,6.4114,6.5214,6.5698,6.6638,6.746,6.7657,6.7796,6.782,6.7445,6.6637,6.5681,6.485,6.4064,6.3243,6.2154,6.2251,6.2318,6.1964,6.2324,6.2407,6.1854,6.2343,6.2395,6.1673,6.209,6.2621,6.3094,6.2092,6.1636,6.2005,6.097,6.0458,6.0578,6.0727,6.0782,6.0782,5.9993,5.9724,5.9977,5.914,5.8528,5.8137,5.8287,5.8203,5.7834,5.8238,5.8393,5.8452,5.9271,5.9827,6.0166,6.0808,6.1243,6.1548,6.1569,6.1312,6.0923,6.1258,6.1571,6.1815,6.1815,6.185,6.185,6.1798,6.1623,6.1351,6.0821,6.0736,6.0719,6.0228,6.0152,6.0264,6.0323,6.0422,6.025,5.9408,5.9089,5.8573,5.719,5.6044,5.5115,5.4534,5.3486,5.2207,5.0814,4.8874,4.7117,4.5695,4.4267,4.3041,4.2197,4.0746,3.9515,3.8699,3.753,3.6252,3.4894,3.5109,3.4434,3.2571,3.3082,3.2899,3.1829,3.2396,3.3223,3.4389,3.5289,3.6571,3.8235,3.9391,4.0507,6.442,6.5104,6.59,6.6431,6.7191,6.7914,6.8242,6.8274,6.8195,6.8109,6.7129,6.6039,6.5329,6.4546,6.3761,6.303,6.2847,6.277,6.2615,6.2731,6.26,6.197,6.2459,6.251,6.1708,6.2719,6.3319,6.2986,6.2508,6.2092,6.1905,6.1055,6.0614,6.0578,6.0666,6.0757,6.0782,5.9935,5.9459,5.949,5.9511,5.9299,5.887,5.9049,5.8969,5.8604,5.897,5.913,5.9235,6.0061,6.0598,6.0896,6.1582,6.2018,6.2321,6.2321,6.2384,6.2375,6.2108,6.2165,6.241,6.2522,6.254,6.2503,6.2503,6.2369,6.208,6.1518,6.1506,6.156,6.0991,6.1004,6.105,6.0775,6.08,6.0682,5.9854,5.9473,5.8999,5.7949,5.6871,5.5934,5.5351,5.4292,5.313,5.2077,4.9942,4.7938,4.658,4.5611,4.4835,4.4288,4.2584,4.1437,4.117,3.9795,3.8518,3.7415,3.7411,3.6703,3.5105,3.5391,3.5213,3.4453,3.472,3.5444,3.6576,3.6909,3.7887,3.9518,4.0712,4.1718,6.6156,6.6062,6.6248,6.7746,6.8064,6.8289,6.9425,6.902,6.8505,6.8884,6.787,6.6707,6.5793,6.5148,6.4462,6.3514,6.3186,6.3072,6.3038,6.3038,6.3038,6.3,6.3038,6.3114,6.323,6.3454,6.2944,6.1427,6.2192,6.2231,6.1109,6.1002,6.0882,6.0614,6.0578,6.0671,6.0782,5.9436,5.8473,5.7953,5.8979,5.9439,5.9475,5.9704,5.9874,6.0015,6.0262,6.0491,6.0609,6.0936,6.1493,6.2197,6.2383,6.2978,6.3758,6.3758,6.391,6.3876,6.2403,6.2425,6.3102,6.3295,6.337,6.3352,6.3257,6.2804,6.2271,6.209,6.2236,6.2446,6.2408,6.2504,6.2436,6.166,6.1558,6.1378,6.0657,5.9867,5.9268,5.9281,5.7952,5.6841,5.6841,5.5463,5.4341,5.435,5.2839,5.0876,4.848,4.7336,4.6727,4.6727,4.5093,4.3694,4.2886,4.2023,4.0832,3.9214,3.9229,3.8533,3.6857,3.7655,3.7752,3.6863,3.7674,3.8177,3.8324,3.9158,3.9613,3.9735,4.1433,4.2634,6.7037,6.6975,6.725,6.7429,6.7687,6.7933,6.8058,6.8263,6.8359,6.8208,6.7401,6.6629,6.6074,6.5759,6.523,6.407,6.4122,6.4033,6.3296,6.3227,6.3152,6.3038,6.3114,6.3021,6.2547,6.303,6.2835,6.1639,6.2404,6.2579,6.1708,6.125,6.0849,6.0458,6.0547,6.0671,6.0782,6.0123,5.9659,5.9529,5.9949,6.0195,6.0305,6.0494,6.0264,5.9863,6.0213,6.0443,6.0528,6.1389,6.1874,6.2133,6.2748,6.3211,6.3511,6.3511,6.3602,6.3683,6.3382,6.3593,6.3966,6.4006,6.4026,6.4026,6.4006,6.3934,6.3729,6.3144,6.3084,6.3096,6.2559,6.2504,6.242,6.1599,6.1529,6.1363,6.0589,6.0286,5.9969,5.9278,5.827,5.7557,5.7557,5.6665,5.5785,5.5135,5.4117,5.2742,5.0971,4.9395,4.8471,4.8471,4.6843,4.5464,4.4683,4.3754,4.2802,4.1868,4.18,4.1112,3.9583,3.9682,3.9146,3.7711,3.7917,3.8684,4.0063,4.0269,4.1068,4.237,4.3447,4.4066,6.8987,6.8772,6.8696,6.8027,6.7913,6.7855,6.7554,6.7438,6.739,6.7489,6.6787,6.6086,6.5819,6.5546,6.5093,6.4358,6.4349,6.4267,6.3632,6.3563,6.3489,6.3302,6.3377,6.3242,6.283,6.3248,6.3291,6.268,6.3098,6.2996,6.209,6.1669,6.1307,6.0893,6.0693,6.0524,6.041,6.048,6.0353,6.0024,6.0526,6.0883,6.1052,6.119,6.11,6.0877,6.1073,6.1249,6.141,6.2083,6.2387,6.2509,6.3392,6.382,6.3975,6.4308,6.435,6.4249,6.4316,6.4273,6.4224,6.4224,6.4224,6.4299,6.4697,6.4627,6.4405,6.4292,6.4143,6.3913,6.3477,6.3554,6.3508,6.2677,6.2574,6.2413,6.1529,6.1406,6.1039,5.9774,5.8859,5.8287,5.8287,5.76,5.6889,5.642,5.5603,5.4598,5.3378,5.1761,5.0565,5.0245,4.8903,4.7773,4.7035,4.5764,4.4707,4.3972,4.3599,4.2871,4.1635,4.1588,4.116,4.0269,4.0268,4.0759,4.1752,4.1801,4.2517,4.3838,4.471,4.5336,7.1018,7.0506,6.9925,6.888,6.8239,6.78,6.7472,6.671,6.62,6.6757,6.6171,6.551,6.5382,6.5152,6.4846,6.4533,6.4427,6.4284,6.3999,6.3892,6.3783,6.3673,6.3637,6.36,6.36,6.3747,6.3891,6.3963,6.3963,6.3482,6.2402,6.2296,6.201,6.1527,6.0941,6.0413,6.0029,6.0707,6.0707,6.0094,6.089,6.1386,6.1595,6.17,6.1895,6.2168,6.2158,6.2344,6.2578,6.2705,6.2928,6.3235,6.4058,6.4511,6.4816,6.5495,6.5477,6.5113,6.5113,6.4762,6.4358,6.4287,6.4271,6.4462,6.537,6.5133,6.4704,6.5339,6.5104,6.4652,6.4634,6.4888,6.4921,6.4018,6.3905,6.3718,6.2801,6.2579,6.2145,6.0646,5.9809,5.933,5.9216,5.8471,5.7891,5.7849,5.7006,5.6116,5.5423,5.3912,5.2641,5.1978,5.0987,5.0071,4.9328,4.775,4.6522,4.5791,4.5141,4.4353,4.338,4.3368,4.3308,4.3085,4.3273,4.3374,4.3427,4.3687,4.4225,4.5046,4.5793,4.6542,7.0733,6.9855,6.9236,6.8278,6.7707,6.7258,6.6974,6.665,0.0,6.6231,6.603,6.5863,6.574,6.6043,6.6059,6.5051,6.5163,6.509,6.4249,6.3856,6.371,6.382,6.371,6.36,6.36,6.3637,6.3783,6.4109,6.4144,6.3833,6.3135,6.31,6.2606,6.1527,6.0941,6.063,6.0635,6.0777,6.0867,6.0879,6.1051,6.1211,6.1357,6.153,6.17,6.1868,6.2078,6.2265,6.2459,6.2578,6.3133,6.392,6.4092,6.4646,6.536,6.5508,6.5583,6.5652,6.5652,6.571,6.5672,6.5309,6.5195,6.5428,6.6312,6.5995,6.5376,6.5607,6.5102,6.4482,6.4652,6.4835,6.4769,6.3985,6.3856,6.3692,6.2801,6.252,6.2328,6.1902,6.1733,6.141,6.0811,6.008,5.9345,5.873,5.7308,5.6282,5.6145,5.4721,5.3734,5.3595,5.2221,5.0937,5.0168,4.9155,4.8285,4.7604,4.7364,4.6637,4.5192,4.5044,4.4391,4.3124,4.3761,4.4496,4.5248,4.6005,4.6816,4.7727,4.7956,4.8072,7.228,7.1317,7.0375,6.9228,6.8384,6.7635,6.6829,0.0,0.0,6.6083,6.5699,6.535,6.5134,6.497,6.4741,6.4413,6.4528,6.4567,6.4323,6.4145,6.3966,6.3927,6.3783,6.371,6.36,6.36,6.371,6.4001,6.4109,6.4147,6.4008,6.3657,6.3056,6.2126,6.1835,6.1573,6.1335,6.1361,6.1275,6.0938,6.1064,6.1182,6.1328,6.1933,6.204,6.182,6.2467,6.2558,6.2328,6.2887,6.3455,6.4024,6.4982,6.5673,6.6169,6.6574,6.6591,6.6396,6.6445,6.6306,6.6077,6.6404,6.626,6.6143,6.7032,6.6458,6.5598,6.6111,6.5382,6.4424,6.4521,6.467,6.4704,6.4325,6.4229,6.4151,6.3734,6.3247,6.2856,6.2764,6.2424,6.2047,6.1684,6.098,6.0215,5.9463,5.8271,5.7187,5.6405,5.5627,5.4898,5.4103,5.3302,5.2348,5.1073,5.0206,4.94,4.8607,4.8189,4.7626,4.6896,4.6839,4.6464,4.574,4.6124,4.6544,4.7006,4.7896,4.8825,4.9714,5.0179,5.0658,7.3615,7.2592,7.1484,7.0073,6.9088,6.8138,6.6901,6.6602,0.0,6.5925,6.5397,6.4808,6.4349,6.3721,6.3385,6.3874,6.3849,6.3964,6.4462,6.4428,6.4252,6.3999,6.3927,6.382,6.3637,6.3637,6.371,6.3891,6.4109,6.4393,6.4672,6.4004,6.3369,6.2904,6.2728,6.2367,6.175,6.184,6.1508,6.0782,6.0938,6.1123,6.127,6.2263,6.2443,6.2045,6.2855,6.303,6.2767,6.3338,6.3846,6.4417,6.5856,6.6612,6.6938,6.7589,6.7546,6.7121,6.7222,6.6938,6.6601,6.7425,6.7216,6.6814,6.7785,6.7107,6.6083,6.665,6.5735,6.4592,6.4423,6.4521,6.4633,6.4615,6.4596,6.4596,6.4577,6.403,6.3521,6.3502,6.3013,6.2523,6.2353,6.1805,6.1143,6.0467,5.9446,5.8327,5.7165,5.677,5.6045,5.4648,5.4256,5.3531,5.2207,5.1365,5.0608,4.9953,4.9378,4.8979,4.8797,4.8875,4.8827,4.8644,4.8874,4.8988,4.9015,4.9942,5.0756,5.146,5.2166,5.284,7.2993,7.2106,7.1266,6.9431,6.8834,6.8345,6.723,0.0,6.6656,6.5574,6.5208,6.4806,6.3943,6.3576,6.3601,6.423,6.4049,6.4064,6.4839,6.4533,6.4216,6.4179,6.4036,6.382,6.3637,6.3747,6.3891,6.3927,6.4181,6.4463,6.4672,6.4004,6.3547,6.3511,6.2808,6.2136,6.1524,6.1556,6.129,6.0782,6.0848,6.0938,6.1159,6.2234,6.2673,6.263,6.3016,6.3646,6.433,6.3675,6.4339,6.5825,6.6135,6.6728,6.7451,6.7623,6.7784,6.7815,6.7841,6.7922,6.8087,6.8222,6.7871,6.7673,6.8608,6.8278,6.7498,6.6967,6.6145,6.5264,6.4554,6.4405,6.4444,6.4577,6.4596,6.4577,6.4424,6.4367,6.4273,6.4231,6.4136,6.3893,6.3219,6.305,6.2749,6.203,6.0591,5.9564,5.9375,5.8211,5.708,5.6255,5.4822,5.3897,5.3811,5.2984,5.25,5.2544,5.2479,5.2131,5.1382,5.1431,5.1118,5.0392,5.1132,5.1567,5.1664,5.253,5.3047,5.3159,5.3318,5.3412,7.3267,7.2455,7.1568,7.0477,6.9465,6.8519,6.7877,0.0,6.6707,6.5678,6.4901,6.4118,6.3149,6.2463,6.2353,6.3515,0.0,0.0,6.4801,6.4388,6.4077,6.4288,6.4252,6.411,6.3965,6.4037,6.4109,6.4181,6.4252,6.4393,6.4672,6.4425,6.425,6.425,6.3969,6.323,6.2066,6.2226,6.1785,6.0666,6.0878,6.1034,6.1129,6.2618,6.3029,6.2664,6.3892,6.439,6.4339,6.4682,6.523,6.5969,6.6582,6.7002,6.7322,6.7524,6.7606,6.7687,6.7847,6.803,6.8208,6.8259,6.8185,6.8132,6.8749,6.8399,6.7776,6.7567,6.6537,6.5503,6.5691,6.5332,6.4865,6.4497,6.4423,6.4403,6.4364,6.4344,6.4344,6.4304,6.4284,6.4192,6.3931,6.348,6.3048,6.2805,6.1824,6.078,5.9811,5.9246,5.8432,5.7135,5.6074,5.5067,5.4064,5.3735,5.3531,5.3544,5.3656,5.3743,5.392,5.4005,5.3897,5.3607,5.3953,5.4171,5.4274,5.5152,5.5605,5.5663,5.625,5.6482,7.3205,7.2715,7.2002,7.1064,6.9941,6.8848,0.0,0.0,6.6707,6.5801,6.4737,6.371,6.2742,6.1807,6.1551,0.0,0.0,6.2648,6.4478,6.4201,6.3859,6.4043,6.4253,6.4253,6.3902,6.4041,6.4287,6.4463,6.4323,6.4393,6.4672,6.4672,6.4672,6.4672,6.4672,6.4074,6.274,6.2972,6.2499,6.1223,6.1285,6.133,6.1426,6.2993,6.3406,6.294,6.4596,6.5111,6.4852,6.5467,6.5872,6.6162,6.6879,6.7154,6.7154,6.7359,6.7442,6.7561,6.7714,6.7899,6.8081,6.8158,6.8208,6.8309,6.8674,6.845,6.8062,6.8034,6.6988,6.5991,6.6486,6.6165,6.5607,6.5086,6.479,6.466,6.466,6.4472,6.4284,6.4284,6.4284,6.4284,6.4284,6.3834,6.3478,6.3519,6.2918,6.2048,6.0894,6.0463,5.9712,5.8325,5.7581,5.6629,5.5181,5.5121,5.5147,5.5134,5.5199,5.5517,5.6116,5.6217,5.6266,5.6314,5.6337,5.6395,5.6494,5.7131,5.7443,5.7456,5.8114,5.8538,7.2385,7.2637,7.2521,7.0597,6.9998,6.9388,0.0,6.7019,6.6707,6.5801,6.486,6.3892,6.2882,6.1917,6.152,6.2194,0.0,0.0,6.3902,6.395,6.3684,6.3344,6.3974,6.4044,6.3066,6.3728,6.4322,6.4672,6.4533,6.4498,6.4672,6.4672,6.4672,6.4672,6.4672,6.4355,6.3583,6.3583,6.3297,6.2652,6.2104,6.1871,6.2027,6.3183,6.3693,6.3759,6.4812,6.5724,6.644,6.5859,6.6062,6.6786,6.6961,6.6983,6.7048,6.7154,6.7322,6.747,6.7497,6.7687,6.7926,6.7926,6.7967,6.8146,6.842,6.8589,6.8605,6.8141,6.7401,6.6742,6.6636,6.6678,6.6742,6.6598,6.6003,6.5486,6.5486,6.4847,6.4284,6.4284,6.4284,6.4284,6.4284,6.4284,6.4284,6.4304,6.3709,6.3276,6.3257,6.2001,6.079,6.0058,5.9315,5.8538,5.7625,5.7549,5.7658,5.7835,5.7742,5.7742,5.7886,5.7953,5.7953,5.7992,5.8055,5.8129,5.8189,5.817,5.8226,5.828,5.828,5.8785,7.1106,7.1246,7.1082,7.0303,6.9595,6.8905,6.8244,6.7526,6.6648,6.5322,6.4605,6.374,6.2341,6.1645,6.1729,6.3059,6.2658,0.0,6.4675,6.44,6.406,6.4216,6.4462,6.4463,6.4183,6.4288,6.4428,6.4672,6.4498,6.4463,6.4672,6.4672,6.4672,6.4672,6.4672,6.4355,6.3618,6.3684,6.3397,6.2687,6.2602,6.262,6.2844,6.3788,6.4238,6.4398,6.5489,6.6145,6.6361,6.6378,6.6895,6.7619,6.7679,6.8035,6.8463,6.8117,6.8078,6.8061,6.7735,6.7767,6.7973,6.8525,6.8815,6.9071,6.988,6.9458,6.8605,6.8119,6.8163,6.8082,6.7,6.7091,6.7369,6.685,6.6554,6.6387,6.6387,6.6182,6.6032,6.6032,6.5523,6.511,6.511,6.466,6.4284,6.4284,6.4178,6.386,6.337,6.2969,6.2449,6.1721,6.1527,6.0632,5.8652,5.8068,5.8314,5.9459,5.8977,5.8929,5.9568,5.9633,5.966,5.9714,5.974,5.9779,5.9843,5.983,5.9891,5.9996,5.9996,6.0536,0.0,7.0249,7.0246,6.9843,6.9238,0.0,0.0,6.7603,6.6705,6.545,6.469,6.3863,6.2506,6.1803,6.1709,6.2654,6.2534,6.2821,6.4312,6.4318,6.4364,6.4773,6.4494,6.439,6.4672,6.4602,6.4568,6.4672,6.4602,6.4568,6.4672,6.4672,6.4672,6.4672,6.4672,6.4495,6.4039,6.4106,6.396,6.3569,6.335,6.3338,6.3566,6.4159,6.4436,6.4599,6.573,6.6238,0.0,6.6933,6.7487,6.8054,6.8343,6.8742,6.9165,6.8895,6.8794,6.8807,6.8586,6.8632,6.8813,6.9328,6.961,6.9895,7.062,7.0066,6.9113,6.8518,6.8653,6.8803,6.7835,6.7947,6.8194,6.775,6.7455,6.7251,6.7251,6.7009,6.6821,6.6821,6.6087,6.5598,6.5936,6.5035,6.4397,6.4697,6.4592,6.4294,6.3861,6.365,6.3341,6.29,6.2694,6.2085,6.0898,6.0141,6.0199,6.1186,6.0728,6.0666,6.1282,6.1253,6.1282,6.1395,6.1367,6.1409,6.1504,6.1556,6.1608,6.167,6.1719,6.2071,0.0,6.953,6.9743,6.9135,6.887,6.855,6.7634,6.7314,0.0,6.5876,6.5008,6.4114,6.3213,6.2277,6.1566,6.1501,6.1962,6.2495,6.3124,6.3875,6.4528,6.4976,6.4245,6.3934,6.4636,6.4706,6.4672,6.4672,6.4672,6.4672,6.4672,6.4672,6.4672,6.4672,6.4672,6.4672,6.4672,6.4706,6.4809,6.4945,6.424,6.3988,6.4185,6.4379,6.4479,6.4579,6.5573,6.6115,6.6372,6.7317,6.783,6.8162,6.8959,6.9316,6.9352,6.946,6.9573,6.9719,6.9856,6.9998,7.011,7.0174,7.0413,7.0655,7.075,7.0487,7.0018,6.9271,6.9102,6.9132,6.9019,6.9117,6.9213,6.9027,6.8532,6.8055,6.8055,6.7455,6.695,6.695,6.6274,6.5936,6.6746,6.5544,6.4735,6.5486,6.514,6.4785,6.4785,6.4196,6.3772,6.3772,6.3116,6.3009,6.3905,6.326,6.2811,6.2902,6.2696,6.2642,6.2788,6.2696,6.2689,6.2877,6.2856,6.2862,6.3006,6.3142,6.3143,6.3115,6.3297,6.3435,6.7373,0.0,6.7862,6.7881,6.7845,6.7662,0.0,0.0,0.0,0.0,6.443,6.431,6.3456,6.2354,6.1954,6.3082,6.2701,6.2495,6.3124,6.3651,6.4266,6.511,6.477,6.4565,6.4911,6.4775,6.4672,6.4672,6.4672,6.4672,6.4672,6.4672,6.4672,6.4672,6.4672,6.4672,6.4672,6.4843,6.4912,6.4775,6.4735,6.4833,6.4999,6.5065,6.5229,6.5486,6.5855,6.6115,6.6372,6.7317,6.8186,6.8995,6.9792,7.0444,7.091,7.0599,7.0499,7.0449,7.0153,7.0082,7.0211,7.0947,7.1655,7.2079,7.1615,7.1179,7.0856,7.0765,7.0775,7.0588,7.0004,6.9841,6.9737,6.9079,6.878,6.869,6.869,6.8593,6.8488,6.8488,6.79,6.7476,6.7664,6.6875,6.6295,6.6483,6.6435,6.6404,6.6501,6.5861,6.5443,6.5515,6.4862,6.4512,6.4719,6.3454,6.2994,6.3817,6.307,6.2673,6.2862,6.2788,6.2788,6.2877,6.2862,6.2877,6.2921,6.3061,6.3129,6.3115,6.3911,6.4691,6.5721,6.6494,6.7238,6.7442,6.7524,6.7496,6.7136,0.0,0.0,0.0,6.4274,6.3975,6.3494,6.2811,6.2666,6.371,6.3364,6.3153,6.3752,6.3896,6.4299,6.5275,6.5046,6.4946,6.5115,6.498,6.4809,6.4809,6.474,6.4672,6.4672,6.4672,6.4672,6.4672,6.4672,6.4672,6.4672,6.4809,6.4843,6.4809,6.4843,6.5014,6.5316,6.5316,6.5447,6.5675,6.5832,6.6236,6.6787,6.7765,6.8713,6.97,7.0495,7.1106,7.149,7.121,7.1247,7.1325,7.1186,7.1154,7.1248,7.1773,7.2299,7.2576,7.1812,7.15,7.1315,7.107,7.1119,7.1104,7.067,7.0606,7.0565,7.0116,7.0004,6.9892,6.9533,6.9513,6.9492,6.908,6.8478,6.8114,6.849,6.7589,6.6934,6.7372,6.7211,6.7047,6.7145,6.6863,6.6653,6.6708,6.6327,6.6114,6.6129,6.5331,6.4769,6.4641,6.4105,6.3854,6.4016,6.3939,6.3939,6.4016,6.4008,6.4038,6.4038,6.4537,6.4785,6.4824,6.5818,6.6564,6.452,6.5929,6.7348,6.7277,6.7341,6.7413,6.7303,0.0,0.0,0.0,6.4244,6.3782,6.3657,6.3493,6.3551,6.4056,6.3885,6.3918,6.4582,6.4372,6.4495,6.5439,6.5247,6.5149,6.5316,6.5149,6.5014,6.5014,6.4809,6.4672,6.4672,6.4672,6.4672,6.4672,6.4672,6.4672,6.4672,6.4706,6.4844,6.4945,6.4809,6.4911,6.5249,6.5249,6.5349,6.551,6.5707,6.6296,6.7307,6.8255,6.9209,7.0125,7.0919,7.134,7.1463,7.1494,7.1713,7.2018,7.2233,7.238,7.2467,7.2496,7.2582,7.252,7.1848,7.1747,7.1763,7.1194,7.1142,7.1231,7.1256,7.1354,7.1413,7.1277,7.124,7.1077,7.0405,7.0275,7.0045,6.9319,6.8607,6.8393,6.9047,6.8055,6.7443,6.8241,6.7854,6.7483,6.7543,6.7562,6.7561,6.7579,6.7466,6.7426,6.746,6.7445,6.6855,6.5639,6.5411,6.5329,6.5296,6.5248,6.5264,6.5305,6.5383,6.5452,6.5605,6.6406,6.6872,6.704,6.8028,6.8482,6.5287,6.6793,6.7867,6.6442,6.6161,6.6089,6.5405,0.0,0.0,0.0,0.0,6.4792,6.4621,6.4374,6.4411,6.5098,6.4333,6.3979,6.4736,6.4563,6.4689,6.5633,6.548,6.5316,6.5445,6.518,6.5014,6.5014,6.4809,6.4672,6.4672,6.4672,6.4672,6.4672,6.4672,6.4672,6.4672,6.4843,6.4877,6.474,6.4912,6.5014,6.5048,6.5048,6.518,6.5477,6.551,6.62,6.7239,6.8095,6.9013,6.9933,7.0724,7.1179,7.134,7.1467,7.1713,7.2048,7.2351,7.238,7.2358,7.2438,7.2496,7.2524,7.2378,7.2455,7.2558,7.265,7.2257,7.1895,7.2023,7.2049,7.1888,7.1156,7.0971,7.0958,7.0933,7.0435,6.9961,6.993,6.9334,6.89,6.9012,6.8928,6.8903,6.9037,6.9068,6.908,6.922,6.8714,6.8357,6.8413,6.7807,6.739,6.7408,6.7408,6.7331,6.7172,6.6418,6.5732,6.5215,6.528,6.5305,6.5398,6.5413,6.5757,6.6522,6.6712,6.7223,6.8009,6.8901,6.9393,6.3437,6.4992,6.6234,6.5367,6.6307,6.7213,6.6326,0.0,0.0,0.0,0.0,6.528,6.5523,6.5405,6.527,6.5255,6.474,6.445,6.4715,6.4532,6.4721,6.5665,6.5578,6.5445,6.5675,6.5412,6.5214,6.5182,6.498,6.4809,6.4706,6.4672,6.4672,6.4672,6.4672,6.4672,6.4672,6.4775,6.4775,6.4672,6.4775,6.498,6.5182,6.5182,6.5349,6.5675,6.6103,6.6842,6.7754,6.8675,6.9562,7.0384,7.0775,7.1048,7.1308,7.1562,7.1749,7.1933,7.2137,7.2263,7.2329,7.2351,7.2438,7.2422,7.1982,7.1863,7.1985,7.2116,7.2408,7.2696,7.2789,7.2878,7.2767,7.2332,7.2258,7.2172,7.1776,7.1442,7.1143,7.0707,7.0415,7.0134,6.9754,6.9761,6.9663,6.9343,6.9353,6.9436,6.962,6.9377,6.917,6.9285,6.8982,6.8754,6.8754,6.8754,6.8374,6.7572,6.7116,6.6771,6.6514,6.6614,6.6679,6.6711,6.672,6.6942,6.7362,6.7852,6.835,6.8808,6.9725,7.0465,6.1989,6.3529,6.4968,6.4703,6.6281,6.7726,0.0,0.0,0.0,0.0,0.0,6.56,6.5833,6.5925,6.5828,6.5484,6.5345,6.5161,6.4939,6.4781,6.4999,6.57,6.564,6.5607,6.574,6.5575,6.5412,6.5316,6.5149,6.498,6.4775,6.474,6.474,6.4672,6.4672,6.4672,6.4672,6.4672,6.4672,6.4672,6.474,6.4911,6.5249,6.5249,6.5415,6.5775,6.653,6.7311,6.8159,6.908,6.9969,7.0718,7.0752,7.0985,7.1276,7.1656,7.1755,7.1687,7.1927,7.2114,7.2233,7.2299,7.238,7.2386,7.1798,7.1578,7.1606,7.171,7.241,7.3145,7.3331,7.3346,7.3346,7.3372,7.3398,7.325,7.2643,7.2459,7.2174,7.1529,7.1328,7.1149,7.0644,7.06,7.0391,6.9762,6.9821,6.9943,6.9942,7.0113,7.021,7.0195,7.0157,7.0081,6.9929,6.991,6.9379,6.8144,6.7932,6.7756,6.7583,6.769,6.774,6.7757,6.7817,6.798,6.8171,6.8852,6.9359,6.9628,7.0371,7.1098,6.2724,6.4279,6.5585,6.4931,6.5101,0.0,6.5823,6.4984,0.0,6.4658,0.0,6.5879,6.5049,6.5395,6.596,6.6361,6.6289,6.6136,6.5914,6.5792,6.5732,6.5804,6.5804,6.5707,6.5542,6.551,6.5412,6.5316,6.5282,6.5182,6.5014,6.498,6.4877,6.4706,6.4672,6.4672,6.4672,6.4672,6.4672,6.4672,6.4877,6.4979,6.5048,6.5048,6.518,6.5548,6.6065,6.6943,6.8159,6.8776,6.9629,7.0548,7.0718,7.0919,7.1078,7.1593,7.1593,7.1404,7.1836,7.2018,7.2048,7.2233,7.238,7.2496,7.2422,7.2422,7.2451,7.2593,7.2686,7.2807,7.3145,7.3225,7.3252,7.3346,7.3398,7.3424,7.3478,7.2806,7.2223,7.2286,7.1738,7.1274,7.1237,7.1424,7.1321,7.0539,7.1043,7.1319,7.0784,7.1371,7.1642,7.1085,7.0991,7.0687,6.9967,6.9948,6.9928,6.9721,6.8963,6.8203,6.7534,6.7514,6.7549,6.7618,6.7757,6.8188,6.8929,6.9126,6.9664,7.0508,7.0639,7.0752,6.0949,6.2727,6.4276,6.412,6.4731,0.0,0.0,6.5642,6.5557,6.6236,6.6408,0.0,6.5111,6.5814,6.6388,6.5967,6.6187,6.6361,6.6207,6.6052,6.5927,6.5927,6.5867,6.5772,6.5707,6.5707,6.5607,6.5447,6.5412,6.5316,6.5014,6.5014,6.4877,6.4706,6.4672,6.4672,6.4672,6.4672,6.4672,6.4672,6.4877,6.5014,6.4979,6.5149,6.5497,6.6093,6.6806,6.7652,6.874,6.9454,7.0057,7.0548,7.0817,7.0949,7.1045,7.1467,7.1857,7.2191,7.2382,7.2896,7.3519,7.3581,7.3427,7.323,7.323,7.2899,7.2496,7.2553,7.2582,7.2638,7.2982,7.3145,7.3199,7.3278,7.3357,7.3398,7.345,7.3201,7.2952,7.3004,7.2845,7.2596,7.211,7.2202,7.2079,7.1359,7.1531,7.1658,7.1555,7.1803,7.1962,7.1919,7.1408,7.0991,7.0649,7.0195,6.9929,6.9948,6.9626,6.9303,6.9053,6.9585,6.9887,6.9939,7.0615,7.1069,7.1353,7.1477,7.1767,7.217,7.2211,7.2594,5.9995,6.1615,6.3111,6.3554,0.0,0.0,6.5979,6.6069,6.6233,6.7223,6.6682,6.5893,6.5404,6.5889,6.6276,6.5946,6.63,6.644,6.5976,6.5756,6.5555,6.5305,6.5363,6.5379,6.5383,6.5415,6.5422,6.551,6.5329,6.5196,6.5147,6.5149,6.4979,6.4775,6.4706,6.4672,6.4672,6.4672,6.4672,6.4672,6.4877,6.5014,6.4979,6.5149,6.564,6.6417,6.7092,6.8008,6.9066,6.9812,7.0306,7.0616,7.085,7.1093,7.1342,7.1701,7.2272,7.2926,7.3023,7.3643,7.4337,7.4337,7.4038,7.3648,7.3648,7.3127,7.2496,7.2496,7.2496,7.2553,7.2788,7.2982,7.3145,7.3199,7.3305,7.3398,7.3398,7.3398,7.3398,7.3398,7.3527,7.3529,7.3006,7.3039,7.2918,7.2184,7.232,7.2462,7.2359,7.2569,7.2751,7.275,7.2034,7.1522,7.1503,7.1048,7.0801,7.0801,7.0782,7.0649,7.0421,7.0989,7.1464,7.1729,7.2427,7.2803,7.2803,7.2928,7.3012,7.3079,7.3153,7.3538,6.0364,6.1353,6.242,6.3513,6.3951,6.453,6.6109,6.5992,6.582,6.6929,6.6007,6.5221,6.5825,6.5459,6.5396,6.6555,6.6786,6.6378,6.5256,6.4967,6.4588,6.38,6.422,6.4563,6.4404,6.4532,6.4852,6.5439,6.4927,6.4852,6.5439,6.5346,6.518,6.4979,6.4775,6.4672,6.4672,6.4672,6.4672,6.4672,6.4877,6.5014,6.5014,6.5014,6.5539,6.6452,6.6813,6.7764,6.9066,6.9672,7.0237,7.0821,7.0821,7.1251,7.1966,7.2335,7.2909,7.3458,7.379,7.4055,7.4215,7.4215,7.3889,7.3543,7.3507,7.3039,7.2496,7.2496,7.2496,7.2496,7.2496,7.276,7.3037,7.3172,7.3305,7.3372,7.3398,7.3398,7.3398,7.3398,7.364,7.3815,7.3815,7.4033,7.3897,7.3033,7.3672,7.3943,7.3229,7.3853,7.4168,7.3573,7.2925,7.2472,7.2413,7.2586,7.2642,7.251,7.2622,7.228,7.1351,7.1387,7.1767,7.251,7.2713,7.2803,7.282,7.2983,7.3017,7.3034,7.316,7.32,5.8655,6.0033,6.1464,6.1978,6.3548,6.5081,6.5558,6.5951,0.0,0.0,6.6486,6.6276,6.4273,6.5374,6.6107,6.4767,6.542,6.575,6.4752,6.4433,6.4272,6.402,6.4429,6.4746,6.4684,6.4622,6.4666,6.4852,6.4167,6.3716,6.368,6.3615,6.3736,6.4,6.3968,6.4111,6.4463,6.4637,6.4637,6.4463,6.4706,6.4775,6.481,6.551,6.6179,6.6849,6.7693,6.8646,6.9672,7.013,7.0341,7.0481,7.1392,7.1919,7.2204,7.3146,7.3935,7.4588,7.4688,7.5251,7.5887,7.598,7.5661,7.508,7.4615,7.3971,7.334,7.334,7.2936,7.2642,7.3193,7.308,7.2807,7.3009,7.3172,7.3305,7.3372,7.3398,7.3398,7.3398,7.364,7.3815,7.3815,7.4033,7.4122,7.3859,7.4047,7.4168,7.4019,7.4347,7.4552,7.4351,7.3717,7.3247,7.3265,7.2793,7.2472,7.251,7.2548,7.249,7.2371,7.2886,7.3286,7.3646,7.4234,7.4557,7.4557,7.4702,7.4771,7.4839,7.4889,7.497,5.8051,5.9699,6.1368,6.1823,6.3466,6.5014,6.5345,6.6276,6.6791,6.5778,6.6563,6.6585,6.396,6.5154,6.6006,6.44,6.4904,6.5131,6.4146,6.3832,6.361,6.3228,6.3585,6.4015,6.4337,6.422,6.4269,6.459,6.3841,6.3284,6.3038,6.2942,6.2994,6.326,6.3092,6.3342,6.3974,6.4078,6.4218,6.4393,6.4602,6.4672,6.4741,6.5653,6.6427,6.7058,6.8362,6.9282,6.9813,7.0202,7.0306,7.0308,7.1507,7.2179,7.2572,7.367,7.4564,7.5284,7.5419,7.588,7.6378,7.6541,7.6195,7.5625,7.5207,7.4568,7.4006,7.4066,7.3765,7.3399,7.3634,7.3398,7.3072,7.2918,7.3037,7.3225,7.3305,7.3346,7.3398,7.3398,7.364,7.3815,7.3815,7.4033,7.4197,7.4197,7.4197,7.4243,7.438,7.4821,7.5027,7.4729,7.4644,7.4457,7.4116,7.3684,7.3439,7.3497,7.3878,7.4162,7.429,7.4083,7.4141,7.454,7.5071,7.5374,7.5374,7.5445,7.5688,7.6046,7.608,7.6394,5.8268,6.0041,6.1667,6.2536,6.3579,6.4635,6.5435,6.6701,6.7314,6.5891,6.6248,6.6235,6.4451,6.4905,6.5356,6.4851,6.4862,6.4536,6.3412,6.3202,6.2774,6.192,6.2249,6.2797,6.3544,6.3428,6.3591,6.4341,6.3627,6.3106,6.2986,6.2762,6.2637,6.2549,6.2254,6.247,6.3275,6.324,6.3659,6.4393,6.4568,6.4672,6.4812,6.5584,6.6426,6.7304,6.8926,6.9598,6.9634,7.0026,7.0167,7.0273,7.1372,7.2191,7.2976,7.4046,7.4905,7.555,7.5865,7.6003,7.6038,7.6278,7.5937,7.5487,7.5415,7.4997,7.4572,7.4726,7.472,7.4561,7.4015,7.3817,7.3553,7.2933,7.2992,7.3172,7.3199,7.3305,7.3398,7.3398,7.364,7.3815,7.3815,7.4033,7.4197,7.4197,7.4197,7.4243,7.438,7.517,7.5453,7.4767,7.5477,7.5749,7.5084,7.5091,7.515,7.5226,7.6161,7.6712,7.6712,7.5243,7.4767,7.5456,7.5641,7.5747,7.5747,7.5747,7.6112,7.68,7.6964,7.7488,5.8567,5.9785,6.0895,6.1932,6.3294,6.4683,6.5689,6.6086,6.5989,6.5014,6.5458,6.5532,6.3904,6.4659,6.5066,6.3539,6.3782,6.38,6.2602,6.2413,6.2295,6.1987,6.2385,6.2723,6.2902,6.2701,6.2592,6.277,6.19,6.1285,6.1167,6.1047,6.1072,6.1345,6.128,6.1844,6.3067,6.3067,6.352,6.4393,6.4358,6.4707,6.5443,6.6177,6.737,6.8814,6.9384,6.9598,6.9634,6.9849,6.9956,7.0168,7.1872,7.2761,7.3222,7.4867,7.5584,7.5763,7.5971,7.6003,7.6038,7.6412,7.6436,7.6247,7.5689,7.5462,7.5379,7.5411,7.4936,7.4634,7.5263,7.4519,7.3523,7.3487,7.3258,7.3064,7.3172,7.3305,7.3398,7.3398,7.364,7.3815,7.3815,7.4033,7.4197,7.4197,7.4289,7.4358,7.438,7.473,7.4897,7.4729,7.5029,7.5433,7.5964,7.6064,7.6408,7.7093,7.736,7.7455,7.7455,7.7264,7.726,7.7377,7.7431,7.7449,7.7449,7.7449,7.7564,7.7717,7.7806,7.8024,5.7478,5.8745,6.0026,6.1864,6.3497,6.4721,6.4942,6.5277,6.5268,6.445,6.5153,6.5416,6.3715,6.4335,6.4635,6.3113,6.3272,6.3257,6.2522,6.2318,6.2275,6.2114,6.2145,6.2314,6.2673,6.2451,6.2271,6.2271,6.1727,6.1153,6.0645,6.0489,6.0413,6.0441,6.0792,6.1427,6.2301,6.2788,6.338,6.4145,6.418,6.4844,6.6066,6.6872,6.8034,6.934,6.9451,6.9487,6.9524,6.9705,6.9742,6.9954,7.1908,7.2763,7.3083,7.4834,7.5514,7.555,7.5691,7.5762,7.5832,7.621,7.6311,7.6273,7.6003,7.5923,7.5992,7.6057,7.5798,7.5534,7.5823,7.5299,7.4488,7.3861,7.3312,7.3009,7.3091,7.3278,7.3398,7.3476,7.3615,7.3765,7.3888,7.4056,7.422,7.4266,7.4335,7.4576,7.5063,7.5572,7.5922,7.5986,7.6473,7.684,7.6878,7.6977,7.7226,7.7645,7.8122,7.837,7.837,7.8904,7.8806,7.7911,7.7966,7.8022,7.8022,7.8022,7.8232,7.8668,7.8721,7.8999,5.5794,5.7635,5.9396,6.2106,6.3729,6.4523,6.407,6.454,6.4839,6.4107,6.4905,6.5259,6.3756,6.403,6.4183,6.3258,6.3099,6.2965,6.2496,6.2307,6.2214,6.203,6.1678,6.1752,6.2479,6.2295,6.2123,6.2092,6.1875,6.1406,6.0614,6.0392,6.0139,5.9779,6.0517,6.1151,6.164,6.2509,6.3273,6.3963,6.4351,6.5223,6.6475,6.7529,6.8486,6.9339,6.9376,6.9446,6.9588,6.9559,6.9667,6.9987,7.1763,7.2547,7.2797,7.4509,7.5152,7.5225,7.5406,7.5478,7.555,7.5867,7.5969,7.6038,7.6174,7.6275,7.6309,7.6478,7.6548,7.6465,7.6099,7.5933,7.5556,7.4352,7.3726,7.3324,7.3241,7.3495,7.3807,7.3787,7.3689,7.374,7.4009,7.424,7.4469,7.4606,7.4741,7.517,7.5993,7.6755,7.7273,7.7417,7.8128,7.8362,7.7812,7.7911,7.8046,7.816,7.8885,7.9362,7.9362,8.0087,7.9857,7.8523,7.8444,7.8443,7.8443,7.8443,7.8917,7.9828,7.9884,8.0392,5.4248,5.6932,5.9622,6.2407,6.3195,6.3456,6.4156,6.4342,6.4281,6.4169,6.4171,6.4112,6.3867,6.3904,6.3913,6.3557,6.3511,6.3113,6.19,6.1691,6.1579,6.1194,6.0982,6.1172,6.1828,6.1616,6.1384,6.1272,6.097,6.0653,6.0427,6.0107,5.9879,5.9779,6.0318,6.0981,6.1849,6.2332,6.3094,6.4179,6.5283,6.6009,6.6289,6.7711,6.8635,6.9153,6.9339,6.9762,7.0288,6.9693,6.991,7.0726,7.1717,7.2293,7.2797,7.4362,7.5042,7.5225,7.5406,7.5478,7.5514,7.5763,7.5901,7.6003,7.6038,7.614,7.6311,7.6309,7.6345,7.6376,7.6469,7.6085,7.5625,7.5598,7.5205,7.4659,7.4136,7.4709,7.5133,7.4561,7.4062,7.3864,7.4127,7.4798,7.5295,7.5434,7.615,7.6753,7.6998,7.7235,7.7379,7.7483,7.7718,7.8121,7.8828,7.8999,7.9361,8.0087,8.0258,8.0296,8.0296,8.043,8.0735,8.1251,8.0544,8.0162,8.0162,8.0162,8.0638,8.1589,8.1699,8.2263,5.4054,5.68,5.9083,6.141,6.2258,6.2673,6.3104,6.318,6.3256,6.3747,6.3371,6.3177,6.3892,6.4,6.3787,6.3103,6.294,6.2524,6.1375,6.1053,6.0982,6.1182,6.057,6.0341,6.0979,6.0403,6.0103,6.0297,6.0058,6.0026,6.0234,5.9943,5.9716,5.9518,6.0216,6.0912,6.1536,6.2119,6.3084,6.4329,6.5437,6.6274,6.6837,6.7912,6.8551,6.8892,6.8967,6.929,6.9683,6.9367,6.9549,7.0156,7.1464,7.2107,7.2469,7.4139,7.4857,7.5042,7.5116,7.5225,7.537,7.5585,7.5656,7.5834,7.6336,7.6654,7.6865,7.7335,7.7583,7.7686,7.7889,7.7407,7.6777,7.6627,7.638,7.6086,7.5543,7.5513,7.555,7.5421,7.5308,7.5308,7.5467,7.5873,7.6239,7.6354,7.679,7.7316,7.7917,7.8099,7.8394,7.8853,7.9091,7.94,7.9782,7.9915,8.0124,8.0468,8.0506,8.0735,8.1194,8.1232,8.1614,8.2455,8.1652,8.1461,8.1881,8.1881,8.2129,8.2623,8.2697,8.2978,5.3027,5.557,5.751,5.9883,6.1086,6.1818,6.2302,6.2411,6.2656,6.3529,6.2985,6.268,6.3822,6.3778,6.332,6.25,6.2258,6.1847,6.0796,6.0416,6.0417,6.0787,6.0012,5.9641,6.0151,5.949,5.9166,5.939,5.9212,5.9324,5.9724,5.9566,5.9408,5.9386,6.0114,6.067,6.1013,6.1836,6.2965,6.4435,6.5344,6.6328,6.7246,6.7973,6.8501,6.8829,6.8736,6.8958,6.9357,6.9185,6.9472,7.0115,7.1425,7.2063,7.2456,7.3984,7.4631,7.4819,7.4819,7.5111,7.5437,7.562,7.5872,7.6231,7.6913,7.7272,7.7557,7.817,7.8492,7.8667,7.8805,7.8472,7.7953,7.7445,7.739,7.7291,7.6847,7.6326,7.5985,7.6308,7.6355,7.6394,7.653,7.6874,7.7174,7.7312,7.7612,7.8122,7.8858,7.9039,7.9367,8.0037,8.0255,8.0487,8.0736,8.0812,8.0926,8.1117,8.1156,8.1423,8.2073,8.2111,8.2493,8.3295,8.2722,8.2607,8.299,8.299,8.3162,8.3485,8.3485,8.3691,5.009,5.2145,5.4409,5.8037,5.9627,6.0707,6.2308,6.2727,6.3015,6.3879,6.3382,6.2994,6.3758,6.3,6.2146,6.1977,6.1785,6.1246,6.0094,5.9869,5.9708,5.9378,5.9139,5.9187,5.9579,5.9385,5.8992,5.8601,5.8432,5.8487,5.8762,5.8569,5.882,5.9553,5.9806,6.0045,6.0254,6.1375,6.2737,6.4435,6.5225,6.6097,6.7053,6.7812,6.8537,6.9267,6.8899,6.9237,7.0091,6.9392,7.0065,7.1587,7.1693,7.2264,7.3159,7.397,7.4441,7.4593,7.4593,7.5241,7.6031,7.6069,7.6793,7.7662,7.7771,7.7918,7.8063,7.8099,7.8279,7.8421,7.8457,7.8666,7.8756,7.8118,7.8098,7.8134,7.7813,7.7197,7.6894,7.7334,7.6766,7.6281,7.6552,7.7396,7.8078,7.8217,7.901,7.9658,7.9912,7.9916,8.0037,8.0353,8.0392,8.0774,8.1633,8.1729,8.2073,8.2798,8.2875,8.2875,8.2913,8.2913,8.3333,8.4212,8.4174,8.3792,8.299,8.299,8.3467,8.4327,8.4327,8.4842,4.8682,5.0439,5.2108,5.4912,5.6697,5.7953,5.8729,5.9818,6.0917,6.1786,6.1697,6.171,6.258,6.2559,6.2197,6.146,6.1149,6.066,5.9663,5.9289,5.9159,5.9388,5.8707,5.8349,5.8668,5.799,5.7529,5.7604,5.7347,5.7579,5.8465,5.834,5.8522,5.9081,5.915,5.9558,6.0301,6.2317,6.3781,6.4732,6.5794,6.6661,6.7342,6.7702,6.8057,6.8332,6.8182,6.9046,7.0471,6.9741,7.0213,7.1462,7.1987,7.2493,7.3002,7.3811,7.4209,7.4473,7.4967,7.5437,7.5948,7.6479,7.6953,7.7502,7.8039,7.8409,7.8778,7.9316,7.9682,7.9937,7.9937,7.9755,7.9455,7.8923,7.8537,7.8353,7.8514,7.796,7.7635,7.8155,7.8036,7.7915,7.8288,7.8719,7.9024,7.9199,7.9605,7.9924,7.9924,8.057,8.1035,8.1055,8.167,8.2187,8.2531,8.2569,8.2684,8.299,8.299,8.3486,8.4556,8.4594,8.5282,8.6696,8.6734,8.6008,8.4594,8.4594,8.5072,8.5933,8.5933,8.6451,4.6887,4.8695,5.0483,5.276,5.4452,5.5796,5.6647,5.7808,5.8995,5.9868,6.0264,6.0689,6.1565,6.1927,6.1784,6.0903,6.0564,6.0053,5.9063,5.8612,5.8364,5.8348,5.7831,5.7448,5.7448,5.693,5.6624,5.6673,5.6634,5.704,5.7985,5.807,5.822,5.8491,5.8729,5.9302,6.0194,6.231,6.3917,6.4903,6.5932,6.6839,6.7475,6.7638,6.7856,6.8143,6.7902,6.8762,7.0302,6.9783,7.0536,7.2036,7.2674,7.3282,7.3891,7.4532,7.4862,7.5055,7.5508,7.6019,7.6494,7.7024,7.7536,7.8012,7.8828,7.9316,7.9694,8.0191,8.0677,8.0943,8.0728,8.037,7.9927,7.9688,7.9154,7.8815,7.8987,7.8404,7.8014,7.8602,7.876,7.8941,7.9263,7.9453,7.9592,7.9683,7.9881,8.0009,7.9988,8.0918,8.1592,8.1534,8.2416,8.3104,8.341,8.3448,8.3563,8.383,8.4098,8.4785,8.5893,8.6237,8.6925,8.8071,8.811,8.7536,8.639,8.639,8.6658,8.7231,8.7231,8.7597,0.0,0.0,0.0,5.1642,5.2981,5.4282,5.6346,5.6926,5.7312,5.8291,5.9163,6.0024,6.074,6.0925,6.0773,6.0326,6.0007,5.9441,5.8377,5.7997,5.7393,5.6236,5.6506,5.658,5.6054,5.6335,5.6374,5.5929,5.6323,5.6764,5.7254,5.7661,5.7912,5.7918,5.8623,5.9291,5.9809,6.129,6.3012,6.4903,6.5651,6.6514,6.751,6.751,6.8008,6.8829,6.8108,6.8487,6.9609,6.9609,7.1081,7.3369,7.3612,7.4601,7.5929,7.6211,7.6292,7.6292,7.6327,7.6941,7.7813,7.7813,7.8428,7.9332,8.0151,8.0521,8.0723,8.0683,8.1038,8.1248,8.0649,8.037,8.0246,8.0381,8.0056,7.9601,7.9164,7.8491,7.8193,7.8629,7.8915,7.9165,7.9287,7.9523,7.9683,7.9705,7.9903,8.0034,8.0175,8.1057,8.1689,8.1824,8.2569,8.3429,8.425,8.4327,8.4671,8.5511,8.6352,8.681,8.6887,8.7689,8.8148,8.8148,8.8148,8.8148,8.8148,8.811,8.811,8.8148,8.8186,8.8247,4.3542,0.0,0.0,0.0,0.0,0.0,5.2001,5.2916,5.3953,5.5588,5.6619,5.748,5.8382,5.8978,5.9246,5.904,5.9639,5.9771,5.8662,5.8721,5.8221,5.6395,5.6535,5.6603,5.6054,5.5728,5.564,5.5758,5.5439,5.5706,5.6798,5.75,5.8133,5.8693,5.9136,5.9761,6.0583,6.2098,6.3505,6.4695,6.5603,6.635,6.698,6.718,6.7489,6.7865,6.7659,6.8595,7.0205,7.0205,7.1676,7.3886,7.3969,7.4678,7.5715,7.5757,7.5798,7.5868,7.6629,7.7068,7.7432,7.8124,7.8647,7.9129,7.994,8.0317,8.0587,8.119,8.123,8.1058,8.0798,8.0695,8.0766,8.1184,8.0835,8.0324,7.9952,7.9517,7.9111,7.8767,7.8915,7.919,7.9406,7.9592,7.975,7.9924,8.0051,8.0154,8.0195,8.1612,8.2588,8.2587,8.4022,8.5035,8.5167,8.5284,8.5628,8.639,8.6696,8.7345,8.8568,8.8835,8.9256,8.9905,8.9905,8.9905,8.9905,8.8683,8.8377,8.8988,9.0211,9.0847,0.0,0.0,0.0,0.0,0.0,0.0,4.9747,5.0572,5.1431,5.2607,5.3841,5.498,5.5841,5.6652,5.7384,5.7986,5.8595,5.8719,5.7824,5.7808,5.7263,5.5434,5.5544,5.5555,5.4967,5.4962,5.5001,5.5039,5.4969,5.5434,5.6577,5.7077,5.7732,5.8589,5.9131,5.9789,6.0644,6.2118,6.3381,6.4293,6.5159,6.5977,6.6643,6.6846,6.7097,6.7387,6.7694,6.8761,7.0306,7.096,7.2464,7.4471,7.4903,7.5655,7.6434,7.6528,7.6571,7.664,7.7221,7.7403,7.7585,7.8481,7.8939,7.9318,8.0407,8.1014,8.1337,8.1789,8.1744,8.1406,8.0966,8.1088,8.131,8.1481,8.1352,8.1102,8.0801,8.0724,8.0301,7.8981,7.9016,7.9335,7.9477,7.9683,7.9881,7.9971,8.0175,8.0275,8.0275,8.1862,8.299,8.3008,8.4653,8.5667,8.5648,8.5686,8.6087,8.6872,8.7274,8.8039,8.936,8.972,9.0141,9.0717,9.0676,9.0809,9.1191,8.9811,8.9561,9.0364,9.1357,9.207,0.0,0.0,0.0,0.0,4.6746,0.0,4.8769,4.9164,4.9342,4.9619,5.0948,5.2212,5.2957,5.3867,5.4958,5.6278,5.6575,5.6589,5.6473,5.6291,5.5621,5.4092,5.4166,5.4085,5.3436,5.4011,5.4296,5.4022,5.4767,5.5519,5.6275,5.6373,5.6925,5.8114,5.8734,5.9505,6.0384,6.1675,6.2866,6.3919,6.4589,6.5411,6.6464,6.6464,6.672,6.7173,6.7962,6.8963,7.0202,7.1739,7.3387,7.5025,7.5993,7.6842,7.7613,7.7754,7.7807,7.7807,7.7885,7.792,7.8093,7.8754,7.9208,7.9766,8.1199,8.1962,8.231,8.2353,8.2247,8.2027,8.1323,8.1502,8.1814,8.1488,8.1617,8.1798,8.1507,8.1726,8.1354,7.9242,7.9278,7.9613,7.9546,7.9778,8.0013,8.0034,8.0255,8.0411,8.043,8.1939,8.3066,8.3197,8.4709,8.5742,8.5797,8.5892,8.6332,8.7196,8.8078,8.8883,8.9727,9.0358,9.0818,9.103,9.1009,9.139,9.2156,9.1306,9.1243,9.193,9.2045,9.2567,0.0,0.0,0.0,4.4504,4.4951,0.0,4.6789,4.6723,4.6669,4.7546,4.8078,4.8393,4.8617,4.994,5.0835,5.0338,5.1886,5.3988,5.639,5.6965,5.6365,5.4326,5.4192,5.4026,5.3315,5.2918,5.2881,5.3433,5.4088,5.4659,5.5102,5.5518,5.6591,5.8368,5.8404,5.921,6.0895,6.1227,6.2199,6.3886,6.4053,6.4866,6.6182,6.6421,6.6635,6.6964,6.7878,6.8879,6.9943,7.2063,7.3694,7.4981,7.5853,7.6612,7.7268,7.7313,7.7357,7.7357,7.7579,7.8039,7.8603,7.8884,7.9459,8.02,8.1106,8.1429,8.1608,8.1962,8.2075,8.2015,8.1982,8.1584,8.132,8.1888,8.1845,8.1599,8.1313,8.1193,8.086,8.0009,8.0192,8.0301,7.9826,7.9886,8.0055,8.0313,8.0392,8.0506,8.0542,8.2143,8.3231,8.3288,8.4872,8.5887,8.5815,8.6501,8.7269,8.8078,8.8921,8.9765,9.0609,9.0781,9.1203,9.1912,9.2544,9.2966,9.312,9.2801,9.2695,9.2847,9.3573,9.4063,4.3451,4.3409,4.3714,4.3939,4.4065,0.0,0.0,4.4719,4.4546,4.5183,4.5309,4.5504,4.6003,4.6781,4.7605,4.8386,4.9449,5.0954,5.3157,5.4702,5.4943,5.3119,5.3361,5.32,5.2042,5.1883,5.2021,5.2393,5.2872,5.3476,5.4161,5.4481,5.5673,5.7919,5.8017,5.8862,6.0548,6.0793,6.1772,6.3411,6.3539,6.4433,6.5955,6.6215,6.643,6.6711,6.8116,6.9008,6.9731,7.1981,7.3567,7.4665,7.5832,7.6564,7.7009,7.7009,7.7009,7.7123,7.7762,7.8141,7.8499,7.9361,8.0213,8.1067,8.1875,8.2257,8.2383,8.2137,8.2212,8.2348,8.2143,8.1738,8.147,8.1844,8.1671,8.1503,8.1764,8.1585,8.1289,8.09,8.0817,8.0583,7.9892,8.0055,8.0276,8.0411,8.0562,8.067,8.0723,8.2214,8.3341,8.3393,8.498,8.5996,8.5958,8.6761,8.7662,8.8493,8.9299,9.0144,9.1028,9.1394,9.1989,9.2872,9.3678,9.41,9.41,9.4362,9.4258,9.3812,9.4206,9.4692,4.3979,4.3758,4.3889,4.4135,4.3919,4.3668,0.0,0.0,0.0,4.3124,4.309,4.3313,4.3906,4.4095,4.476,4.6655,4.7164,4.7683,4.8651,5.0836,5.2069,5.1411,5.1819,5.169,5.0497,5.0759,5.1045,5.1157,5.1394,5.2109,5.3363,5.335,5.4462,5.6969,5.7407,5.829,5.9599,6.0194,6.1271,6.276,6.3099,6.4078,6.5647,6.5955,6.6172,6.6445,6.8263,6.9122,6.944,7.1794,7.3288,7.4298,7.5743,7.6496,7.6702,7.6702,7.6805,7.7091,7.7927,7.8293,7.8588,7.9925,8.1098,8.2102,8.2769,8.3231,8.3378,8.2613,8.272,8.296,8.2505,8.2262,8.2074,8.1824,8.1598,8.1587,8.2031,8.1864,8.1577,8.1316,8.0999,8.0529,7.9979,8.0217,8.0506,8.0525,8.0705,8.0826,8.0843,8.2165,8.3235,8.3511,8.4895,8.5873,8.6094,8.7055,8.794,8.8671,8.9594,9.0479,9.1171,9.21,9.2985,9.3831,9.4676,9.5157,9.5291,9.5904,9.5688,9.478,9.4713,9.5117,4.5604,4.504,4.4702,4.5196,4.4751,4.4151,4.3882,0.0,4.3513,4.2256,0.0,4.1905,4.1293,0.0,0.0,4.1416,4.3014,4.4228,4.4021,4.5769,4.7768,4.9694,4.9427,4.9238,4.9581,4.9419,4.9493,4.9981,5.0029,5.0838,5.2621,5.2556,5.334,5.532,5.6205,5.7125,5.8113,5.9229,6.0618,6.2273,6.2716,6.3727,6.5189,6.5603,6.5824,6.6011,6.789,6.8749,6.8962,7.1436,7.3017,7.4071,7.5117,7.596,7.6541,7.6541,7.6951,7.7532,7.7648,7.8524,7.9706,8.0643,8.1874,8.3036,8.3139,8.3189,8.3289,8.3384,8.3679,8.3858,8.3717,8.3534,8.3147,8.2517,8.2243,8.1922,8.1249,8.0953,8.0758,8.0491,8.0272,8.0106,8.0134,8.0354,8.0543,8.0578,8.0754,8.0904,8.0968,8.1855,8.2787,8.3572,8.4535,8.5389,8.6055,8.7594,8.8594,8.8671,9.0171,9.1095,9.121,9.2692,9.3962,9.4826,9.5692,9.6443,9.7096,9.7211,9.673,9.5726,9.5726,9.5844,4.5802,4.5131,4.4655,4.5131,4.4363,4.3399,4.2975,4.2661,4.2183,4.1157,0.0,0.0,0.0,0.0,0.0,0.0,4.1429,4.1858,4.1713,4.2492,4.4253,4.7421,4.7399,4.7185,4.729,4.7533,4.8013,4.8756,4.8865,4.9663,5.157,5.1612,5.2383,5.4224,5.5301,5.6338,5.7304,5.8754,6.0308,6.197,6.2451,6.3549,6.5099,6.5425,6.5647,6.5924,6.7669,6.8473,6.8652,7.0692,7.2245,7.3498,7.408,7.5114,7.6297,7.6739,7.708,7.7536,7.8531,7.9507,8.052,8.2004,8.275,8.3155,8.3362,8.3517,8.3517,8.321,8.3426,8.3713,8.3541,8.3285,8.3068,8.3025,8.2519,8.1961,8.1791,8.1192,8.0701,8.0568,8.0264,8.0137,8.0354,8.056,8.0737,8.0771,8.0959,8.1085,8.1116,8.1923,8.2815,8.3663,8.455,8.556,8.683,8.8062,8.9145,9.0094,9.171,9.2864,9.3364,9.4557,9.5595,9.6442,9.7326,9.7885,9.8231,9.8231,9.8019,9.7596,9.7457,9.7437,4.6326,4.5531,4.4821,4.504,4.4002,4.2712,4.2021,4.1521,4.1009,4.0395,4.0257,0.0,0.0,0.0,0.0,0.0,0.0,3.9875,3.9942,3.9987,4.1221,4.4468,4.5046,4.5097,4.4904,4.5429,4.6203,4.7107,4.7277,4.8194,5.0266,5.0389,5.1203,5.2948,5.416,5.5208,5.6277,5.7883,5.9575,6.1455,6.2048,6.3236,6.4826,6.5156,6.5425,6.5703,6.748,6.8249,6.8349,7.0174,7.1791,7.3104,7.3384,7.453,7.6048,7.6843,7.725,7.7624,7.9109,8.0236,8.1241,8.2758,8.3288,8.3349,8.3529,8.3742,8.3851,8.3308,8.3637,8.4002,8.3431,8.3392,8.3391,8.3312,8.2721,8.2179,8.2231,8.1481,8.0756,8.0666,8.0331,8.0159,8.0468,8.0754,8.092,8.092,8.11,8.122,8.1234,8.2063,8.294,8.3751,8.4831,8.6022,8.7379,8.8534,8.9833,9.1441,9.2903,9.4095,9.496,9.5826,9.6673,9.748,9.8365,9.8885,9.9096,9.9115,9.9269,9.9442,9.8863,9.8572,4.7838,4.6866,4.5645,4.5224,4.3945,4.2485,4.1293,4.0854,4.0601,4.0203,3.9882,3.9765,3.991,0.0,0.0,0.0,0.0,0.0,0.0,3.8109,3.8745,4.0747,4.2055,4.2806,4.2811,4.3105,4.3761,0.0,4.4978,4.6113,4.8729,4.8923,4.9686,5.1263,5.2469,5.3605,5.4745,5.6246,5.8167,6.0456,6.1409,6.2612,6.4053,6.4781,6.5099,6.5243,6.7164,6.8023,6.8169,7.0129,7.1791,7.3104,7.3384,7.439,7.5811,7.6589,7.7333,7.8044,7.8855,8.0394,8.2057,8.2543,8.3172,8.3796,8.3796,8.4014,8.4177,8.4143,8.4785,8.5122,8.3903,8.4287,8.4723,8.3316,8.2961,8.2794,8.2212,8.1366,8.0665,8.0518,8.0235,8.0137,8.0542,8.0838,8.1016,8.1016,8.1191,8.1305,8.1374,8.2173,8.3023,8.3821,8.5418,8.6737,8.7417,8.9074,9.0719,9.2364,9.3249,9.4095,9.496,9.5826,9.6673,9.748,9.8365,9.9173,9.9862,10.0019,10.0404,10.1111,9.95,9.8788,4.7824,4.6782,4.5623,4.5607,4.4153,4.2448,4.1577,4.1012,4.0491,3.9891,3.9583,3.9426,3.9426,0.0,0.0,0.0,0.0,0.0,0.0,3.6386,3.6374,3.7686,3.9407,4.0489,4.0582,4.0845,4.1833,0.0,4.3675,0.0,4.6877,4.7614,4.8413,4.9574,5.1113,5.2648,5.4199,5.5487,5.7511,6.0408,6.085,6.2102,6.4006,6.424,6.4643,6.5198,6.6799,6.7704,6.8123,6.9762,7.1372,7.2868,7.2962,7.4315,7.6313,7.7284,7.7773,7.8314,8.0343,8.1528,8.2239,8.2898,8.3132,8.322,8.3443,8.3554,8.372,8.4102,8.466,8.5052,8.4469,8.4641,8.4809,8.4412,8.3549,8.2789,8.2837,8.2203,8.1428,8.0838,8.0873,8.0945,8.0813,8.1016,8.1191,8.1146,8.1263,8.1374,8.1387,8.2213,8.3102,8.394,8.5564,8.7069,8.8397,9.1027,9.2815,9.3267,9.4634,9.5788,9.6634,9.748,9.8365,9.9211,10.0019,10.0615,10.0807,10.0885,10.1,10.1307,10.0692,10.0519,4.7657,4.686,4.5909,4.5864,4.4338,4.2606,4.1713,4.088,4.0067,3.9357,3.9026,3.8933,3.9002,0.0,0.0,0.0,0.0,0.0,0.0,3.4806,3.4567,3.5138,3.6722,3.7925,3.8341,3.8649,3.962,0.0,0.0,0.0,0.0,4.6438,4.7478,4.8468,4.9912,5.159,5.3531,5.4579,5.6693,5.983,6.0329,6.1631,6.358,6.3865,6.4286,6.4892,6.6601,6.7473,6.7849,6.9623,7.1231,7.263,7.2915,7.4436,7.662,7.7509,7.8335,7.9297,8.1058,8.1926,8.2333,8.2988,8.3251,8.3304,8.3175,8.3387,8.3743,8.4006,8.45,8.493,8.4626,8.4668,8.481,8.4864,8.3738,8.2857,8.3429,8.2795,8.1921,8.1301,8.1295,8.1347,8.0975,8.1092,8.1277,8.1263,8.1387,8.1594,8.1904,8.274,8.3616,8.4482,8.6339,8.8196,8.9798,9.2371,9.3872,9.3764,9.5344,9.6673,9.748,9.8327,9.9211,10.0096,10.0904,10.152,10.1789,10.1789,10.1904,10.2212,10.2212,10.2212]}]]